<?xml version="1.0" encoding="UTF-8"?>
<gpx version="1.1" creator="Endomondo.com" xsi:schemaLocation="http://www.topografix.com/GPX/1/1 http://www.topografix.com/GPX/1/1/gpx.xsd http://www.garmin.com/xmlschemas/GpxExtensions/v3 http://www.garmin.com/xmlschemas/GpxExtensionsv3.xsd http://www.garmin.com/xmlschemas/TrackPointExtension/v1 http://www.garmin.com/xmlschemas/TrackPointExtensionv1.xsd" xmlns="http://www.topografix.com/GPX/1/1" xmlns:gpxtpx="http://www.garmin.com/xmlschemas/TrackPointExtension/v1" xmlns:gpxx="http://www.garmin.com/xmlschemas/GpxExtensions/v3" xmlns:xsi="http://www.w3.org/2001/XMLSchema-instance">
  <metadata>
    <author>
      <name>Michael Kreimerman</name>
      <email id="mkrim1970" domain="gmail.com"/>
    </author>
    <link href="http://www.endomondo.com">
      <text>Endomondo</text>
    </link>
    <time>2011-08-31T11:26:28Z</time>
    <bounds minlat="31.809647" minlon="35.020326" maxlat="31.809626" maxlon="35.020466"/>
  </metadata>
  <trk>
    <name>שער הגיא נחל אילן</name>
    <src>http://www.endomondo.com/</src>
    <link href="http://www.endomondo.com/workouts/mbwh-q0UuDM">
      <text>שער הגיא נחל אילן</text>
    </link>
    <type>MOUNTAIN_BIKING</type>
    <trkseg>
      <trkpt lat="31.809647" lon="35.020326">
        <time>2011-07-01T02:43:36Z</time>
      </trkpt>
      <trkpt lat="31.809647" lon="35.020326">
        <time>2011-07-01T02:43:47Z</time>
      </trkpt>
    </trkseg>
    <trkseg>
      <trkpt lat="31.809647" lon="35.020326">
        <time>2011-07-01T02:43:48Z</time>
      </trkpt>
      <trkpt lat="31.809647" lon="35.020326">
        <time>2011-07-01T02:44:00Z</time>
      </trkpt>
    </trkseg>
    <trkseg>
      <trkpt lat="31.809647" lon="35.020326">
        <time>2011-07-01T02:51:57Z</time>
      </trkpt>
      <trkpt lat="31.809647" lon="35.020326">
        <time>2011-07-01T02:52:09Z</time>
      </trkpt>
    </trkseg>
    <trkseg>
      <trkpt lat="31.809647" lon="35.020326">
        <time>2011-07-01T02:57:25Z</time>
      </trkpt>
      <trkpt lat="31.809647" lon="35.020326">
        <time>2011-07-01T02:57:36Z</time>
      </trkpt>
    </trkseg>
    <trkseg>
      <trkpt lat="31.809647" lon="35.020326">
        <time>2011-07-01T02:58:59Z</time>
      </trkpt>
      <trkpt lat="31.809647" lon="35.020326">
        <time>2011-07-01T02:59:10Z</time>
      </trkpt>
    </trkseg>
    <trkseg>
      <trkpt lat="31.809647" lon="35.020326">
        <time>2011-07-01T03:02:23Z</time>
      </trkpt>
      <trkpt lat="31.809647" lon="35.020326">
        <ele>330.0</ele>
        <time>2011-07-01T03:02:29Z</time>
      </trkpt>
      <trkpt lat="31.809534" lon="35.020176">
        <ele>330.0</ele>
        <time>2011-07-01T03:02:35Z</time>
      </trkpt>
      <trkpt lat="31.809481" lon="35.020096">
        <ele>329.0</ele>
        <time>2011-07-01T03:02:38Z</time>
      </trkpt>
      <trkpt lat="31.809481" lon="35.019897">
        <ele>328.0</ele>
        <time>2011-07-01T03:02:43Z</time>
      </trkpt>
      <trkpt lat="31.809529" lon="35.019677">
        <ele>326.0</ele>
        <time>2011-07-01T03:02:47Z</time>
      </trkpt>
      <trkpt lat="31.80961" lon="35.0195">
        <ele>324.0</ele>
        <time>2011-07-01T03:02:50Z</time>
      </trkpt>
      <trkpt lat="31.809636" lon="35.019425">
        <ele>322.0</ele>
        <time>2011-07-01T03:02:53Z</time>
      </trkpt>
      <trkpt lat="31.809701" lon="35.019264">
        <ele>322.0</ele>
        <time>2011-07-01T03:02:59Z</time>
      </trkpt>
      <trkpt lat="31.809695" lon="35.019178">
        <ele>321.0</ele>
        <time>2011-07-01T03:03:02Z</time>
      </trkpt>
      <trkpt lat="31.809695" lon="35.019178">
        <time>2011-07-01T03:03:13Z</time>
      </trkpt>
    </trkseg>
    <trkseg>
      <trkpt lat="31.809695" lon="35.019178">
        <time>2011-07-01T03:03:53Z</time>
      </trkpt>
      <trkpt lat="31.809652" lon="35.019028">
        <ele>319.0</ele>
        <time>2011-07-01T03:03:55Z</time>
      </trkpt>
      <trkpt lat="31.809695" lon="35.018889">
        <ele>318.0</ele>
        <time>2011-07-01T03:04:01Z</time>
      </trkpt>
      <trkpt lat="31.809829" lon="35.018889">
        <ele>317.0</ele>
        <time>2011-07-01T03:04:07Z</time>
      </trkpt>
      <trkpt lat="31.809905" lon="35.018937">
        <ele>317.0</ele>
        <time>2011-07-01T03:04:11Z</time>
      </trkpt>
      <trkpt lat="31.809985" lon="35.019066">
        <ele>318.0</ele>
        <time>2011-07-01T03:04:15Z</time>
      </trkpt>
      <trkpt lat="31.810033" lon="35.01913">
        <ele>318.0</ele>
        <time>2011-07-01T03:04:19Z</time>
      </trkpt>
      <trkpt lat="31.810162" lon="35.019205">
        <ele>322.0</ele>
        <time>2011-07-01T03:04:23Z</time>
      </trkpt>
      <trkpt lat="31.810221" lon="35.019232">
        <ele>323.0</ele>
        <time>2011-07-01T03:04:27Z</time>
      </trkpt>
      <trkpt lat="31.810269" lon="35.019291">
        <ele>323.0</ele>
        <time>2011-07-01T03:04:30Z</time>
      </trkpt>
      <trkpt lat="31.810393" lon="35.019393">
        <ele>324.0</ele>
        <time>2011-07-01T03:04:35Z</time>
      </trkpt>
      <trkpt lat="31.810457" lon="35.019452">
        <ele>325.0</ele>
        <time>2011-07-01T03:04:39Z</time>
      </trkpt>
      <trkpt lat="31.810538" lon="35.0195">
        <ele>324.0</ele>
        <time>2011-07-01T03:04:42Z</time>
      </trkpt>
      <trkpt lat="31.81065" lon="35.019608">
        <ele>324.0</ele>
        <time>2011-07-01T03:04:47Z</time>
      </trkpt>
      <trkpt lat="31.810699" lon="35.019667">
        <ele>324.0</ele>
        <time>2011-07-01T03:04:51Z</time>
      </trkpt>
      <trkpt lat="31.810763" lon="35.01972">
        <ele>324.0</ele>
        <time>2011-07-01T03:04:53Z</time>
      </trkpt>
      <trkpt lat="31.810876" lon="35.019827">
        <ele>322.0</ele>
        <time>2011-07-01T03:04:59Z</time>
      </trkpt>
      <trkpt lat="31.810945" lon="35.019876">
        <ele>321.0</ele>
        <time>2011-07-01T03:05:03Z</time>
      </trkpt>
      <trkpt lat="31.811004" lon="35.019951">
        <ele>323.0</ele>
        <time>2011-07-01T03:05:06Z</time>
      </trkpt>
      <trkpt lat="31.811053" lon="35.020021">
        <ele>323.0</ele>
        <time>2011-07-01T03:05:09Z</time>
      </trkpt>
      <trkpt lat="31.81116" lon="35.020106">
        <ele>323.0</ele>
        <time>2011-07-01T03:05:16Z</time>
      </trkpt>
      <trkpt lat="31.811213" lon="35.020149">
        <ele>323.0</ele>
        <time>2011-07-01T03:05:19Z</time>
      </trkpt>
      <trkpt lat="31.811251" lon="35.020224">
        <ele>327.0</ele>
        <time>2011-07-01T03:05:21Z</time>
      </trkpt>
      <trkpt lat="31.81131" lon="35.020262">
        <ele>327.0</ele>
        <time>2011-07-01T03:05:24Z</time>
      </trkpt>
      <trkpt lat="31.811444" lon="35.020375">
        <ele>327.0</ele>
        <time>2011-07-01T03:05:31Z</time>
      </trkpt>
      <trkpt lat="31.811509" lon="35.020418">
        <ele>328.0</ele>
        <time>2011-07-01T03:05:34Z</time>
      </trkpt>
      <trkpt lat="31.811562" lon="35.020471">
        <ele>328.0</ele>
        <time>2011-07-01T03:05:37Z</time>
      </trkpt>
      <trkpt lat="31.811621" lon="35.020509">
        <ele>328.0</ele>
        <time>2011-07-01T03:05:40Z</time>
      </trkpt>
      <trkpt lat="31.81182" lon="35.020471">
        <ele>327.0</ele>
        <time>2011-07-01T03:05:52Z</time>
      </trkpt>
      <trkpt lat="31.81183" lon="35.020391">
        <ele>326.0</ele>
        <time>2011-07-01T03:05:55Z</time>
      </trkpt>
      <trkpt lat="31.811836" lon="35.020305">
        <ele>327.0</ele>
        <time>2011-07-01T03:05:59Z</time>
      </trkpt>
      <trkpt lat="31.811825" lon="35.020219">
        <ele>328.0</ele>
        <time>2011-07-01T03:06:03Z</time>
      </trkpt>
      <trkpt lat="31.81183" lon="35.020128">
        <ele>328.0</ele>
        <time>2011-07-01T03:06:07Z</time>
      </trkpt>
      <trkpt lat="31.811836" lon="35.020042">
        <ele>330.0</ele>
        <time>2011-07-01T03:06:11Z</time>
      </trkpt>
      <trkpt lat="31.811846" lon="35.019956">
        <ele>330.0</ele>
        <time>2011-07-01T03:06:15Z</time>
      </trkpt>
      <trkpt lat="31.811846" lon="35.01987">
        <ele>331.0</ele>
        <time>2011-07-01T03:06:18Z</time>
      </trkpt>
      <trkpt lat="31.811873" lon="35.019785">
        <ele>330.0</ele>
        <time>2011-07-01T03:06:23Z</time>
      </trkpt>
      <trkpt lat="31.811895" lon="35.019699">
        <ele>331.0</ele>
        <time>2011-07-01T03:06:28Z</time>
      </trkpt>
      <trkpt lat="31.811906" lon="35.019618">
        <ele>332.0</ele>
        <time>2011-07-01T03:06:32Z</time>
      </trkpt>
      <trkpt lat="31.811938" lon="35.019543">
        <ele>332.0</ele>
        <time>2011-07-01T03:06:36Z</time>
      </trkpt>
      <trkpt lat="31.81197" lon="35.019463">
        <ele>333.0</ele>
        <time>2011-07-01T03:06:40Z</time>
      </trkpt>
      <trkpt lat="31.811991" lon="35.019393">
        <ele>334.0</ele>
        <time>2011-07-01T03:06:44Z</time>
      </trkpt>
      <trkpt lat="31.812013" lon="35.019318">
        <ele>335.0</ele>
        <time>2011-07-01T03:06:49Z</time>
      </trkpt>
      <trkpt lat="31.812034" lon="35.019227">
        <ele>335.0</ele>
        <time>2011-07-01T03:06:54Z</time>
      </trkpt>
      <trkpt lat="31.81205" lon="35.019152">
        <ele>335.0</ele>
        <time>2011-07-01T03:06:57Z</time>
      </trkpt>
      <trkpt lat="31.812066" lon="35.019066">
        <ele>335.0</ele>
        <time>2011-07-01T03:07:03Z</time>
      </trkpt>
      <trkpt lat="31.812088" lon="35.018991">
        <ele>336.0</ele>
        <time>2011-07-01T03:07:07Z</time>
      </trkpt>
      <trkpt lat="31.812099" lon="35.018905">
        <ele>336.0</ele>
        <time>2011-07-01T03:07:12Z</time>
      </trkpt>
      <trkpt lat="31.81212" lon="35.018824">
        <ele>336.0</ele>
        <time>2011-07-01T03:07:16Z</time>
      </trkpt>
      <trkpt lat="31.812243" lon="35.018722">
        <ele>337.0</ele>
        <time>2011-07-01T03:07:26Z</time>
      </trkpt>
      <trkpt lat="31.812302" lon="35.018685">
        <ele>338.0</ele>
        <time>2011-07-01T03:07:29Z</time>
      </trkpt>
      <trkpt lat="31.812453" lon="35.018674">
        <ele>340.0</ele>
        <time>2011-07-01T03:07:38Z</time>
      </trkpt>
      <trkpt lat="31.812501" lon="35.018722">
        <ele>340.0</ele>
        <time>2011-07-01T03:07:43Z</time>
      </trkpt>
      <trkpt lat="31.812549" lon="35.018776">
        <ele>343.0</ele>
        <time>2011-07-01T03:07:49Z</time>
      </trkpt>
      <trkpt lat="31.812614" lon="35.018814">
        <ele>344.0</ele>
        <time>2011-07-01T03:07:54Z</time>
      </trkpt>
      <trkpt lat="31.812678" lon="35.018846">
        <ele>345.0</ele>
        <time>2011-07-01T03:07:58Z</time>
      </trkpt>
      <trkpt lat="31.812705" lon="35.018921">
        <ele>346.0</ele>
        <time>2011-07-01T03:08:04Z</time>
      </trkpt>
      <trkpt lat="31.812769" lon="35.018958">
        <ele>349.0</ele>
        <time>2011-07-01T03:08:09Z</time>
      </trkpt>
      <trkpt lat="31.812769" lon="35.018958">
        <time>2011-07-01T03:08:20Z</time>
      </trkpt>
    </trkseg>
    <trkseg>
      <trkpt lat="31.812769" lon="35.018958">
        <time>2011-07-01T03:08:23Z</time>
      </trkpt>
      <trkpt lat="31.813037" lon="35.019039">
        <ele>356.0</ele>
        <time>2011-07-01T03:08:28Z</time>
      </trkpt>
      <trkpt lat="31.813102" lon="35.019028">
        <ele>356.0</ele>
        <time>2011-07-01T03:08:34Z</time>
      </trkpt>
      <trkpt lat="31.813102" lon="35.019028">
        <time>2011-07-01T03:08:45Z</time>
      </trkpt>
    </trkseg>
    <trkseg>
      <trkpt lat="31.813102" lon="35.019028">
        <time>2011-07-01T03:08:50Z</time>
      </trkpt>
      <trkpt lat="31.813429" lon="35.018878">
        <ele>355.0</ele>
        <time>2011-07-01T03:08:52Z</time>
      </trkpt>
      <trkpt lat="31.813509" lon="35.018878">
        <ele>355.0</ele>
        <time>2011-07-01T03:08:56Z</time>
      </trkpt>
      <trkpt lat="31.813568" lon="35.018905">
        <ele>356.0</ele>
        <time>2011-07-01T03:09:04Z</time>
      </trkpt>
      <trkpt lat="31.813633" lon="35.018921">
        <ele>357.0</ele>
        <time>2011-07-01T03:09:10Z</time>
      </trkpt>
      <trkpt lat="31.813719" lon="35.018867">
        <ele>358.0</ele>
        <time>2011-07-01T03:09:14Z</time>
      </trkpt>
      <trkpt lat="31.813788" lon="35.018883">
        <ele>360.0</ele>
        <time>2011-07-01T03:09:19Z</time>
      </trkpt>
      <trkpt lat="31.813858" lon="35.018851">
        <ele>360.0</ele>
        <time>2011-07-01T03:09:25Z</time>
      </trkpt>
      <trkpt lat="31.813923" lon="35.018846">
        <ele>361.0</ele>
        <time>2011-07-01T03:09:30Z</time>
      </trkpt>
      <trkpt lat="31.813992" lon="35.01884">
        <ele>362.0</ele>
        <time>2011-07-01T03:09:34Z</time>
      </trkpt>
      <trkpt lat="31.814057" lon="35.018878">
        <ele>364.0</ele>
        <time>2011-07-01T03:09:40Z</time>
      </trkpt>
      <trkpt lat="31.814137" lon="35.018878">
        <ele>363.0</ele>
        <time>2011-07-01T03:09:44Z</time>
      </trkpt>
      <trkpt lat="31.814207" lon="35.018862">
        <ele>363.0</ele>
        <time>2011-07-01T03:09:48Z</time>
      </trkpt>
      <trkpt lat="31.814368" lon="35.018867">
        <ele>365.0</ele>
        <time>2011-07-01T03:10:00Z</time>
      </trkpt>
      <trkpt lat="31.814432" lon="35.018857">
        <ele>365.0</ele>
        <time>2011-07-01T03:10:07Z</time>
      </trkpt>
      <trkpt lat="31.814411" lon="35.018781">
        <ele>367.0</ele>
        <time>2011-07-01T03:10:11Z</time>
      </trkpt>
      <trkpt lat="31.814341" lon="35.018781">
        <ele>364.0</ele>
        <time>2011-07-01T03:10:19Z</time>
      </trkpt>
      <trkpt lat="31.814191" lon="35.018776">
        <ele>365.0</ele>
        <time>2011-07-01T03:10:29Z</time>
      </trkpt>
      <trkpt lat="31.814121" lon="35.018808">
        <ele>366.0</ele>
        <time>2011-07-01T03:10:34Z</time>
      </trkpt>
      <trkpt lat="31.814057" lon="35.018787">
        <ele>365.0</ele>
        <time>2011-07-01T03:10:40Z</time>
      </trkpt>
      <trkpt lat="31.813992" lon="35.018787">
        <ele>366.0</ele>
        <time>2011-07-01T03:10:45Z</time>
      </trkpt>
      <trkpt lat="31.814094" lon="35.018846">
        <ele>366.0</ele>
        <time>2011-07-01T03:10:56Z</time>
      </trkpt>
      <trkpt lat="31.814159" lon="35.018857">
        <ele>367.0</ele>
        <time>2011-07-01T03:11:01Z</time>
      </trkpt>
      <trkpt lat="31.814223" lon="35.018883">
        <ele>368.0</ele>
        <time>2011-07-01T03:11:05Z</time>
      </trkpt>
      <trkpt lat="31.814298" lon="35.018857">
        <ele>366.0</ele>
        <time>2011-07-01T03:11:09Z</time>
      </trkpt>
      <trkpt lat="31.814368" lon="35.018857">
        <ele>364.0</ele>
        <time>2011-07-01T03:11:15Z</time>
      </trkpt>
      <trkpt lat="31.814502" lon="35.018851">
        <ele>361.0</ele>
        <time>2011-07-01T03:11:23Z</time>
      </trkpt>
      <trkpt lat="31.814631" lon="35.018857">
        <ele>363.0</ele>
        <time>2011-07-01T03:11:32Z</time>
      </trkpt>
      <trkpt lat="31.814695" lon="35.018889">
        <ele>365.0</ele>
        <time>2011-07-01T03:11:38Z</time>
      </trkpt>
      <trkpt lat="31.814765" lon="35.018905">
        <ele>363.0</ele>
        <time>2011-07-01T03:11:43Z</time>
      </trkpt>
      <trkpt lat="31.814765" lon="35.018905">
        <time>2011-07-01T03:11:54Z</time>
      </trkpt>
    </trkseg>
    <trkseg>
      <trkpt lat="31.814765" lon="35.018905">
        <time>2011-07-01T03:12:00Z</time>
      </trkpt>
      <trkpt lat="31.814904" lon="35.018857">
        <ele>361.0</ele>
        <time>2011-07-01T03:12:04Z</time>
      </trkpt>
      <trkpt lat="31.814974" lon="35.01883">
        <ele>361.0</ele>
        <time>2011-07-01T03:12:07Z</time>
      </trkpt>
      <trkpt lat="31.815113" lon="35.018776">
        <ele>363.0</ele>
        <time>2011-07-01T03:12:14Z</time>
      </trkpt>
      <trkpt lat="31.815194" lon="35.018749">
        <ele>363.0</ele>
        <time>2011-07-01T03:12:18Z</time>
      </trkpt>
      <trkpt lat="31.815258" lon="35.018717">
        <ele>366.0</ele>
        <time>2011-07-01T03:12:23Z</time>
      </trkpt>
      <trkpt lat="31.815307" lon="35.018545">
        <ele>368.0</ele>
        <time>2011-07-01T03:12:29Z</time>
      </trkpt>
      <trkpt lat="31.815333" lon="35.018449">
        <ele>369.0</ele>
        <time>2011-07-01T03:12:33Z</time>
      </trkpt>
      <trkpt lat="31.815371" lon="35.018384">
        <ele>367.0</ele>
        <time>2011-07-01T03:12:37Z</time>
      </trkpt>
      <trkpt lat="31.8155" lon="35.018272">
        <ele>368.0</ele>
        <time>2011-07-01T03:12:45Z</time>
      </trkpt>
      <trkpt lat="31.815543" lon="35.018213">
        <ele>369.0</ele>
        <time>2011-07-01T03:12:48Z</time>
      </trkpt>
      <trkpt lat="31.8155" lon="35.018143">
        <ele>368.0</ele>
        <time>2011-07-01T03:12:54Z</time>
      </trkpt>
      <trkpt lat="31.815478" lon="35.018063">
        <ele>369.0</ele>
        <time>2011-07-01T03:12:58Z</time>
      </trkpt>
      <trkpt lat="31.815457" lon="35.017993">
        <ele>370.0</ele>
        <time>2011-07-01T03:13:02Z</time>
      </trkpt>
      <trkpt lat="31.815387" lon="35.017864">
        <ele>371.0</ele>
        <time>2011-07-01T03:13:10Z</time>
      </trkpt>
      <trkpt lat="31.815355" lon="35.017789">
        <ele>373.0</ele>
        <time>2011-07-01T03:13:14Z</time>
      </trkpt>
      <trkpt lat="31.815307" lon="35.017714">
        <ele>373.0</ele>
        <time>2011-07-01T03:13:17Z</time>
      </trkpt>
      <trkpt lat="31.815242" lon="35.017585">
        <ele>373.0</ele>
        <time>2011-07-01T03:13:24Z</time>
      </trkpt>
      <trkpt lat="31.81514" lon="35.017371">
        <ele>370.0</ele>
        <time>2011-07-01T03:13:34Z</time>
      </trkpt>
      <trkpt lat="31.815103" lon="35.017306">
        <ele>372.0</ele>
        <time>2011-07-01T03:13:37Z</time>
      </trkpt>
      <trkpt lat="31.815071" lon="35.01707">
        <ele>373.0</ele>
        <time>2011-07-01T03:13:46Z</time>
      </trkpt>
      <trkpt lat="31.815065" lon="35.016984">
        <ele>372.0</ele>
        <time>2011-07-01T03:13:49Z</time>
      </trkpt>
      <trkpt lat="31.815076" lon="35.016904">
        <ele>373.0</ele>
        <time>2011-07-01T03:13:52Z</time>
      </trkpt>
      <trkpt lat="31.815076" lon="35.016818">
        <ele>374.0</ele>
        <time>2011-07-01T03:13:55Z</time>
      </trkpt>
      <trkpt lat="31.815087" lon="35.016662">
        <ele>373.0</ele>
        <time>2011-07-01T03:14:01Z</time>
      </trkpt>
      <trkpt lat="31.815162" lon="35.016233">
        <ele>374.0</ele>
        <time>2011-07-01T03:14:14Z</time>
      </trkpt>
      <trkpt lat="31.815189" lon="35.016035">
        <ele>374.0</ele>
        <time>2011-07-01T03:14:20Z</time>
      </trkpt>
      <trkpt lat="31.815172" lon="35.015874">
        <ele>372.0</ele>
        <time>2011-07-01T03:14:26Z</time>
      </trkpt>
      <trkpt lat="31.815189" lon="35.015793">
        <ele>370.0</ele>
        <time>2011-07-01T03:14:28Z</time>
      </trkpt>
      <trkpt lat="31.815199" lon="35.015633">
        <ele>372.0</ele>
        <time>2011-07-01T03:14:34Z</time>
      </trkpt>
      <trkpt lat="31.815215" lon="35.015547">
        <ele>371.0</ele>
        <time>2011-07-01T03:14:36Z</time>
      </trkpt>
      <trkpt lat="31.815231" lon="35.015461">
        <ele>371.0</ele>
        <time>2011-07-01T03:14:40Z</time>
      </trkpt>
      <trkpt lat="31.815274" lon="35.015289">
        <ele>369.0</ele>
        <time>2011-07-01T03:14:44Z</time>
      </trkpt>
      <trkpt lat="31.815317" lon="35.015139">
        <ele>370.0</ele>
        <time>2011-07-01T03:14:49Z</time>
      </trkpt>
      <trkpt lat="31.815323" lon="35.015059">
        <ele>370.0</ele>
        <time>2011-07-01T03:14:52Z</time>
      </trkpt>
      <trkpt lat="31.815333" lon="35.014978">
        <ele>370.0</ele>
        <time>2011-07-01T03:14:54Z</time>
      </trkpt>
      <trkpt lat="31.815371" lon="35.014812">
        <ele>368.0</ele>
        <time>2011-07-01T03:15:01Z</time>
      </trkpt>
      <trkpt lat="31.815494" lon="35.01457">
        <ele>370.0</ele>
        <time>2011-07-01T03:15:09Z</time>
      </trkpt>
      <trkpt lat="31.815548" lon="35.014479">
        <ele>370.0</ele>
        <time>2011-07-01T03:15:12Z</time>
      </trkpt>
      <trkpt lat="31.815634" lon="35.014302">
        <ele>370.0</ele>
        <time>2011-07-01T03:15:17Z</time>
      </trkpt>
      <trkpt lat="31.815655" lon="35.014136">
        <ele>371.0</ele>
        <time>2011-07-01T03:15:22Z</time>
      </trkpt>
      <trkpt lat="31.815704" lon="35.013884">
        <ele>374.0</ele>
        <time>2011-07-01T03:15:29Z</time>
      </trkpt>
      <trkpt lat="31.815746" lon="35.013739">
        <ele>372.0</ele>
        <time>2011-07-01T03:15:33Z</time>
      </trkpt>
      <trkpt lat="31.815763" lon="35.013653">
        <ele>372.0</ele>
        <time>2011-07-01T03:15:35Z</time>
      </trkpt>
      <trkpt lat="31.815763" lon="35.013653">
        <time>2011-07-01T03:15:46Z</time>
      </trkpt>
    </trkseg>
    <trkseg>
      <trkpt lat="31.815763" lon="35.013653">
        <time>2011-07-01T03:15:48Z</time>
      </trkpt>
      <trkpt lat="31.815902" lon="35.013374">
        <ele>372.0</ele>
        <time>2011-07-01T03:15:54Z</time>
      </trkpt>
      <trkpt lat="31.816127" lon="35.013149">
        <ele>375.0</ele>
        <time>2011-07-01T03:16:04Z</time>
      </trkpt>
      <trkpt lat="31.816138" lon="35.013068">
        <ele>375.0</ele>
        <time>2011-07-01T03:16:06Z</time>
      </trkpt>
      <trkpt lat="31.816192" lon="35.012886">
        <ele>375.0</ele>
        <time>2011-07-01T03:16:12Z</time>
      </trkpt>
      <trkpt lat="31.816218" lon="35.012779">
        <ele>375.0</ele>
        <time>2011-07-01T03:16:16Z</time>
      </trkpt>
      <trkpt lat="31.816192" lon="35.012677">
        <ele>373.0</ele>
        <time>2011-07-01T03:16:19Z</time>
      </trkpt>
      <trkpt lat="31.816213" lon="35.012516">
        <ele>372.0</ele>
        <time>2011-07-01T03:16:24Z</time>
      </trkpt>
      <trkpt lat="31.816202" lon="35.01243">
        <ele>371.0</ele>
        <time>2011-07-01T03:16:27Z</time>
      </trkpt>
      <trkpt lat="31.816218" lon="35.012237">
        <ele>370.0</ele>
        <time>2011-07-01T03:16:32Z</time>
      </trkpt>
      <trkpt lat="31.816229" lon="35.01214">
        <ele>368.0</ele>
        <time>2011-07-01T03:16:35Z</time>
      </trkpt>
      <trkpt lat="31.816251" lon="35.012044">
        <ele>367.0</ele>
        <time>2011-07-01T03:16:38Z</time>
      </trkpt>
      <trkpt lat="31.816267" lon="35.011851">
        <ele>366.0</ele>
        <time>2011-07-01T03:16:43Z</time>
      </trkpt>
      <trkpt lat="31.816304" lon="35.011759">
        <ele>366.0</ele>
        <time>2011-07-01T03:16:45Z</time>
      </trkpt>
      <trkpt lat="31.816304" lon="35.011759">
        <time>2011-07-01T03:16:56Z</time>
      </trkpt>
    </trkseg>
    <trkseg>
      <trkpt lat="31.816304" lon="35.011759">
        <time>2011-07-01T03:16:59Z</time>
      </trkpt>
      <trkpt lat="31.816615" lon="35.011314">
        <ele>367.0</ele>
        <time>2011-07-01T03:17:03Z</time>
      </trkpt>
      <trkpt lat="31.816674" lon="35.011164">
        <ele>366.0</ele>
        <time>2011-07-01T03:17:07Z</time>
      </trkpt>
      <trkpt lat="31.816691" lon="35.011062">
        <ele>367.0</ele>
        <time>2011-07-01T03:17:10Z</time>
      </trkpt>
      <trkpt lat="31.816717" lon="35.010896">
        <ele>366.0</ele>
        <time>2011-07-01T03:17:14Z</time>
      </trkpt>
      <trkpt lat="31.816776" lon="35.010719">
        <ele>364.0</ele>
        <time>2011-07-01T03:17:19Z</time>
      </trkpt>
      <trkpt lat="31.816792" lon="35.010558">
        <ele>363.0</ele>
        <time>2011-07-01T03:17:23Z</time>
      </trkpt>
      <trkpt lat="31.816787" lon="35.010402">
        <ele>362.0</ele>
        <time>2011-07-01T03:17:27Z</time>
      </trkpt>
      <trkpt lat="31.816787" lon="35.010322">
        <ele>363.0</ele>
        <time>2011-07-01T03:17:29Z</time>
      </trkpt>
      <trkpt lat="31.816776" lon="35.010123">
        <ele>361.0</ele>
        <time>2011-07-01T03:17:34Z</time>
      </trkpt>
      <trkpt lat="31.816776" lon="35.010032">
        <ele>360.0</ele>
        <time>2011-07-01T03:17:36Z</time>
      </trkpt>
      <trkpt lat="31.816766" lon="35.009496">
        <ele>359.0</ele>
        <time>2011-07-01T03:17:43Z</time>
      </trkpt>
      <trkpt lat="31.816771" lon="35.009099">
        <ele>359.0</ele>
        <time>2011-07-01T03:17:47Z</time>
      </trkpt>
      <trkpt lat="31.816798" lon="35.009007">
        <ele>359.0</ele>
        <time>2011-07-01T03:17:48Z</time>
      </trkpt>
      <trkpt lat="31.816862" lon="35.008487">
        <ele>358.0</ele>
        <time>2011-07-01T03:17:54Z</time>
      </trkpt>
      <trkpt lat="31.816948" lon="35.008235">
        <ele>356.0</ele>
        <time>2011-07-01T03:17:58Z</time>
      </trkpt>
      <trkpt lat="31.817018" lon="35.008085">
        <ele>357.0</ele>
        <time>2011-07-01T03:18:02Z</time>
      </trkpt>
      <trkpt lat="31.817141" lon="35.007859">
        <ele>360.0</ele>
        <time>2011-07-01T03:18:11Z</time>
      </trkpt>
      <trkpt lat="31.817179" lon="35.00779">
        <ele>361.0</ele>
        <time>2011-07-01T03:18:14Z</time>
      </trkpt>
      <trkpt lat="31.817232" lon="35.007699">
        <ele>361.0</ele>
        <time>2011-07-01T03:18:17Z</time>
      </trkpt>
      <trkpt lat="31.81727" lon="35.007623">
        <ele>362.0</ele>
        <time>2011-07-01T03:18:20Z</time>
      </trkpt>
      <trkpt lat="31.817366" lon="35.007484">
        <ele>361.0</ele>
        <time>2011-07-01T03:18:27Z</time>
      </trkpt>
      <trkpt lat="31.817415" lon="35.007409">
        <ele>360.0</ele>
        <time>2011-07-01T03:18:30Z</time>
      </trkpt>
      <trkpt lat="31.817533" lon="35.007269">
        <ele>362.0</ele>
        <time>2011-07-01T03:18:35Z</time>
      </trkpt>
      <trkpt lat="31.817576" lon="35.007194">
        <ele>362.0</ele>
        <time>2011-07-01T03:18:37Z</time>
      </trkpt>
      <trkpt lat="31.817683" lon="35.007103">
        <ele>361.0</ele>
        <time>2011-07-01T03:18:42Z</time>
      </trkpt>
      <trkpt lat="31.817796" lon="35.006985">
        <ele>362.0</ele>
        <time>2011-07-01T03:18:47Z</time>
      </trkpt>
      <trkpt lat="31.817855" lon="35.00691">
        <ele>363.0</ele>
        <time>2011-07-01T03:18:50Z</time>
      </trkpt>
      <trkpt lat="31.817924" lon="35.006835">
        <ele>363.0</ele>
        <time>2011-07-01T03:18:53Z</time>
      </trkpt>
      <trkpt lat="31.817983" lon="35.006765">
        <ele>363.0</ele>
        <time>2011-07-01T03:18:56Z</time>
      </trkpt>
      <trkpt lat="31.818053" lon="35.006717">
        <ele>363.0</ele>
        <time>2011-07-01T03:19:00Z</time>
      </trkpt>
      <trkpt lat="31.818177" lon="35.006572">
        <ele>362.0</ele>
        <time>2011-07-01T03:19:06Z</time>
      </trkpt>
      <trkpt lat="31.818241" lon="35.006518">
        <ele>364.0</ele>
        <time>2011-07-01T03:19:09Z</time>
      </trkpt>
      <trkpt lat="31.8183" lon="35.006475">
        <ele>365.0</ele>
        <time>2011-07-01T03:19:12Z</time>
      </trkpt>
      <trkpt lat="31.818364" lon="35.006433">
        <ele>367.0</ele>
        <time>2011-07-01T03:19:19Z</time>
      </trkpt>
      <trkpt lat="31.818418" lon="35.00639">
        <ele>367.0</ele>
        <time>2011-07-01T03:19:23Z</time>
      </trkpt>
      <trkpt lat="31.818504" lon="35.006293">
        <ele>368.0</ele>
        <time>2011-07-01T03:19:26Z</time>
      </trkpt>
      <trkpt lat="31.818584" lon="35.006191">
        <ele>367.0</ele>
        <time>2011-07-01T03:19:29Z</time>
      </trkpt>
      <trkpt lat="31.81867" lon="35.006046">
        <ele>366.0</ele>
        <time>2011-07-01T03:19:35Z</time>
      </trkpt>
      <trkpt lat="31.81874" lon="35.005966">
        <ele>367.0</ele>
        <time>2011-07-01T03:19:38Z</time>
      </trkpt>
      <trkpt lat="31.81881" lon="35.0058">
        <ele>368.0</ele>
        <time>2011-07-01T03:19:43Z</time>
      </trkpt>
      <trkpt lat="31.818842" lon="35.005714">
        <ele>367.0</ele>
        <time>2011-07-01T03:19:46Z</time>
      </trkpt>
      <trkpt lat="31.818836" lon="35.005612">
        <ele>365.0</ele>
        <time>2011-07-01T03:19:49Z</time>
      </trkpt>
      <trkpt lat="31.818826" lon="35.005408">
        <ele>362.0</ele>
        <time>2011-07-01T03:19:55Z</time>
      </trkpt>
      <trkpt lat="31.818831" lon="35.005306">
        <ele>362.0</ele>
        <time>2011-07-01T03:19:58Z</time>
      </trkpt>
      <trkpt lat="31.818826" lon="35.005075">
        <ele>360.0</ele>
        <time>2011-07-01T03:20:03Z</time>
      </trkpt>
      <trkpt lat="31.81889" lon="35.004812">
        <ele>359.0</ele>
        <time>2011-07-01T03:20:07Z</time>
      </trkpt>
      <trkpt lat="31.818949" lon="35.004528">
        <ele>357.0</ele>
        <time>2011-07-01T03:20:10Z</time>
      </trkpt>
      <trkpt lat="31.819072" lon="35.003922">
        <ele>354.0</ele>
        <time>2011-07-01T03:20:15Z</time>
      </trkpt>
      <trkpt lat="31.819105" lon="35.003471">
        <ele>351.0</ele>
        <time>2011-07-01T03:20:19Z</time>
      </trkpt>
      <trkpt lat="31.819169" lon="35.003069">
        <ele>350.0</ele>
        <time>2011-07-01T03:20:23Z</time>
      </trkpt>
      <trkpt lat="31.819196" lon="35.00272">
        <ele>347.0</ele>
        <time>2011-07-01T03:20:27Z</time>
      </trkpt>
      <trkpt lat="31.819255" lon="35.002398">
        <ele>344.0</ele>
        <time>2011-07-01T03:20:31Z</time>
      </trkpt>
      <trkpt lat="31.819292" lon="35.002055">
        <ele>339.0</ele>
        <time>2011-07-01T03:20:35Z</time>
      </trkpt>
      <trkpt lat="31.819324" lon="35.001739">
        <ele>337.0</ele>
        <time>2011-07-01T03:20:39Z</time>
      </trkpt>
      <trkpt lat="31.819373" lon="35.001379">
        <ele>335.0</ele>
        <time>2011-07-01T03:20:43Z</time>
      </trkpt>
      <trkpt lat="31.8194" lon="35.001063">
        <ele>332.0</ele>
        <time>2011-07-01T03:20:47Z</time>
      </trkpt>
      <trkpt lat="31.819426" lon="35.000854">
        <ele>330.0</ele>
        <time>2011-07-01T03:20:50Z</time>
      </trkpt>
      <trkpt lat="31.819464" lon="35.000628">
        <ele>329.0</ele>
        <time>2011-07-01T03:20:54Z</time>
      </trkpt>
      <trkpt lat="31.819448" lon="35.000392">
        <ele>328.0</ele>
        <time>2011-07-01T03:20:58Z</time>
      </trkpt>
      <trkpt lat="31.819384" lon="35.000172">
        <ele>326.0</ele>
        <time>2011-07-01T03:21:02Z</time>
      </trkpt>
      <trkpt lat="31.819282" lon="34.99984">
        <ele>322.0</ele>
        <time>2011-07-01T03:21:07Z</time>
      </trkpt>
      <trkpt lat="31.819228" lon="34.999566">
        <ele>318.0</ele>
        <time>2011-07-01T03:21:11Z</time>
      </trkpt>
      <trkpt lat="31.819421" lon="34.999115">
        <ele>311.0</ele>
        <time>2011-07-01T03:21:18Z</time>
      </trkpt>
      <trkpt lat="31.819534" lon="34.998933">
        <ele>308.0</ele>
        <time>2011-07-01T03:21:22Z</time>
      </trkpt>
      <trkpt lat="31.819571" lon="34.998853">
        <ele>307.0</ele>
        <time>2011-07-01T03:21:25Z</time>
      </trkpt>
      <trkpt lat="31.819609" lon="34.998778">
        <ele>306.0</ele>
        <time>2011-07-01T03:21:28Z</time>
      </trkpt>
      <trkpt lat="31.819609" lon="34.998778">
        <time>2011-07-01T03:21:40Z</time>
      </trkpt>
    </trkseg>
    <trkseg>
      <trkpt lat="31.819609" lon="34.998778">
        <time>2011-07-01T03:24:19Z</time>
      </trkpt>
      <trkpt lat="31.819748" lon="34.998643">
        <ele>300.0</ele>
        <time>2011-07-01T03:24:26Z</time>
      </trkpt>
      <trkpt lat="31.819877" lon="34.99867">
        <ele>300.0</ele>
        <time>2011-07-01T03:24:30Z</time>
      </trkpt>
      <trkpt lat="31.819995" lon="34.998767">
        <ele>297.0</ele>
        <time>2011-07-01T03:24:34Z</time>
      </trkpt>
      <trkpt lat="31.820092" lon="34.998879">
        <ele>296.0</ele>
        <time>2011-07-01T03:24:38Z</time>
      </trkpt>
      <trkpt lat="31.820156" lon="34.998944">
        <ele>296.0</ele>
        <time>2011-07-01T03:24:41Z</time>
      </trkpt>
      <trkpt lat="31.82021" lon="34.998987">
        <ele>296.0</ele>
        <time>2011-07-01T03:24:43Z</time>
      </trkpt>
      <trkpt lat="31.820274" lon="34.999046">
        <ele>295.0</ele>
        <time>2011-07-01T03:24:47Z</time>
      </trkpt>
      <trkpt lat="31.820317" lon="34.999126">
        <ele>296.0</ele>
        <time>2011-07-01T03:24:52Z</time>
      </trkpt>
      <trkpt lat="31.820403" lon="34.999266">
        <ele>294.0</ele>
        <time>2011-07-01T03:25:00Z</time>
      </trkpt>
      <trkpt lat="31.820478" lon="34.999416">
        <ele>296.0</ele>
        <time>2011-07-01T03:25:07Z</time>
      </trkpt>
      <trkpt lat="31.820537" lon="34.99947">
        <ele>298.0</ele>
        <time>2011-07-01T03:25:12Z</time>
      </trkpt>
      <trkpt lat="31.82058" lon="34.999529">
        <ele>299.0</ele>
        <time>2011-07-01T03:25:17Z</time>
      </trkpt>
      <trkpt lat="31.820644" lon="34.999523">
        <ele>298.0</ele>
        <time>2011-07-01T03:25:21Z</time>
      </trkpt>
      <trkpt lat="31.820644" lon="34.999523">
        <time>2011-07-01T03:25:33Z</time>
      </trkpt>
    </trkseg>
    <trkseg>
      <trkpt lat="31.820644" lon="34.999523">
        <time>2011-07-01T03:25:37Z</time>
      </trkpt>
      <trkpt lat="31.820837" lon="34.999384">
        <ele>298.0</ele>
        <time>2011-07-01T03:25:39Z</time>
      </trkpt>
      <trkpt lat="31.82102" lon="34.999314">
        <ele>298.0</ele>
        <time>2011-07-01T03:25:43Z</time>
      </trkpt>
      <trkpt lat="31.821272" lon="34.999191">
        <ele>297.0</ele>
        <time>2011-07-01T03:25:47Z</time>
      </trkpt>
      <trkpt lat="31.821449" lon="34.999051">
        <ele>296.0</ele>
        <time>2011-07-01T03:25:50Z</time>
      </trkpt>
      <trkpt lat="31.82162" lon="34.998858">
        <ele>295.0</ele>
        <time>2011-07-01T03:25:54Z</time>
      </trkpt>
      <trkpt lat="31.821846" lon="34.998515">
        <ele>290.0</ele>
        <time>2011-07-01T03:25:59Z</time>
      </trkpt>
      <trkpt lat="31.821958" lon="34.998316">
        <ele>288.0</ele>
        <time>2011-07-01T03:26:02Z</time>
      </trkpt>
      <trkpt lat="31.822098" lon="34.998166">
        <ele>288.0</ele>
        <time>2011-07-01T03:26:06Z</time>
      </trkpt>
      <trkpt lat="31.822318" lon="34.998005">
        <ele>286.0</ele>
        <time>2011-07-01T03:26:11Z</time>
      </trkpt>
      <trkpt lat="31.822468" lon="34.997855">
        <ele>284.0</ele>
        <time>2011-07-01T03:26:15Z</time>
      </trkpt>
      <trkpt lat="31.822511" lon="34.997796">
        <ele>283.0</ele>
        <time>2011-07-01T03:26:17Z</time>
      </trkpt>
      <trkpt lat="31.822575" lon="34.997737">
        <ele>283.0</ele>
        <time>2011-07-01T03:26:20Z</time>
      </trkpt>
      <trkpt lat="31.822709" lon="34.997662">
        <ele>283.0</ele>
        <time>2011-07-01T03:26:27Z</time>
      </trkpt>
      <trkpt lat="31.822833" lon="34.997603">
        <ele>283.0</ele>
        <time>2011-07-01T03:26:31Z</time>
      </trkpt>
      <trkpt lat="31.822908" lon="34.997597">
        <ele>282.0</ele>
        <time>2011-07-01T03:26:33Z</time>
      </trkpt>
      <trkpt lat="31.823085" lon="34.997587">
        <ele>279.0</ele>
        <time>2011-07-01T03:26:39Z</time>
      </trkpt>
      <trkpt lat="31.823149" lon="34.997565">
        <ele>276.0</ele>
        <time>2011-07-01T03:26:41Z</time>
      </trkpt>
      <trkpt lat="31.823219" lon="34.997554">
        <ele>273.0</ele>
        <time>2011-07-01T03:26:44Z</time>
      </trkpt>
      <trkpt lat="31.823219" lon="34.997554">
        <time>2011-07-01T03:26:56Z</time>
      </trkpt>
    </trkseg>
    <trkseg>
      <trkpt lat="31.823219" lon="34.997554">
        <time>2011-07-01T03:29:22Z</time>
      </trkpt>
      <trkpt lat="31.823326" lon="34.997662">
        <ele>263.0</ele>
        <time>2011-07-01T03:29:28Z</time>
      </trkpt>
      <trkpt lat="31.823369" lon="34.997721">
        <ele>261.0</ele>
        <time>2011-07-01T03:29:33Z</time>
      </trkpt>
      <trkpt lat="31.823407" lon="34.99779">
        <ele>261.0</ele>
        <time>2011-07-01T03:29:37Z</time>
      </trkpt>
      <trkpt lat="31.823503" lon="34.997935">
        <ele>261.0</ele>
        <time>2011-07-01T03:29:45Z</time>
      </trkpt>
      <trkpt lat="31.82353" lon="34.998016">
        <ele>261.0</ele>
        <time>2011-07-01T03:29:48Z</time>
      </trkpt>
      <trkpt lat="31.823616" lon="34.998198">
        <ele>259.0</ele>
        <time>2011-07-01T03:29:54Z</time>
      </trkpt>
      <trkpt lat="31.823595" lon="34.998375">
        <ele>259.0</ele>
        <time>2011-07-01T03:30:00Z</time>
      </trkpt>
      <trkpt lat="31.823536" lon="34.998541">
        <ele>260.0</ele>
        <time>2011-07-01T03:30:06Z</time>
      </trkpt>
      <trkpt lat="31.823519" lon="34.998617">
        <ele>259.0</ele>
        <time>2011-07-01T03:30:09Z</time>
      </trkpt>
      <trkpt lat="31.823503" lon="34.998719">
        <ele>257.0</ele>
        <time>2011-07-01T03:30:12Z</time>
      </trkpt>
      <trkpt lat="31.823536" lon="34.998896">
        <ele>258.0</ele>
        <time>2011-07-01T03:30:18Z</time>
      </trkpt>
      <trkpt lat="31.8236" lon="34.998987">
        <ele>257.0</ele>
        <time>2011-07-01T03:30:21Z</time>
      </trkpt>
      <trkpt lat="31.823739" lon="34.999115">
        <ele>256.0</ele>
        <time>2011-07-01T03:30:25Z</time>
      </trkpt>
      <trkpt lat="31.823959" lon="34.9994">
        <ele>256.0</ele>
        <time>2011-07-01T03:30:30Z</time>
      </trkpt>
      <trkpt lat="31.824093" lon="34.999722">
        <ele>254.0</ele>
        <time>2011-07-01T03:30:34Z</time>
      </trkpt>
      <trkpt lat="31.824217" lon="35.000038">
        <ele>252.0</ele>
        <time>2011-07-01T03:30:38Z</time>
      </trkpt>
      <trkpt lat="31.824265" lon="35.000172">
        <ele>252.0</ele>
        <time>2011-07-01T03:30:40Z</time>
      </trkpt>
      <trkpt lat="31.824346" lon="35.000381">
        <ele>251.0</ele>
        <time>2011-07-01T03:30:44Z</time>
      </trkpt>
      <trkpt lat="31.824453" lon="35.000666">
        <ele>251.0</ele>
        <time>2011-07-01T03:30:50Z</time>
      </trkpt>
      <trkpt lat="31.82448" lon="35.000778">
        <ele>250.0</ele>
        <time>2011-07-01T03:30:53Z</time>
      </trkpt>
      <trkpt lat="31.82449" lon="35.000875">
        <ele>251.0</ele>
        <time>2011-07-01T03:30:56Z</time>
      </trkpt>
      <trkpt lat="31.824544" lon="35.000939">
        <ele>252.0</ele>
        <time>2011-07-01T03:31:00Z</time>
      </trkpt>
      <trkpt lat="31.824614" lon="35.001073">
        <ele>251.0</ele>
        <time>2011-07-01T03:31:06Z</time>
      </trkpt>
      <trkpt lat="31.824667" lon="35.001149">
        <ele>252.0</ele>
        <time>2011-07-01T03:31:10Z</time>
      </trkpt>
      <trkpt lat="31.824705" lon="35.001213">
        <ele>253.0</ele>
        <time>2011-07-01T03:31:13Z</time>
      </trkpt>
      <trkpt lat="31.824775" lon="35.001363">
        <ele>252.0</ele>
        <time>2011-07-01T03:31:20Z</time>
      </trkpt>
      <trkpt lat="31.824818" lon="35.001508">
        <ele>250.0</ele>
        <time>2011-07-01T03:31:26Z</time>
      </trkpt>
      <trkpt lat="31.824828" lon="35.001583">
        <ele>249.0</ele>
        <time>2011-07-01T03:31:29Z</time>
      </trkpt>
      <trkpt lat="31.82485" lon="35.001674">
        <ele>250.0</ele>
        <time>2011-07-01T03:31:33Z</time>
      </trkpt>
      <trkpt lat="31.824871" lon="35.001744">
        <ele>251.0</ele>
        <time>2011-07-01T03:31:36Z</time>
      </trkpt>
      <trkpt lat="31.824914" lon="35.00191">
        <ele>251.0</ele>
        <time>2011-07-01T03:31:42Z</time>
      </trkpt>
      <trkpt lat="31.824946" lon="35.001996">
        <ele>250.0</ele>
        <time>2011-07-01T03:31:45Z</time>
      </trkpt>
      <trkpt lat="31.825048" lon="35.002227">
        <ele>246.0</ele>
        <time>2011-07-01T03:31:54Z</time>
      </trkpt>
      <trkpt lat="31.825059" lon="35.002318">
        <ele>246.0</ele>
        <time>2011-07-01T03:31:57Z</time>
      </trkpt>
      <trkpt lat="31.825081" lon="35.002398">
        <ele>245.0</ele>
        <time>2011-07-01T03:32:00Z</time>
      </trkpt>
      <trkpt lat="31.825102" lon="35.002479">
        <ele>247.0</ele>
        <time>2011-07-01T03:32:03Z</time>
      </trkpt>
      <trkpt lat="31.825113" lon="35.002645">
        <ele>246.0</ele>
        <time>2011-07-01T03:32:09Z</time>
      </trkpt>
      <trkpt lat="31.825123" lon="35.00272">
        <ele>246.0</ele>
        <time>2011-07-01T03:32:12Z</time>
      </trkpt>
      <trkpt lat="31.825134" lon="35.002806">
        <ele>246.0</ele>
        <time>2011-07-01T03:32:16Z</time>
      </trkpt>
      <trkpt lat="31.825134" lon="35.002806">
        <time>2011-07-01T03:32:27Z</time>
      </trkpt>
    </trkseg>
    <trkseg>
      <trkpt lat="31.825134" lon="35.002806">
        <time>2011-07-01T03:32:36Z</time>
      </trkpt>
      <trkpt lat="31.825022" lon="35.003428">
        <ele>245.0</ele>
        <time>2011-07-01T03:32:39Z</time>
      </trkpt>
      <trkpt lat="31.825016" lon="35.003514">
        <ele>245.0</ele>
        <time>2011-07-01T03:32:42Z</time>
      </trkpt>
      <trkpt lat="31.824989" lon="35.003611">
        <ele>246.0</ele>
        <time>2011-07-01T03:32:45Z</time>
      </trkpt>
      <trkpt lat="31.824989" lon="35.003611">
        <time>2011-07-01T03:32:56Z</time>
      </trkpt>
    </trkseg>
    <trkseg>
      <trkpt lat="31.824989" lon="35.003611">
        <time>2011-07-01T03:33:02Z</time>
      </trkpt>
      <trkpt lat="31.824898" lon="35.00426">
        <ele>252.0</ele>
        <time>2011-07-01T03:33:07Z</time>
      </trkpt>
      <trkpt lat="31.824861" lon="35.004421">
        <ele>257.0</ele>
        <time>2011-07-01T03:33:13Z</time>
      </trkpt>
      <trkpt lat="31.824834" lon="35.004802">
        <ele>257.0</ele>
        <time>2011-07-01T03:33:25Z</time>
      </trkpt>
      <trkpt lat="31.824828" lon="35.004888">
        <ele>257.0</ele>
        <time>2011-07-01T03:33:28Z</time>
      </trkpt>
      <trkpt lat="31.82478" lon="35.00499">
        <ele>256.0</ele>
        <time>2011-07-01T03:33:31Z</time>
      </trkpt>
      <trkpt lat="31.824737" lon="35.00507">
        <ele>257.0</ele>
        <time>2011-07-01T03:33:35Z</time>
      </trkpt>
      <trkpt lat="31.824667" lon="35.005209">
        <ele>259.0</ele>
        <time>2011-07-01T03:33:41Z</time>
      </trkpt>
      <trkpt lat="31.824614" lon="35.005274">
        <ele>260.0</ele>
        <time>2011-07-01T03:33:45Z</time>
      </trkpt>
      <trkpt lat="31.824555" lon="35.005338">
        <ele>261.0</ele>
        <time>2011-07-01T03:33:48Z</time>
      </trkpt>
      <trkpt lat="31.824501" lon="35.005408">
        <ele>261.0</ele>
        <time>2011-07-01T03:33:51Z</time>
      </trkpt>
      <trkpt lat="31.824453" lon="35.005472">
        <ele>261.0</ele>
        <time>2011-07-01T03:33:54Z</time>
      </trkpt>
      <trkpt lat="31.824346" lon="35.00559">
        <ele>258.0</ele>
        <time>2011-07-01T03:33:59Z</time>
      </trkpt>
      <trkpt lat="31.824287" lon="35.00566">
        <ele>258.0</ele>
        <time>2011-07-01T03:34:03Z</time>
      </trkpt>
      <trkpt lat="31.824233" lon="35.005714">
        <ele>258.0</ele>
        <time>2011-07-01T03:34:06Z</time>
      </trkpt>
      <trkpt lat="31.824131" lon="35.005805">
        <ele>259.0</ele>
        <time>2011-07-01T03:34:12Z</time>
      </trkpt>
      <trkpt lat="31.824083" lon="35.005869">
        <ele>260.0</ele>
        <time>2011-07-01T03:34:16Z</time>
      </trkpt>
      <trkpt lat="31.824034" lon="35.005923">
        <ele>262.0</ele>
        <time>2011-07-01T03:34:19Z</time>
      </trkpt>
      <trkpt lat="31.823986" lon="35.005971">
        <ele>262.0</ele>
        <time>2011-07-01T03:34:22Z</time>
      </trkpt>
      <trkpt lat="31.823906" lon="35.006062">
        <ele>262.0</ele>
        <time>2011-07-01T03:34:27Z</time>
      </trkpt>
      <trkpt lat="31.823815" lon="35.006223">
        <ele>261.0</ele>
        <time>2011-07-01T03:34:33Z</time>
      </trkpt>
      <trkpt lat="31.823766" lon="35.006277">
        <ele>261.0</ele>
        <time>2011-07-01T03:34:36Z</time>
      </trkpt>
      <trkpt lat="31.823745" lon="35.006347">
        <ele>256.0</ele>
        <time>2011-07-01T03:34:39Z</time>
      </trkpt>
      <trkpt lat="31.823702" lon="35.006443">
        <ele>256.0</ele>
        <time>2011-07-01T03:34:43Z</time>
      </trkpt>
      <trkpt lat="31.823664" lon="35.006518">
        <ele>254.0</ele>
        <time>2011-07-01T03:34:47Z</time>
      </trkpt>
      <trkpt lat="31.823611" lon="35.006567">
        <ele>248.0</ele>
        <time>2011-07-01T03:34:52Z</time>
      </trkpt>
      <trkpt lat="31.82353" lon="35.006717">
        <ele>250.0</ele>
        <time>2011-07-01T03:35:01Z</time>
      </trkpt>
      <trkpt lat="31.823493" lon="35.006792">
        <ele>252.0</ele>
        <time>2011-07-01T03:35:05Z</time>
      </trkpt>
      <trkpt lat="31.82345" lon="35.006883">
        <ele>252.0</ele>
        <time>2011-07-01T03:35:09Z</time>
      </trkpt>
      <trkpt lat="31.823412" lon="35.006964">
        <ele>253.0</ele>
        <time>2011-07-01T03:35:13Z</time>
      </trkpt>
      <trkpt lat="31.82331" lon="35.007087">
        <ele>256.0</ele>
        <time>2011-07-01T03:35:19Z</time>
      </trkpt>
      <trkpt lat="31.823257" lon="35.007146">
        <ele>258.0</ele>
        <time>2011-07-01T03:35:23Z</time>
      </trkpt>
      <trkpt lat="31.823192" lon="35.007296">
        <ele>260.0</ele>
        <time>2011-07-01T03:35:29Z</time>
      </trkpt>
      <trkpt lat="31.823149" lon="35.007371">
        <ele>261.0</ele>
        <time>2011-07-01T03:35:33Z</time>
      </trkpt>
      <trkpt lat="31.823096" lon="35.007441">
        <ele>261.0</ele>
        <time>2011-07-01T03:35:36Z</time>
      </trkpt>
      <trkpt lat="31.823053" lon="35.007538">
        <ele>262.0</ele>
        <time>2011-07-01T03:35:40Z</time>
      </trkpt>
      <trkpt lat="31.823021" lon="35.007607">
        <ele>262.0</ele>
        <time>2011-07-01T03:35:43Z</time>
      </trkpt>
      <trkpt lat="31.822951" lon="35.007758">
        <ele>264.0</ele>
        <time>2011-07-01T03:35:49Z</time>
      </trkpt>
      <trkpt lat="31.822919" lon="35.007827">
        <ele>266.0</ele>
        <time>2011-07-01T03:35:52Z</time>
      </trkpt>
      <trkpt lat="31.822892" lon="35.007902">
        <ele>266.0</ele>
        <time>2011-07-01T03:35:55Z</time>
      </trkpt>
      <trkpt lat="31.822844" lon="35.008063">
        <ele>269.0</ele>
        <time>2011-07-01T03:36:01Z</time>
      </trkpt>
      <trkpt lat="31.822822" lon="35.008133">
        <ele>271.0</ele>
        <time>2011-07-01T03:36:04Z</time>
      </trkpt>
      <trkpt lat="31.822801" lon="35.008208">
        <ele>272.0</ele>
        <time>2011-07-01T03:36:07Z</time>
      </trkpt>
      <trkpt lat="31.822747" lon="35.008364">
        <ele>271.0</ele>
        <time>2011-07-01T03:36:13Z</time>
      </trkpt>
      <trkpt lat="31.822709" lon="35.008455">
        <ele>271.0</ele>
        <time>2011-07-01T03:36:16Z</time>
      </trkpt>
      <trkpt lat="31.822629" lon="35.008605">
        <ele>269.0</ele>
        <time>2011-07-01T03:36:21Z</time>
      </trkpt>
      <trkpt lat="31.822591" lon="35.008691">
        <ele>270.0</ele>
        <time>2011-07-01T03:36:24Z</time>
      </trkpt>
      <trkpt lat="31.822543" lon="35.008788">
        <ele>269.0</ele>
        <time>2011-07-01T03:36:27Z</time>
      </trkpt>
      <trkpt lat="31.822479" lon="35.008922">
        <ele>271.0</ele>
        <time>2011-07-01T03:36:33Z</time>
      </trkpt>
      <trkpt lat="31.822436" lon="35.008981">
        <ele>272.0</ele>
        <time>2011-07-01T03:36:36Z</time>
      </trkpt>
      <trkpt lat="31.822388" lon="35.00905">
        <ele>274.0</ele>
        <time>2011-07-01T03:36:40Z</time>
      </trkpt>
      <trkpt lat="31.822334" lon="35.009104">
        <ele>275.0</ele>
        <time>2011-07-01T03:36:44Z</time>
      </trkpt>
      <trkpt lat="31.82228" lon="35.009152">
        <ele>276.0</ele>
        <time>2011-07-01T03:36:47Z</time>
      </trkpt>
      <trkpt lat="31.822157" lon="35.009243">
        <ele>275.0</ele>
        <time>2011-07-01T03:36:54Z</time>
      </trkpt>
      <trkpt lat="31.822082" lon="35.009276">
        <ele>276.0</ele>
        <time>2011-07-01T03:36:58Z</time>
      </trkpt>
      <trkpt lat="31.821942" lon="35.009345">
        <ele>278.0</ele>
        <time>2011-07-01T03:37:06Z</time>
      </trkpt>
      <trkpt lat="31.821878" lon="35.009404">
        <ele>279.0</ele>
        <time>2011-07-01T03:37:10Z</time>
      </trkpt>
      <trkpt lat="31.821738" lon="35.00949">
        <ele>280.0</ele>
        <time>2011-07-01T03:37:18Z</time>
      </trkpt>
      <trkpt lat="31.821631" lon="35.009598">
        <ele>279.0</ele>
        <time>2011-07-01T03:37:25Z</time>
      </trkpt>
      <trkpt lat="31.821572" lon="35.009667">
        <ele>279.0</ele>
        <time>2011-07-01T03:37:29Z</time>
      </trkpt>
      <trkpt lat="31.821545" lon="35.009753">
        <ele>281.0</ele>
        <time>2011-07-01T03:37:32Z</time>
      </trkpt>
      <trkpt lat="31.821535" lon="35.009834">
        <ele>282.0</ele>
        <time>2011-07-01T03:37:35Z</time>
      </trkpt>
      <trkpt lat="31.821519" lon="35.009925">
        <ele>284.0</ele>
        <time>2011-07-01T03:37:39Z</time>
      </trkpt>
      <trkpt lat="31.821508" lon="35.010011">
        <ele>284.0</ele>
        <time>2011-07-01T03:37:43Z</time>
      </trkpt>
      <trkpt lat="31.821513" lon="35.010198">
        <ele>285.0</ele>
        <time>2011-07-01T03:37:49Z</time>
      </trkpt>
      <trkpt lat="31.821502" lon="35.010295">
        <ele>284.0</ele>
        <time>2011-07-01T03:37:52Z</time>
      </trkpt>
      <trkpt lat="31.821513" lon="35.010375">
        <ele>285.0</ele>
        <time>2011-07-01T03:37:55Z</time>
      </trkpt>
      <trkpt lat="31.821545" lon="35.010526">
        <ele>287.0</ele>
        <time>2011-07-01T03:38:01Z</time>
      </trkpt>
      <trkpt lat="31.821578" lon="35.010601">
        <ele>287.0</ele>
        <time>2011-07-01T03:38:04Z</time>
      </trkpt>
      <trkpt lat="31.821615" lon="35.010681">
        <ele>286.0</ele>
        <time>2011-07-01T03:38:08Z</time>
      </trkpt>
      <trkpt lat="31.821647" lon="35.010746">
        <ele>286.0</ele>
        <time>2011-07-01T03:38:11Z</time>
      </trkpt>
      <trkpt lat="31.821728" lon="35.010928">
        <ele>286.0</ele>
        <time>2011-07-01T03:38:17Z</time>
      </trkpt>
      <trkpt lat="31.82176" lon="35.011094">
        <ele>285.0</ele>
        <time>2011-07-01T03:38:21Z</time>
      </trkpt>
      <trkpt lat="31.821792" lon="35.011244">
        <ele>284.0</ele>
        <time>2011-07-01T03:38:25Z</time>
      </trkpt>
      <trkpt lat="31.82183" lon="35.011411">
        <ele>283.0</ele>
        <time>2011-07-01T03:38:29Z</time>
      </trkpt>
      <trkpt lat="31.821846" lon="35.011507">
        <ele>282.0</ele>
        <time>2011-07-01T03:38:32Z</time>
      </trkpt>
      <trkpt lat="31.821883" lon="35.011679">
        <ele>284.0</ele>
        <time>2011-07-01T03:38:37Z</time>
      </trkpt>
      <trkpt lat="31.821926" lon="35.011775">
        <ele>284.0</ele>
        <time>2011-07-01T03:38:40Z</time>
      </trkpt>
      <trkpt lat="31.82198" lon="35.011953">
        <ele>285.0</ele>
        <time>2011-07-01T03:38:45Z</time>
      </trkpt>
      <trkpt lat="31.821985" lon="35.012049">
        <ele>285.0</ele>
        <time>2011-07-01T03:38:48Z</time>
      </trkpt>
      <trkpt lat="31.821996" lon="35.012146">
        <ele>285.0</ele>
        <time>2011-07-01T03:38:51Z</time>
      </trkpt>
      <trkpt lat="31.821975" lon="35.012333">
        <ele>280.0</ele>
        <time>2011-07-01T03:38:57Z</time>
      </trkpt>
      <trkpt lat="31.821953" lon="35.012414">
        <ele>280.0</ele>
        <time>2011-07-01T03:39:00Z</time>
      </trkpt>
      <trkpt lat="31.821937" lon="35.012596">
        <ele>280.0</ele>
        <time>2011-07-01T03:39:10Z</time>
      </trkpt>
      <trkpt lat="31.821916" lon="35.012693">
        <ele>280.0</ele>
        <time>2011-07-01T03:39:15Z</time>
      </trkpt>
      <trkpt lat="31.821894" lon="35.012784">
        <ele>281.0</ele>
        <time>2011-07-01T03:39:19Z</time>
      </trkpt>
      <trkpt lat="31.821883" lon="35.012859">
        <ele>283.0</ele>
        <time>2011-07-01T03:39:22Z</time>
      </trkpt>
      <trkpt lat="31.821808" lon="35.013127">
        <ele>282.0</ele>
        <time>2011-07-01T03:39:31Z</time>
      </trkpt>
      <trkpt lat="31.821765" lon="35.013288">
        <ele>282.0</ele>
        <time>2011-07-01T03:39:37Z</time>
      </trkpt>
      <trkpt lat="31.821738" lon="35.013385">
        <ele>281.0</ele>
        <time>2011-07-01T03:39:40Z</time>
      </trkpt>
      <trkpt lat="31.821722" lon="35.013471">
        <ele>281.0</ele>
        <time>2011-07-01T03:39:43Z</time>
      </trkpt>
      <trkpt lat="31.821685" lon="35.013653">
        <ele>280.0</ele>
        <time>2011-07-01T03:39:49Z</time>
      </trkpt>
      <trkpt lat="31.821663" lon="35.013739">
        <ele>280.0</ele>
        <time>2011-07-01T03:39:52Z</time>
      </trkpt>
      <trkpt lat="31.821642" lon="35.01383">
        <ele>280.0</ele>
        <time>2011-07-01T03:39:55Z</time>
      </trkpt>
      <trkpt lat="31.821588" lon="35.013996">
        <ele>280.0</ele>
        <time>2011-07-01T03:40:01Z</time>
      </trkpt>
      <trkpt lat="31.821556" lon="35.014088">
        <ele>278.0</ele>
        <time>2011-07-01T03:40:04Z</time>
      </trkpt>
      <trkpt lat="31.82154" lon="35.014168">
        <ele>279.0</ele>
        <time>2011-07-01T03:40:07Z</time>
      </trkpt>
      <trkpt lat="31.82147" lon="35.014313">
        <ele>280.0</ele>
        <time>2011-07-01T03:40:13Z</time>
      </trkpt>
      <trkpt lat="31.821417" lon="35.014367">
        <ele>281.0</ele>
        <time>2011-07-01T03:40:16Z</time>
      </trkpt>
      <trkpt lat="31.82125" lon="35.01449">
        <ele>284.0</ele>
        <time>2011-07-01T03:40:25Z</time>
      </trkpt>
      <trkpt lat="31.821197" lon="35.014544">
        <ele>284.0</ele>
        <time>2011-07-01T03:40:28Z</time>
      </trkpt>
      <trkpt lat="31.821138" lon="35.014592">
        <ele>283.0</ele>
        <time>2011-07-01T03:40:31Z</time>
      </trkpt>
      <trkpt lat="31.821068" lon="35.01464">
        <ele>283.0</ele>
        <time>2011-07-01T03:40:35Z</time>
      </trkpt>
      <trkpt lat="31.820939" lon="35.014731">
        <ele>284.0</ele>
        <time>2011-07-01T03:40:41Z</time>
      </trkpt>
      <trkpt lat="31.820805" lon="35.014785">
        <ele>286.0</ele>
        <time>2011-07-01T03:40:47Z</time>
      </trkpt>
      <trkpt lat="31.820628" lon="35.01493">
        <ele>287.0</ele>
        <time>2011-07-01T03:40:57Z</time>
      </trkpt>
      <trkpt lat="31.820564" lon="35.014983">
        <ele>286.0</ele>
        <time>2011-07-01T03:41:00Z</time>
      </trkpt>
      <trkpt lat="31.820505" lon="35.015053">
        <ele>287.0</ele>
        <time>2011-07-01T03:41:04Z</time>
      </trkpt>
      <trkpt lat="31.820467" lon="35.015123">
        <ele>285.0</ele>
        <time>2011-07-01T03:41:07Z</time>
      </trkpt>
      <trkpt lat="31.820397" lon="35.015273">
        <ele>287.0</ele>
        <time>2011-07-01T03:41:13Z</time>
      </trkpt>
      <trkpt lat="31.820376" lon="35.015354">
        <ele>287.0</ele>
        <time>2011-07-01T03:41:16Z</time>
      </trkpt>
      <trkpt lat="31.820446" lon="35.0156">
        <ele>289.0</ele>
        <time>2011-07-01T03:41:25Z</time>
      </trkpt>
      <trkpt lat="31.820483" lon="35.01567">
        <ele>290.0</ele>
        <time>2011-07-01T03:41:28Z</time>
      </trkpt>
      <trkpt lat="31.820521" lon="35.015734">
        <ele>290.0</ele>
        <time>2011-07-01T03:41:31Z</time>
      </trkpt>
      <trkpt lat="31.820628" lon="35.015842">
        <ele>290.0</ele>
        <time>2011-07-01T03:41:37Z</time>
      </trkpt>
      <trkpt lat="31.82073" lon="35.015944">
        <ele>291.0</ele>
        <time>2011-07-01T03:41:43Z</time>
      </trkpt>
      <trkpt lat="31.82081" lon="35.016083">
        <ele>291.0</ele>
        <time>2011-07-01T03:41:49Z</time>
      </trkpt>
      <trkpt lat="31.820837" lon="35.016158">
        <ele>291.0</ele>
        <time>2011-07-01T03:41:52Z</time>
      </trkpt>
      <trkpt lat="31.820843" lon="35.016233">
        <ele>292.0</ele>
        <time>2011-07-01T03:41:56Z</time>
      </trkpt>
      <trkpt lat="31.82081" lon="35.016308">
        <ele>292.0</ele>
        <time>2011-07-01T03:41:59Z</time>
      </trkpt>
      <trkpt lat="31.820768" lon="35.016389">
        <ele>292.0</ele>
        <time>2011-07-01T03:42:03Z</time>
      </trkpt>
      <trkpt lat="31.820714" lon="35.016464">
        <ele>292.0</ele>
        <time>2011-07-01T03:42:07Z</time>
      </trkpt>
      <trkpt lat="31.820612" lon="35.016561">
        <ele>293.0</ele>
        <time>2011-07-01T03:42:13Z</time>
      </trkpt>
      <trkpt lat="31.820558" lon="35.016603">
        <ele>293.0</ele>
        <time>2011-07-01T03:42:16Z</time>
      </trkpt>
      <trkpt lat="31.820505" lon="35.016646">
        <ele>293.0</ele>
        <time>2011-07-01T03:42:19Z</time>
      </trkpt>
      <trkpt lat="31.820392" lon="35.016732">
        <ele>294.0</ele>
        <time>2011-07-01T03:42:25Z</time>
      </trkpt>
      <trkpt lat="31.820333" lon="35.016759">
        <ele>295.0</ele>
        <time>2011-07-01T03:42:28Z</time>
      </trkpt>
      <trkpt lat="31.820274" lon="35.016807">
        <ele>297.0</ele>
        <time>2011-07-01T03:42:32Z</time>
      </trkpt>
      <trkpt lat="31.82021" lon="35.016823">
        <ele>297.0</ele>
        <time>2011-07-01T03:42:35Z</time>
      </trkpt>
      <trkpt lat="31.820151" lon="35.016866">
        <ele>297.0</ele>
        <time>2011-07-01T03:42:38Z</time>
      </trkpt>
      <trkpt lat="31.820049" lon="35.016995">
        <ele>294.0</ele>
        <time>2011-07-01T03:42:44Z</time>
      </trkpt>
      <trkpt lat="31.819995" lon="35.017038">
        <ele>294.0</ele>
        <time>2011-07-01T03:42:47Z</time>
      </trkpt>
      <trkpt lat="31.819861" lon="35.017124">
        <ele>295.0</ele>
        <time>2011-07-01T03:42:53Z</time>
      </trkpt>
      <trkpt lat="31.819791" lon="35.017177">
        <ele>295.0</ele>
        <time>2011-07-01T03:42:57Z</time>
      </trkpt>
      <trkpt lat="31.819748" lon="35.017242">
        <ele>295.0</ele>
        <time>2011-07-01T03:43:00Z</time>
      </trkpt>
      <trkpt lat="31.8197" lon="35.017295">
        <ele>295.0</ele>
        <time>2011-07-01T03:43:03Z</time>
      </trkpt>
      <trkpt lat="31.819646" lon="35.01736">
        <ele>294.0</ele>
        <time>2011-07-01T03:43:07Z</time>
      </trkpt>
      <trkpt lat="31.819609" lon="35.01743">
        <ele>294.0</ele>
        <time>2011-07-01T03:43:11Z</time>
      </trkpt>
      <trkpt lat="31.819609" lon="35.01743">
        <time>2011-07-01T03:43:23Z</time>
      </trkpt>
    </trkseg>
    <trkseg>
      <trkpt lat="31.819609" lon="35.01743">
        <time>2011-07-01T03:43:44Z</time>
      </trkpt>
      <trkpt lat="31.819609" lon="35.01743">
        <time>2011-07-01T03:43:56Z</time>
      </trkpt>
    </trkseg>
    <trkseg>
      <trkpt lat="31.819609" lon="35.01743">
        <time>2011-07-01T03:45:02Z</time>
      </trkpt>
      <trkpt lat="31.819754" lon="35.017666">
        <ele>291.0</ele>
        <time>2011-07-01T03:45:05Z</time>
      </trkpt>
      <trkpt lat="31.819823" lon="35.017703">
        <ele>289.0</ele>
        <time>2011-07-01T03:45:08Z</time>
      </trkpt>
      <trkpt lat="31.819995" lon="35.017789">
        <ele>288.0</ele>
        <time>2011-07-01T03:45:14Z</time>
      </trkpt>
      <trkpt lat="31.820065" lon="35.017837">
        <ele>288.0</ele>
        <time>2011-07-01T03:45:17Z</time>
      </trkpt>
      <trkpt lat="31.82014" lon="35.017891">
        <ele>288.0</ele>
        <time>2011-07-01T03:45:21Z</time>
      </trkpt>
      <trkpt lat="31.820258" lon="35.017961">
        <ele>287.0</ele>
        <time>2011-07-01T03:45:26Z</time>
      </trkpt>
      <trkpt lat="31.820322" lon="35.01802">
        <ele>287.0</ele>
        <time>2011-07-01T03:45:29Z</time>
      </trkpt>
      <trkpt lat="31.820387" lon="35.018202">
        <ele>284.0</ele>
        <time>2011-07-01T03:45:34Z</time>
      </trkpt>
      <trkpt lat="31.820403" lon="35.018304">
        <ele>283.0</ele>
        <time>2011-07-01T03:45:36Z</time>
      </trkpt>
      <trkpt lat="31.82044" lon="35.018513">
        <ele>283.0</ele>
        <time>2011-07-01T03:45:40Z</time>
      </trkpt>
      <trkpt lat="31.820499" lon="35.018685">
        <ele>284.0</ele>
        <time>2011-07-01T03:45:45Z</time>
      </trkpt>
      <trkpt lat="31.820531" lon="35.018755">
        <ele>283.0</ele>
        <time>2011-07-01T03:45:47Z</time>
      </trkpt>
      <trkpt lat="31.820762" lon="35.01905">
        <ele>285.0</ele>
        <time>2011-07-01T03:45:58Z</time>
      </trkpt>
      <trkpt lat="31.820778" lon="35.019162">
        <ele>286.0</ele>
        <time>2011-07-01T03:46:01Z</time>
      </trkpt>
      <trkpt lat="31.820859" lon="35.019313">
        <ele>287.0</ele>
        <time>2011-07-01T03:46:06Z</time>
      </trkpt>
      <trkpt lat="31.820907" lon="35.019382">
        <ele>289.0</ele>
        <time>2011-07-01T03:46:09Z</time>
      </trkpt>
      <trkpt lat="31.820982" lon="35.019393">
        <ele>289.0</ele>
        <time>2011-07-01T03:46:12Z</time>
      </trkpt>
      <trkpt lat="31.821041" lon="35.01942">
        <ele>289.0</ele>
        <time>2011-07-01T03:46:15Z</time>
      </trkpt>
      <trkpt lat="31.821181" lon="35.019393">
        <ele>291.0</ele>
        <time>2011-07-01T03:46:22Z</time>
      </trkpt>
      <trkpt lat="31.821283" lon="35.019264">
        <ele>292.0</ele>
        <time>2011-07-01T03:46:28Z</time>
      </trkpt>
      <trkpt lat="31.821315" lon="35.019189">
        <ele>291.0</ele>
        <time>2011-07-01T03:46:31Z</time>
      </trkpt>
      <trkpt lat="31.821406" lon="35.019034">
        <ele>291.0</ele>
        <time>2011-07-01T03:46:37Z</time>
      </trkpt>
      <trkpt lat="31.82147" lon="35.018862">
        <ele>291.0</ele>
        <time>2011-07-01T03:46:42Z</time>
      </trkpt>
      <trkpt lat="31.821497" lon="35.018749">
        <ele>290.0</ele>
        <time>2011-07-01T03:46:45Z</time>
      </trkpt>
      <trkpt lat="31.821545" lon="35.018583">
        <ele>289.0</ele>
        <time>2011-07-01T03:46:49Z</time>
      </trkpt>
      <trkpt lat="31.821583" lon="35.018406">
        <ele>289.0</ele>
        <time>2011-07-01T03:46:53Z</time>
      </trkpt>
      <trkpt lat="31.821626" lon="35.01824">
        <ele>289.0</ele>
        <time>2011-07-01T03:46:57Z</time>
      </trkpt>
      <trkpt lat="31.821674" lon="35.018084">
        <ele>288.0</ele>
        <time>2011-07-01T03:47:01Z</time>
      </trkpt>
      <trkpt lat="31.821738" lon="35.017918">
        <ele>288.0</ele>
        <time>2011-07-01T03:47:06Z</time>
      </trkpt>
      <trkpt lat="31.82176" lon="35.017848">
        <ele>287.0</ele>
        <time>2011-07-01T03:47:08Z</time>
      </trkpt>
      <trkpt lat="31.821835" lon="35.017676">
        <ele>288.0</ele>
        <time>2011-07-01T03:47:14Z</time>
      </trkpt>
      <trkpt lat="31.821856" lon="35.017607">
        <ele>287.0</ele>
        <time>2011-07-01T03:47:17Z</time>
      </trkpt>
      <trkpt lat="31.821889" lon="35.017542">
        <ele>286.0</ele>
        <time>2011-07-01T03:47:20Z</time>
      </trkpt>
      <trkpt lat="31.821958" lon="35.017505">
        <ele>285.0</ele>
        <time>2011-07-01T03:47:24Z</time>
      </trkpt>
      <trkpt lat="31.821958" lon="35.017505">
        <time>2011-07-01T03:47:35Z</time>
      </trkpt>
    </trkseg>
    <trkseg>
      <trkpt lat="31.821958" lon="35.017505">
        <time>2011-07-01T03:48:26Z</time>
      </trkpt>
      <trkpt lat="31.822103" lon="35.017574">
        <ele>285.0</ele>
        <time>2011-07-01T03:48:29Z</time>
      </trkpt>
      <trkpt lat="31.822184" lon="35.017612">
        <ele>284.0</ele>
        <time>2011-07-01T03:48:32Z</time>
      </trkpt>
      <trkpt lat="31.822253" lon="35.017623">
        <ele>284.0</ele>
        <time>2011-07-01T03:48:36Z</time>
      </trkpt>
      <trkpt lat="31.822253" lon="35.017623">
        <time>2011-07-01T03:48:47Z</time>
      </trkpt>
    </trkseg>
    <trkseg>
      <trkpt lat="31.822253" lon="35.017623">
        <time>2011-07-01T03:49:51Z</time>
      </trkpt>
      <trkpt lat="31.82227" lon="35.017462">
        <ele>283.0</ele>
        <time>2011-07-01T03:49:55Z</time>
      </trkpt>
      <trkpt lat="31.82228" lon="35.017295">
        <ele>283.0</ele>
        <time>2011-07-01T03:50:00Z</time>
      </trkpt>
      <trkpt lat="31.822334" lon="35.017118">
        <ele>284.0</ele>
        <time>2011-07-01T03:50:04Z</time>
      </trkpt>
      <trkpt lat="31.822409" lon="35.016974">
        <ele>286.0</ele>
        <time>2011-07-01T03:50:08Z</time>
      </trkpt>
      <trkpt lat="31.822463" lon="35.016882">
        <ele>285.0</ele>
        <time>2011-07-01T03:50:11Z</time>
      </trkpt>
      <trkpt lat="31.822543" lon="35.016732">
        <ele>285.0</ele>
        <time>2011-07-01T03:50:16Z</time>
      </trkpt>
      <trkpt lat="31.82264" lon="35.016571">
        <ele>285.0</ele>
        <time>2011-07-01T03:50:20Z</time>
      </trkpt>
      <trkpt lat="31.822736" lon="35.016432">
        <ele>284.0</ele>
        <time>2011-07-01T03:50:24Z</time>
      </trkpt>
      <trkpt lat="31.822844" lon="35.016314">
        <ele>284.0</ele>
        <time>2011-07-01T03:50:28Z</time>
      </trkpt>
      <trkpt lat="31.822983" lon="35.016244">
        <ele>283.0</ele>
        <time>2011-07-01T03:50:32Z</time>
      </trkpt>
      <trkpt lat="31.823128" lon="35.016228">
        <ele>283.0</ele>
        <time>2011-07-01T03:50:36Z</time>
      </trkpt>
      <trkpt lat="31.823198" lon="35.016266">
        <ele>283.0</ele>
        <time>2011-07-01T03:50:39Z</time>
      </trkpt>
      <trkpt lat="31.823257" lon="35.016314">
        <ele>282.0</ele>
        <time>2011-07-01T03:50:42Z</time>
      </trkpt>
      <trkpt lat="31.823267" lon="35.0164">
        <ele>282.0</ele>
        <time>2011-07-01T03:50:48Z</time>
      </trkpt>
      <trkpt lat="31.823316" lon="35.016475">
        <ele>281.0</ele>
        <time>2011-07-01T03:50:53Z</time>
      </trkpt>
      <trkpt lat="31.823337" lon="35.016555">
        <ele>281.0</ele>
        <time>2011-07-01T03:50:57Z</time>
      </trkpt>
      <trkpt lat="31.823375" lon="35.01663">
        <ele>280.0</ele>
        <time>2011-07-01T03:51:01Z</time>
      </trkpt>
      <trkpt lat="31.823375" lon="35.016705">
        <ele>280.0</ele>
        <time>2011-07-01T03:51:05Z</time>
      </trkpt>
      <trkpt lat="31.823369" lon="35.016791">
        <ele>281.0</ele>
        <time>2011-07-01T03:51:10Z</time>
      </trkpt>
      <trkpt lat="31.823359" lon="35.016877">
        <ele>282.0</ele>
        <time>2011-07-01T03:51:16Z</time>
      </trkpt>
      <trkpt lat="31.823348" lon="35.016968">
        <ele>283.0</ele>
        <time>2011-07-01T03:51:21Z</time>
      </trkpt>
      <trkpt lat="31.823316" lon="35.017049">
        <ele>283.0</ele>
        <time>2011-07-01T03:51:25Z</time>
      </trkpt>
      <trkpt lat="31.823289" lon="35.017135">
        <ele>284.0</ele>
        <time>2011-07-01T03:51:29Z</time>
      </trkpt>
      <trkpt lat="31.823267" lon="35.017204">
        <ele>284.0</ele>
        <time>2011-07-01T03:51:32Z</time>
      </trkpt>
      <trkpt lat="31.823246" lon="35.017279">
        <ele>285.0</ele>
        <time>2011-07-01T03:51:35Z</time>
      </trkpt>
      <trkpt lat="31.823224" lon="35.017365">
        <ele>284.0</ele>
        <time>2011-07-01T03:51:39Z</time>
      </trkpt>
      <trkpt lat="31.823214" lon="35.017446">
        <ele>286.0</ele>
        <time>2011-07-01T03:51:45Z</time>
      </trkpt>
      <trkpt lat="31.823208" lon="35.017521">
        <ele>286.0</ele>
        <time>2011-07-01T03:51:50Z</time>
      </trkpt>
      <trkpt lat="31.823182" lon="35.017601">
        <ele>286.0</ele>
        <time>2011-07-01T03:51:55Z</time>
      </trkpt>
      <trkpt lat="31.823155" lon="35.017671">
        <ele>286.0</ele>
        <time>2011-07-01T03:52:00Z</time>
      </trkpt>
      <trkpt lat="31.823106" lon="35.017746">
        <ele>288.0</ele>
        <time>2011-07-01T03:52:05Z</time>
      </trkpt>
      <trkpt lat="31.823063" lon="35.017821">
        <ele>288.0</ele>
        <time>2011-07-01T03:52:09Z</time>
      </trkpt>
      <trkpt lat="31.823026" lon="35.017907">
        <ele>289.0</ele>
        <time>2011-07-01T03:52:13Z</time>
      </trkpt>
      <trkpt lat="31.822999" lon="35.017982">
        <ele>289.0</ele>
        <time>2011-07-01T03:52:16Z</time>
      </trkpt>
      <trkpt lat="31.822978" lon="35.018063">
        <ele>289.0</ele>
        <time>2011-07-01T03:52:19Z</time>
      </trkpt>
      <trkpt lat="31.822935" lon="35.018224">
        <ele>289.0</ele>
        <time>2011-07-01T03:52:25Z</time>
      </trkpt>
      <trkpt lat="31.822919" lon="35.018299">
        <ele>289.0</ele>
        <time>2011-07-01T03:52:28Z</time>
      </trkpt>
      <trkpt lat="31.822903" lon="35.018379">
        <ele>288.0</ele>
        <time>2011-07-01T03:52:31Z</time>
      </trkpt>
      <trkpt lat="31.82286" lon="35.01854">
        <ele>290.0</ele>
        <time>2011-07-01T03:52:37Z</time>
      </trkpt>
      <trkpt lat="31.822838" lon="35.018615">
        <ele>289.0</ele>
        <time>2011-07-01T03:52:40Z</time>
      </trkpt>
      <trkpt lat="31.822817" lon="35.01869">
        <ele>289.0</ele>
        <time>2011-07-01T03:52:43Z</time>
      </trkpt>
      <trkpt lat="31.822801" lon="35.018765">
        <ele>289.0</ele>
        <time>2011-07-01T03:52:46Z</time>
      </trkpt>
      <trkpt lat="31.822742" lon="35.018932">
        <ele>289.0</ele>
        <time>2011-07-01T03:52:53Z</time>
      </trkpt>
      <trkpt lat="31.822709" lon="35.019012">
        <ele>289.0</ele>
        <time>2011-07-01T03:52:56Z</time>
      </trkpt>
      <trkpt lat="31.822672" lon="35.019098">
        <ele>289.0</ele>
        <time>2011-07-01T03:52:59Z</time>
      </trkpt>
      <trkpt lat="31.822613" lon="35.019248">
        <ele>290.0</ele>
        <time>2011-07-01T03:53:05Z</time>
      </trkpt>
      <trkpt lat="31.822581" lon="35.019334">
        <ele>290.0</ele>
        <time>2011-07-01T03:53:08Z</time>
      </trkpt>
      <trkpt lat="31.822543" lon="35.01942">
        <ele>290.0</ele>
        <time>2011-07-01T03:53:11Z</time>
      </trkpt>
      <trkpt lat="31.822484" lon="35.019581">
        <ele>290.0</ele>
        <time>2011-07-01T03:53:17Z</time>
      </trkpt>
      <trkpt lat="31.822447" lon="35.019667">
        <ele>290.0</ele>
        <time>2011-07-01T03:53:20Z</time>
      </trkpt>
      <trkpt lat="31.822425" lon="35.019752">
        <ele>290.0</ele>
        <time>2011-07-01T03:53:23Z</time>
      </trkpt>
      <trkpt lat="31.822361" lon="35.019924">
        <ele>289.0</ele>
        <time>2011-07-01T03:53:29Z</time>
      </trkpt>
      <trkpt lat="31.822329" lon="35.020005">
        <ele>290.0</ele>
        <time>2011-07-01T03:53:32Z</time>
      </trkpt>
      <trkpt lat="31.822296" lon="35.020096">
        <ele>289.0</ele>
        <time>2011-07-01T03:53:35Z</time>
      </trkpt>
      <trkpt lat="31.822227" lon="35.020246">
        <ele>290.0</ele>
        <time>2011-07-01T03:53:41Z</time>
      </trkpt>
      <trkpt lat="31.822194" lon="35.020316">
        <ele>290.0</ele>
        <time>2011-07-01T03:53:44Z</time>
      </trkpt>
      <trkpt lat="31.82213" lon="35.020369">
        <ele>291.0</ele>
        <time>2011-07-01T03:53:48Z</time>
      </trkpt>
      <trkpt lat="31.822098" lon="35.020455">
        <ele>291.0</ele>
        <time>2011-07-01T03:53:52Z</time>
      </trkpt>
      <trkpt lat="31.822076" lon="35.02053">
        <ele>292.0</ele>
        <time>2011-07-01T03:53:55Z</time>
      </trkpt>
      <trkpt lat="31.822055" lon="35.0206">
        <ele>291.0</ele>
        <time>2011-07-01T03:54:00Z</time>
      </trkpt>
      <trkpt lat="31.821996" lon="35.020659">
        <ele>290.0</ele>
        <time>2011-07-01T03:54:05Z</time>
      </trkpt>
      <trkpt lat="31.821937" lon="35.020686">
        <ele>289.0</ele>
        <time>2011-07-01T03:54:08Z</time>
      </trkpt>
      <trkpt lat="31.821873" lon="35.020713">
        <ele>289.0</ele>
        <time>2011-07-01T03:54:11Z</time>
      </trkpt>
      <trkpt lat="31.821792" lon="35.020745">
        <ele>289.0</ele>
        <time>2011-07-01T03:54:15Z</time>
      </trkpt>
      <trkpt lat="31.821722" lon="35.020766">
        <ele>289.0</ele>
        <time>2011-07-01T03:54:19Z</time>
      </trkpt>
      <trkpt lat="31.821658" lon="35.020756">
        <ele>289.0</ele>
        <time>2011-07-01T03:54:22Z</time>
      </trkpt>
      <trkpt lat="31.821599" lon="35.020729">
        <ele>291.0</ele>
        <time>2011-07-01T03:54:33Z</time>
      </trkpt>
      <trkpt lat="31.821599" lon="35.020729">
        <time>2011-07-01T03:54:45Z</time>
      </trkpt>
    </trkseg>
    <trkseg>
      <trkpt lat="31.821599" lon="35.020729">
        <time>2011-07-01T03:54:46Z</time>
      </trkpt>
      <trkpt lat="31.821599" lon="35.020729">
        <time>2011-07-01T03:54:58Z</time>
      </trkpt>
    </trkseg>
    <trkseg>
      <trkpt lat="31.821599" lon="35.020729">
        <time>2011-07-01T03:55:10Z</time>
      </trkpt>
      <trkpt lat="31.821406" lon="35.020718">
        <ele>290.0</ele>
        <time>2011-07-01T03:55:18Z</time>
      </trkpt>
      <trkpt lat="31.821358" lon="35.020766">
        <ele>289.0</ele>
        <time>2011-07-01T03:55:26Z</time>
      </trkpt>
      <trkpt lat="31.821358" lon="35.020766">
        <time>2011-07-01T03:55:38Z</time>
      </trkpt>
    </trkseg>
    <trkseg>
      <trkpt lat="31.821358" lon="35.020766">
        <time>2011-07-01T03:56:14Z</time>
      </trkpt>
      <trkpt lat="31.821358" lon="35.020766">
        <time>2011-07-01T03:56:26Z</time>
      </trkpt>
    </trkseg>
    <trkseg>
      <trkpt lat="31.821358" lon="35.020766">
        <time>2011-07-01T03:56:34Z</time>
      </trkpt>
      <trkpt lat="31.821358" lon="35.020766">
        <time>2011-07-01T03:56:46Z</time>
      </trkpt>
    </trkseg>
    <trkseg>
      <trkpt lat="31.821358" lon="35.020766">
        <time>2011-07-01T03:57:00Z</time>
      </trkpt>
      <trkpt lat="31.821105" lon="35.020884">
        <ele>288.0</ele>
        <time>2011-07-01T03:57:04Z</time>
      </trkpt>
      <trkpt lat="31.821036" lon="35.020874">
        <ele>289.0</ele>
        <time>2011-07-01T03:57:08Z</time>
      </trkpt>
      <trkpt lat="31.820966" lon="35.02089">
        <ele>287.0</ele>
        <time>2011-07-01T03:57:13Z</time>
      </trkpt>
      <trkpt lat="31.820896" lon="35.0209">
        <ele>288.0</ele>
        <time>2011-07-01T03:57:17Z</time>
      </trkpt>
      <trkpt lat="31.820827" lon="35.020949">
        <ele>288.0</ele>
        <time>2011-07-01T03:57:21Z</time>
      </trkpt>
      <trkpt lat="31.820768" lon="35.020992">
        <ele>289.0</ele>
        <time>2011-07-01T03:57:25Z</time>
      </trkpt>
      <trkpt lat="31.820709" lon="35.02104">
        <ele>289.0</ele>
        <time>2011-07-01T03:57:28Z</time>
      </trkpt>
      <trkpt lat="31.820655" lon="35.021099">
        <ele>289.0</ele>
        <time>2011-07-01T03:57:32Z</time>
      </trkpt>
      <trkpt lat="31.820617" lon="35.021163">
        <ele>289.0</ele>
        <time>2011-07-01T03:57:36Z</time>
      </trkpt>
      <trkpt lat="31.820558" lon="35.021222">
        <ele>289.0</ele>
        <time>2011-07-01T03:57:40Z</time>
      </trkpt>
      <trkpt lat="31.820494" lon="35.021281">
        <ele>289.0</ele>
        <time>2011-07-01T03:57:44Z</time>
      </trkpt>
      <trkpt lat="31.820435" lon="35.02134">
        <ele>289.0</ele>
        <time>2011-07-01T03:57:48Z</time>
      </trkpt>
      <trkpt lat="31.820381" lon="35.021383">
        <ele>291.0</ele>
        <time>2011-07-01T03:57:52Z</time>
      </trkpt>
      <trkpt lat="31.820317" lon="35.021442">
        <ele>292.0</ele>
        <time>2011-07-01T03:57:56Z</time>
      </trkpt>
      <trkpt lat="31.820253" lon="35.021501">
        <ele>293.0</ele>
        <time>2011-07-01T03:58:00Z</time>
      </trkpt>
      <trkpt lat="31.820199" lon="35.021544">
        <ele>293.0</ele>
        <time>2011-07-01T03:58:03Z</time>
      </trkpt>
      <trkpt lat="31.82014" lon="35.021598">
        <ele>293.0</ele>
        <time>2011-07-01T03:58:07Z</time>
      </trkpt>
      <trkpt lat="31.820076" lon="35.021651">
        <ele>294.0</ele>
        <time>2011-07-01T03:58:12Z</time>
      </trkpt>
      <trkpt lat="31.820017" lon="35.0217">
        <ele>293.0</ele>
        <time>2011-07-01T03:58:16Z</time>
      </trkpt>
      <trkpt lat="31.819963" lon="35.021759">
        <ele>294.0</ele>
        <time>2011-07-01T03:58:20Z</time>
      </trkpt>
      <trkpt lat="31.819915" lon="35.021823">
        <ele>295.0</ele>
        <time>2011-07-01T03:58:24Z</time>
      </trkpt>
      <trkpt lat="31.819872" lon="35.021882">
        <ele>295.0</ele>
        <time>2011-07-01T03:58:28Z</time>
      </trkpt>
      <trkpt lat="31.819834" lon="35.021952">
        <ele>295.0</ele>
        <time>2011-07-01T03:58:32Z</time>
      </trkpt>
      <trkpt lat="31.819775" lon="35.022011">
        <ele>295.0</ele>
        <time>2011-07-01T03:58:36Z</time>
      </trkpt>
      <trkpt lat="31.819711" lon="35.022054">
        <ele>297.0</ele>
        <time>2011-07-01T03:58:40Z</time>
      </trkpt>
      <trkpt lat="31.819652" lon="35.022107">
        <ele>297.0</ele>
        <time>2011-07-01T03:58:44Z</time>
      </trkpt>
      <trkpt lat="31.819598" lon="35.022172">
        <ele>297.0</ele>
        <time>2011-07-01T03:58:48Z</time>
      </trkpt>
      <trkpt lat="31.819555" lon="35.022241">
        <ele>296.0</ele>
        <time>2011-07-01T03:58:52Z</time>
      </trkpt>
      <trkpt lat="31.819518" lon="35.022317">
        <ele>296.0</ele>
        <time>2011-07-01T03:58:56Z</time>
      </trkpt>
      <trkpt lat="31.819459" lon="35.02237">
        <ele>296.0</ele>
        <time>2011-07-01T03:58:59Z</time>
      </trkpt>
      <trkpt lat="31.819394" lon="35.022429">
        <ele>296.0</ele>
        <time>2011-07-01T03:59:03Z</time>
      </trkpt>
      <trkpt lat="31.819341" lon="35.022478">
        <ele>297.0</ele>
        <time>2011-07-01T03:59:07Z</time>
      </trkpt>
      <trkpt lat="31.819308" lon="35.022558">
        <ele>295.0</ele>
        <time>2011-07-01T03:59:11Z</time>
      </trkpt>
      <trkpt lat="31.819276" lon="35.022644">
        <ele>296.0</ele>
        <time>2011-07-01T03:59:15Z</time>
      </trkpt>
      <trkpt lat="31.819239" lon="35.022719">
        <ele>297.0</ele>
        <time>2011-07-01T03:59:19Z</time>
      </trkpt>
      <trkpt lat="31.819212" lon="35.022794">
        <ele>297.0</ele>
        <time>2011-07-01T03:59:23Z</time>
      </trkpt>
      <trkpt lat="31.819164" lon="35.022853">
        <ele>297.0</ele>
        <time>2011-07-01T03:59:27Z</time>
      </trkpt>
      <trkpt lat="31.819121" lon="35.022923">
        <ele>298.0</ele>
        <time>2011-07-01T03:59:31Z</time>
      </trkpt>
      <trkpt lat="31.819105" lon="35.023014">
        <ele>299.0</ele>
        <time>2011-07-01T03:59:35Z</time>
      </trkpt>
      <trkpt lat="31.819067" lon="35.023094">
        <ele>300.0</ele>
        <time>2011-07-01T03:59:39Z</time>
      </trkpt>
      <trkpt lat="31.819051" lon="35.023175">
        <ele>302.0</ele>
        <time>2011-07-01T03:59:43Z</time>
      </trkpt>
      <trkpt lat="31.819019" lon="35.02325">
        <ele>302.0</ele>
        <time>2011-07-01T03:59:47Z</time>
      </trkpt>
      <trkpt lat="31.818965" lon="35.023304">
        <ele>302.0</ele>
        <time>2011-07-01T03:59:51Z</time>
      </trkpt>
      <trkpt lat="31.818944" lon="35.023389">
        <ele>301.0</ele>
        <time>2011-07-01T03:59:55Z</time>
      </trkpt>
      <trkpt lat="31.818944" lon="35.02347">
        <ele>302.0</ele>
        <time>2011-07-01T03:59:59Z</time>
      </trkpt>
      <trkpt lat="31.818954" lon="35.023561">
        <ele>302.0</ele>
        <time>2011-07-01T04:00:03Z</time>
      </trkpt>
      <trkpt lat="31.81897" lon="35.023652">
        <ele>303.0</ele>
        <time>2011-07-01T04:00:07Z</time>
      </trkpt>
      <trkpt lat="31.818976" lon="35.023727">
        <ele>304.0</ele>
        <time>2011-07-01T04:00:10Z</time>
      </trkpt>
      <trkpt lat="31.818976" lon="35.023819">
        <ele>303.0</ele>
        <time>2011-07-01T04:00:14Z</time>
      </trkpt>
      <trkpt lat="31.818965" lon="35.02399">
        <ele>303.0</ele>
        <time>2011-07-01T04:00:21Z</time>
      </trkpt>
      <trkpt lat="31.818987" lon="35.02406">
        <ele>302.0</ele>
        <time>2011-07-01T04:00:24Z</time>
      </trkpt>
      <trkpt lat="31.819008" lon="35.02413">
        <ele>302.0</ele>
        <time>2011-07-01T04:00:28Z</time>
      </trkpt>
      <trkpt lat="31.819019" lon="35.02421">
        <ele>304.0</ele>
        <time>2011-07-01T04:00:31Z</time>
      </trkpt>
      <trkpt lat="31.819008" lon="35.024291">
        <ele>305.0</ele>
        <time>2011-07-01T04:00:36Z</time>
      </trkpt>
      <trkpt lat="31.818987" lon="35.024366">
        <ele>307.0</ele>
        <time>2011-07-01T04:00:42Z</time>
      </trkpt>
      <trkpt lat="31.818917" lon="35.024377">
        <ele>307.0</ele>
        <time>2011-07-01T04:00:48Z</time>
      </trkpt>
      <trkpt lat="31.818852" lon="35.024387">
        <ele>308.0</ele>
        <time>2011-07-01T04:00:52Z</time>
      </trkpt>
      <trkpt lat="31.818777" lon="35.024409">
        <ele>307.0</ele>
        <time>2011-07-01T04:00:56Z</time>
      </trkpt>
      <trkpt lat="31.818708" lon="35.024462">
        <ele>306.0</ele>
        <time>2011-07-01T04:01:00Z</time>
      </trkpt>
      <trkpt lat="31.818643" lon="35.024521">
        <ele>306.0</ele>
        <time>2011-07-01T04:01:04Z</time>
      </trkpt>
      <trkpt lat="31.818584" lon="35.024591">
        <ele>305.0</ele>
        <time>2011-07-01T04:01:08Z</time>
      </trkpt>
      <trkpt lat="31.818531" lon="35.024672">
        <ele>306.0</ele>
        <time>2011-07-01T04:01:12Z</time>
      </trkpt>
      <trkpt lat="31.818488" lon="35.024747">
        <ele>305.0</ele>
        <time>2011-07-01T04:01:16Z</time>
      </trkpt>
      <trkpt lat="31.818455" lon="35.024816">
        <ele>305.0</ele>
        <time>2011-07-01T04:01:19Z</time>
      </trkpt>
      <trkpt lat="31.818413" lon="35.024875">
        <ele>304.0</ele>
        <time>2011-07-01T04:01:22Z</time>
      </trkpt>
      <trkpt lat="31.818316" lon="35.024993">
        <ele>303.0</ele>
        <time>2011-07-01T04:01:29Z</time>
      </trkpt>
      <trkpt lat="31.818273" lon="35.025058">
        <ele>304.0</ele>
        <time>2011-07-01T04:01:32Z</time>
      </trkpt>
      <trkpt lat="31.818246" lon="35.025138">
        <ele>305.0</ele>
        <time>2011-07-01T04:01:35Z</time>
      </trkpt>
      <trkpt lat="31.818219" lon="35.025208">
        <ele>305.0</ele>
        <time>2011-07-01T04:01:38Z</time>
      </trkpt>
      <trkpt lat="31.818177" lon="35.025369">
        <ele>306.0</ele>
        <time>2011-07-01T04:01:45Z</time>
      </trkpt>
      <trkpt lat="31.818166" lon="35.025444">
        <ele>308.0</ele>
        <time>2011-07-01T04:01:48Z</time>
      </trkpt>
      <trkpt lat="31.818144" lon="35.025535">
        <ele>309.0</ele>
        <time>2011-07-01T04:01:52Z</time>
      </trkpt>
      <trkpt lat="31.818128" lon="35.025626">
        <ele>309.0</ele>
        <time>2011-07-01T04:01:56Z</time>
      </trkpt>
      <trkpt lat="31.818101" lon="35.025712">
        <ele>310.0</ele>
        <time>2011-07-01T04:02:00Z</time>
      </trkpt>
      <trkpt lat="31.818085" lon="35.025793">
        <ele>311.0</ele>
        <time>2011-07-01T04:02:03Z</time>
      </trkpt>
      <trkpt lat="31.818064" lon="35.025884">
        <ele>311.0</ele>
        <time>2011-07-01T04:02:07Z</time>
      </trkpt>
      <trkpt lat="31.818058" lon="35.02597">
        <ele>312.0</ele>
        <time>2011-07-01T04:02:11Z</time>
      </trkpt>
      <trkpt lat="31.818021" lon="35.026045">
        <ele>310.0</ele>
        <time>2011-07-01T04:02:15Z</time>
      </trkpt>
      <trkpt lat="31.81794" lon="35.026082">
        <ele>310.0</ele>
        <time>2011-07-01T04:02:19Z</time>
      </trkpt>
      <trkpt lat="31.817865" lon="35.026088">
        <ele>310.0</ele>
        <time>2011-07-01T04:02:22Z</time>
      </trkpt>
      <trkpt lat="31.817731" lon="35.026115">
        <ele>309.0</ele>
        <time>2011-07-01T04:02:29Z</time>
      </trkpt>
      <trkpt lat="31.817678" lon="35.026168">
        <ele>308.0</ele>
        <time>2011-07-01T04:02:32Z</time>
      </trkpt>
      <trkpt lat="31.81764" lon="35.026238">
        <ele>310.0</ele>
        <time>2011-07-01T04:02:35Z</time>
      </trkpt>
      <trkpt lat="31.817613" lon="35.026329">
        <ele>312.0</ele>
        <time>2011-07-01T04:02:39Z</time>
      </trkpt>
      <trkpt lat="31.817592" lon="35.02641">
        <ele>313.0</ele>
        <time>2011-07-01T04:02:43Z</time>
      </trkpt>
      <trkpt lat="31.81757" lon="35.026495">
        <ele>315.0</ele>
        <time>2011-07-01T04:02:47Z</time>
      </trkpt>
      <trkpt lat="31.817538" lon="35.026646">
        <ele>317.0</ele>
        <time>2011-07-01T04:02:56Z</time>
      </trkpt>
      <trkpt lat="31.817549" lon="35.026721">
        <ele>319.0</ele>
        <time>2011-07-01T04:02:59Z</time>
      </trkpt>
      <trkpt lat="31.817544" lon="35.026807">
        <ele>321.0</ele>
        <time>2011-07-01T04:03:03Z</time>
      </trkpt>
      <trkpt lat="31.817501" lon="35.026978">
        <ele>326.0</ele>
        <time>2011-07-01T04:03:11Z</time>
      </trkpt>
      <trkpt lat="31.817501" lon="35.02715">
        <ele>324.0</ele>
        <time>2011-07-01T04:03:19Z</time>
      </trkpt>
      <trkpt lat="31.817517" lon="35.027338">
        <ele>324.0</ele>
        <time>2011-07-01T04:03:25Z</time>
      </trkpt>
      <trkpt lat="31.817522" lon="35.027466">
        <ele>322.0</ele>
        <time>2011-07-01T04:03:30Z</time>
      </trkpt>
      <trkpt lat="31.817517" lon="35.027643">
        <ele>320.0</ele>
        <time>2011-07-01T04:03:35Z</time>
      </trkpt>
      <trkpt lat="31.817522" lon="35.027804">
        <ele>320.0</ele>
        <time>2011-07-01T04:03:41Z</time>
      </trkpt>
      <trkpt lat="31.817517" lon="35.027879">
        <ele>321.0</ele>
        <time>2011-07-01T04:03:44Z</time>
      </trkpt>
      <trkpt lat="31.817522" lon="35.028046">
        <ele>322.0</ele>
        <time>2011-07-01T04:03:49Z</time>
      </trkpt>
      <trkpt lat="31.817522" lon="35.028137">
        <ele>322.0</ele>
        <time>2011-07-01T04:03:52Z</time>
      </trkpt>
      <trkpt lat="31.817517" lon="35.028212">
        <ele>321.0</ele>
        <time>2011-07-01T04:03:55Z</time>
      </trkpt>
      <trkpt lat="31.817517" lon="35.028384">
        <ele>320.0</ele>
        <time>2011-07-01T04:04:01Z</time>
      </trkpt>
      <trkpt lat="31.817484" lon="35.028453">
        <ele>321.0</ele>
        <time>2011-07-01T04:04:04Z</time>
      </trkpt>
      <trkpt lat="31.817468" lon="35.028609">
        <ele>322.0</ele>
        <time>2011-07-01T04:04:09Z</time>
      </trkpt>
      <trkpt lat="31.817458" lon="35.028684">
        <ele>322.0</ele>
        <time>2011-07-01T04:04:12Z</time>
      </trkpt>
      <trkpt lat="31.817458" lon="35.028684">
        <time>2011-07-01T04:04:23Z</time>
      </trkpt>
    </trkseg>
    <trkseg>
      <trkpt lat="31.817458" lon="35.028684">
        <time>2011-07-01T04:04:24Z</time>
      </trkpt>
      <trkpt lat="31.817345" lon="35.029167">
        <ele>318.0</ele>
        <time>2011-07-01T04:04:30Z</time>
      </trkpt>
      <trkpt lat="31.817324" lon="35.029237">
        <ele>319.0</ele>
        <time>2011-07-01T04:04:33Z</time>
      </trkpt>
      <trkpt lat="31.817297" lon="35.029333">
        <ele>318.0</ele>
        <time>2011-07-01T04:04:37Z</time>
      </trkpt>
      <trkpt lat="31.817265" lon="35.029408">
        <ele>317.0</ele>
        <time>2011-07-01T04:04:40Z</time>
      </trkpt>
      <trkpt lat="31.817248" lon="35.02958">
        <ele>317.0</ele>
        <time>2011-07-01T04:04:46Z</time>
      </trkpt>
      <trkpt lat="31.817238" lon="35.029666">
        <ele>319.0</ele>
        <time>2011-07-01T04:04:49Z</time>
      </trkpt>
      <trkpt lat="31.817248" lon="35.029752">
        <ele>320.0</ele>
        <time>2011-07-01T04:04:52Z</time>
      </trkpt>
      <trkpt lat="31.81727" lon="35.029918">
        <ele>320.0</ele>
        <time>2011-07-01T04:04:58Z</time>
      </trkpt>
      <trkpt lat="31.817281" lon="35.030009">
        <ele>320.0</ele>
        <time>2011-07-01T04:05:01Z</time>
      </trkpt>
      <trkpt lat="31.817291" lon="35.030084">
        <ele>321.0</ele>
        <time>2011-07-01T04:05:04Z</time>
      </trkpt>
      <trkpt lat="31.817318" lon="35.030186">
        <ele>321.0</ele>
        <time>2011-07-01T04:05:08Z</time>
      </trkpt>
      <trkpt lat="31.817372" lon="35.030336">
        <ele>323.0</ele>
        <time>2011-07-01T04:05:14Z</time>
      </trkpt>
      <trkpt lat="31.817399" lon="35.030492">
        <ele>324.0</ele>
        <time>2011-07-01T04:05:20Z</time>
      </trkpt>
      <trkpt lat="31.81742" lon="35.030572">
        <ele>324.0</ele>
        <time>2011-07-01T04:05:23Z</time>
      </trkpt>
      <trkpt lat="31.817447" lon="35.030658">
        <ele>324.0</ele>
        <time>2011-07-01T04:05:27Z</time>
      </trkpt>
      <trkpt lat="31.817458" lon="35.030733">
        <ele>329.0</ele>
        <time>2011-07-01T04:05:32Z</time>
      </trkpt>
      <trkpt lat="31.817495" lon="35.030803">
        <ele>328.0</ele>
        <time>2011-07-01T04:05:36Z</time>
      </trkpt>
      <trkpt lat="31.817495" lon="35.030803">
        <time>2011-07-01T04:05:47Z</time>
      </trkpt>
    </trkseg>
    <trkseg>
      <trkpt lat="31.817495" lon="35.030803">
        <time>2011-07-01T04:07:06Z</time>
      </trkpt>
      <trkpt lat="31.817495" lon="35.030803">
        <time>2011-07-01T04:07:18Z</time>
      </trkpt>
    </trkseg>
    <trkseg>
      <trkpt lat="31.817495" lon="35.030803">
        <time>2011-07-01T04:08:06Z</time>
      </trkpt>
      <trkpt lat="31.817495" lon="35.030803">
        <time>2011-07-01T04:08:20Z</time>
      </trkpt>
    </trkseg>
    <trkseg>
      <trkpt lat="31.817495" lon="35.030803">
        <time>2011-07-01T04:08:55Z</time>
      </trkpt>
      <trkpt lat="31.817495" lon="35.030803">
        <time>2011-07-01T04:09:30Z</time>
      </trkpt>
    </trkseg>
    <trkseg>
      <trkpt lat="31.817495" lon="35.030803">
        <time>2011-07-01T04:09:45Z</time>
      </trkpt>
      <trkpt lat="31.817495" lon="35.030803">
        <time>2011-07-01T04:09:56Z</time>
      </trkpt>
    </trkseg>
    <trkseg>
      <trkpt lat="31.817495" lon="35.030803">
        <time>2011-07-01T04:11:59Z</time>
      </trkpt>
      <trkpt lat="31.817645" lon="35.031082">
        <ele>332.0</ele>
        <time>2011-07-01T04:12:05Z</time>
      </trkpt>
      <trkpt lat="31.817694" lon="35.031163">
        <ele>331.0</ele>
        <time>2011-07-01T04:12:09Z</time>
      </trkpt>
      <trkpt lat="31.817753" lon="35.031302">
        <ele>330.0</ele>
        <time>2011-07-01T04:12:15Z</time>
      </trkpt>
      <trkpt lat="31.817822" lon="35.031452">
        <ele>328.0</ele>
        <time>2011-07-01T04:12:20Z</time>
      </trkpt>
      <trkpt lat="31.817849" lon="35.031549">
        <ele>329.0</ele>
        <time>2011-07-01T04:12:23Z</time>
      </trkpt>
      <trkpt lat="31.817898" lon="35.03172">
        <ele>329.0</ele>
        <time>2011-07-01T04:12:29Z</time>
      </trkpt>
      <trkpt lat="31.817924" lon="35.03179">
        <ele>329.0</ele>
        <time>2011-07-01T04:12:31Z</time>
      </trkpt>
      <trkpt lat="31.818032" lon="35.032042">
        <ele>328.0</ele>
        <time>2011-07-01T04:12:41Z</time>
      </trkpt>
      <trkpt lat="31.818053" lon="35.032112">
        <ele>328.0</ele>
        <time>2011-07-01T04:12:44Z</time>
      </trkpt>
      <trkpt lat="31.818069" lon="35.032187">
        <ele>328.0</ele>
        <time>2011-07-01T04:12:47Z</time>
      </trkpt>
      <trkpt lat="31.818064" lon="35.032273">
        <ele>330.0</ele>
        <time>2011-07-01T04:12:51Z</time>
      </trkpt>
      <trkpt lat="31.818107" lon="35.032461">
        <ele>330.0</ele>
        <time>2011-07-01T04:12:57Z</time>
      </trkpt>
      <trkpt lat="31.818128" lon="35.032552">
        <ele>330.0</ele>
        <time>2011-07-01T04:13:00Z</time>
      </trkpt>
      <trkpt lat="31.818134" lon="35.032627">
        <ele>331.0</ele>
        <time>2011-07-01T04:13:04Z</time>
      </trkpt>
      <trkpt lat="31.818166" lon="35.032691">
        <ele>331.0</ele>
        <time>2011-07-01T04:13:07Z</time>
      </trkpt>
      <trkpt lat="31.818203" lon="35.032761">
        <ele>331.0</ele>
        <time>2011-07-01T04:13:10Z</time>
      </trkpt>
      <trkpt lat="31.818252" lon="35.032906">
        <ele>330.0</ele>
        <time>2011-07-01T04:13:17Z</time>
      </trkpt>
      <trkpt lat="31.818289" lon="35.032992">
        <ele>331.0</ele>
        <time>2011-07-01T04:13:21Z</time>
      </trkpt>
      <trkpt lat="31.818321" lon="35.033056">
        <ele>331.0</ele>
        <time>2011-07-01T04:13:25Z</time>
      </trkpt>
      <trkpt lat="31.81837" lon="35.033126">
        <ele>332.0</ele>
        <time>2011-07-01T04:13:29Z</time>
      </trkpt>
      <trkpt lat="31.818396" lon="35.033201">
        <ele>332.0</ele>
        <time>2011-07-01T04:13:33Z</time>
      </trkpt>
      <trkpt lat="31.818439" lon="35.03326">
        <ele>331.0</ele>
        <time>2011-07-01T04:13:36Z</time>
      </trkpt>
      <trkpt lat="31.818477" lon="35.03333">
        <ele>331.0</ele>
        <time>2011-07-01T04:13:41Z</time>
      </trkpt>
      <trkpt lat="31.818541" lon="35.033399">
        <ele>331.0</ele>
        <time>2011-07-01T04:13:45Z</time>
      </trkpt>
      <trkpt lat="31.818579" lon="35.033464">
        <ele>332.0</ele>
        <time>2011-07-01T04:13:47Z</time>
      </trkpt>
      <trkpt lat="31.81859" lon="35.033544">
        <ele>335.0</ele>
        <time>2011-07-01T04:13:50Z</time>
      </trkpt>
      <trkpt lat="31.818606" lon="35.033641">
        <ele>333.0</ele>
        <time>2011-07-01T04:13:54Z</time>
      </trkpt>
      <trkpt lat="31.818622" lon="35.033823">
        <ele>334.0</ele>
        <time>2011-07-01T04:14:02Z</time>
      </trkpt>
      <trkpt lat="31.818649" lon="35.033909">
        <ele>334.0</ele>
        <time>2011-07-01T04:14:06Z</time>
      </trkpt>
      <trkpt lat="31.818691" lon="35.034065">
        <ele>334.0</ele>
        <time>2011-07-01T04:14:13Z</time>
      </trkpt>
      <trkpt lat="31.81874" lon="35.03415">
        <ele>334.0</ele>
        <time>2011-07-01T04:14:17Z</time>
      </trkpt>
      <trkpt lat="31.818751" lon="35.034231">
        <ele>333.0</ele>
        <time>2011-07-01T04:14:21Z</time>
      </trkpt>
      <trkpt lat="31.818751" lon="35.034403">
        <ele>336.0</ele>
        <time>2011-07-01T04:14:31Z</time>
      </trkpt>
      <trkpt lat="31.818767" lon="35.034494">
        <ele>336.0</ele>
        <time>2011-07-01T04:14:36Z</time>
      </trkpt>
      <trkpt lat="31.818788" lon="35.034569">
        <ele>338.0</ele>
        <time>2011-07-01T04:14:39Z</time>
      </trkpt>
      <trkpt lat="31.818799" lon="35.034644">
        <ele>336.0</ele>
        <time>2011-07-01T04:14:42Z</time>
      </trkpt>
      <trkpt lat="31.81882" lon="35.034724">
        <ele>333.0</ele>
        <time>2011-07-01T04:14:47Z</time>
      </trkpt>
      <trkpt lat="31.818708" lon="35.034918">
        <ele>337.0</ele>
        <time>2011-07-01T04:15:01Z</time>
      </trkpt>
      <trkpt lat="31.818675" lon="35.035009">
        <ele>340.0</ele>
        <time>2011-07-01T04:15:05Z</time>
      </trkpt>
      <trkpt lat="31.8186" lon="35.035148">
        <ele>336.0</ele>
        <time>2011-07-01T04:15:12Z</time>
      </trkpt>
      <trkpt lat="31.818584" lon="35.03532">
        <ele>334.0</ele>
        <time>2011-07-01T04:15:20Z</time>
      </trkpt>
      <trkpt lat="31.818563" lon="35.0354">
        <ele>334.0</ele>
        <time>2011-07-01T04:15:25Z</time>
      </trkpt>
      <trkpt lat="31.818541" lon="35.035475">
        <ele>334.0</ele>
        <time>2011-07-01T04:15:29Z</time>
      </trkpt>
      <trkpt lat="31.818504" lon="35.035551">
        <ele>335.0</ele>
        <time>2011-07-01T04:15:32Z</time>
      </trkpt>
      <trkpt lat="31.818493" lon="35.035631">
        <ele>334.0</ele>
        <time>2011-07-01T04:15:35Z</time>
      </trkpt>
      <trkpt lat="31.818493" lon="35.035712">
        <ele>335.0</ele>
        <time>2011-07-01T04:15:39Z</time>
      </trkpt>
      <trkpt lat="31.818493" lon="35.035862">
        <ele>336.0</ele>
        <time>2011-07-01T04:15:49Z</time>
      </trkpt>
      <trkpt lat="31.818504" lon="35.035953">
        <ele>335.0</ele>
        <time>2011-07-01T04:15:52Z</time>
      </trkpt>
      <trkpt lat="31.818504" lon="35.036033">
        <ele>334.0</ele>
        <time>2011-07-01T04:15:55Z</time>
      </trkpt>
      <trkpt lat="31.818504" lon="35.036189">
        <ele>338.0</ele>
        <time>2011-07-01T04:16:01Z</time>
      </trkpt>
      <trkpt lat="31.818488" lon="35.03628">
        <ele>339.0</ele>
        <time>2011-07-01T04:16:05Z</time>
      </trkpt>
      <trkpt lat="31.818472" lon="35.036382">
        <ele>340.0</ele>
        <time>2011-07-01T04:16:09Z</time>
      </trkpt>
      <trkpt lat="31.818472" lon="35.036468">
        <ele>339.0</ele>
        <time>2011-07-01T04:16:13Z</time>
      </trkpt>
      <trkpt lat="31.818423" lon="35.036543">
        <ele>338.0</ele>
        <time>2011-07-01T04:16:17Z</time>
      </trkpt>
      <trkpt lat="31.81838" lon="35.036618">
        <ele>338.0</ele>
        <time>2011-07-01T04:16:21Z</time>
      </trkpt>
      <trkpt lat="31.818332" lon="35.036677">
        <ele>341.0</ele>
        <time>2011-07-01T04:16:24Z</time>
      </trkpt>
      <trkpt lat="31.818316" lon="35.036768">
        <ele>341.0</ele>
        <time>2011-07-01T04:16:28Z</time>
      </trkpt>
      <trkpt lat="31.818295" lon="35.03686">
        <ele>340.0</ele>
        <time>2011-07-01T04:16:32Z</time>
      </trkpt>
      <trkpt lat="31.818262" lon="35.03694">
        <ele>341.0</ele>
        <time>2011-07-01T04:16:36Z</time>
      </trkpt>
      <trkpt lat="31.81823" lon="35.037015">
        <ele>341.0</ele>
        <time>2011-07-01T04:16:40Z</time>
      </trkpt>
      <trkpt lat="31.818209" lon="35.03709">
        <ele>340.0</ele>
        <time>2011-07-01T04:16:45Z</time>
      </trkpt>
      <trkpt lat="31.818187" lon="35.037181">
        <ele>340.0</ele>
        <time>2011-07-01T04:16:48Z</time>
      </trkpt>
      <trkpt lat="31.818144" lon="35.037256">
        <ele>340.0</ele>
        <time>2011-07-01T04:16:52Z</time>
      </trkpt>
      <trkpt lat="31.818107" lon="35.037321">
        <ele>339.0</ele>
        <time>2011-07-01T04:16:56Z</time>
      </trkpt>
      <trkpt lat="31.818085" lon="35.037401">
        <ele>341.0</ele>
        <time>2011-07-01T04:17:00Z</time>
      </trkpt>
      <trkpt lat="31.818037" lon="35.03746">
        <ele>344.0</ele>
        <time>2011-07-01T04:17:04Z</time>
      </trkpt>
      <trkpt lat="31.817935" lon="35.037562">
        <ele>349.0</ele>
        <time>2011-07-01T04:17:13Z</time>
      </trkpt>
      <trkpt lat="31.817881" lon="35.037621">
        <ele>350.0</ele>
        <time>2011-07-01T04:17:17Z</time>
      </trkpt>
      <trkpt lat="31.817822" lon="35.037675">
        <ele>351.0</ele>
        <time>2011-07-01T04:17:21Z</time>
      </trkpt>
      <trkpt lat="31.817747" lon="35.037723">
        <ele>350.0</ele>
        <time>2011-07-01T04:17:25Z</time>
      </trkpt>
      <trkpt lat="31.817629" lon="35.037814">
        <ele>350.0</ele>
        <time>2011-07-01T04:17:33Z</time>
      </trkpt>
      <trkpt lat="31.817484" lon="35.037884">
        <ele>352.0</ele>
        <time>2011-07-01T04:17:41Z</time>
      </trkpt>
      <trkpt lat="31.817431" lon="35.037927">
        <ele>353.0</ele>
        <time>2011-07-01T04:17:45Z</time>
      </trkpt>
      <trkpt lat="31.817399" lon="35.038007">
        <ele>355.0</ele>
        <time>2011-07-01T04:17:49Z</time>
      </trkpt>
      <trkpt lat="31.817356" lon="35.038083">
        <ele>354.0</ele>
        <time>2011-07-01T04:17:52Z</time>
      </trkpt>
      <trkpt lat="31.817307" lon="35.038147">
        <ele>353.0</ele>
        <time>2011-07-01T04:17:56Z</time>
      </trkpt>
      <trkpt lat="31.817222" lon="35.038297">
        <ele>357.0</ele>
        <time>2011-07-01T04:18:04Z</time>
      </trkpt>
      <trkpt lat="31.817173" lon="35.038383">
        <ele>357.0</ele>
        <time>2011-07-01T04:18:08Z</time>
      </trkpt>
      <trkpt lat="31.817147" lon="35.038453">
        <ele>358.0</ele>
        <time>2011-07-01T04:18:11Z</time>
      </trkpt>
      <trkpt lat="31.81712" lon="35.038539">
        <ele>357.0</ele>
        <time>2011-07-01T04:18:14Z</time>
      </trkpt>
      <trkpt lat="31.817082" lon="35.0387">
        <ele>359.0</ele>
        <time>2011-07-01T04:18:21Z</time>
      </trkpt>
      <trkpt lat="31.81705" lon="35.038769">
        <ele>360.0</ele>
        <time>2011-07-01T04:18:24Z</time>
      </trkpt>
      <trkpt lat="31.817012" lon="35.038844">
        <ele>360.0</ele>
        <time>2011-07-01T04:18:27Z</time>
      </trkpt>
      <trkpt lat="31.816943" lon="35.039005">
        <ele>359.0</ele>
        <time>2011-07-01T04:18:35Z</time>
      </trkpt>
      <trkpt lat="31.816905" lon="35.039086">
        <ele>358.0</ele>
        <time>2011-07-01T04:18:39Z</time>
      </trkpt>
      <trkpt lat="31.816884" lon="35.039177">
        <ele>358.0</ele>
        <time>2011-07-01T04:18:43Z</time>
      </trkpt>
      <trkpt lat="31.816857" lon="35.039263">
        <ele>358.0</ele>
        <time>2011-07-01T04:18:47Z</time>
      </trkpt>
      <trkpt lat="31.816846" lon="35.039343">
        <ele>358.0</ele>
        <time>2011-07-01T04:18:51Z</time>
      </trkpt>
      <trkpt lat="31.816809" lon="35.039424">
        <ele>357.0</ele>
        <time>2011-07-01T04:18:55Z</time>
      </trkpt>
      <trkpt lat="31.816792" lon="35.039504">
        <ele>358.0</ele>
        <time>2011-07-01T04:18:59Z</time>
      </trkpt>
      <trkpt lat="31.81676" lon="35.039574">
        <ele>359.0</ele>
        <time>2011-07-01T04:19:03Z</time>
      </trkpt>
      <trkpt lat="31.816739" lon="35.039644">
        <ele>359.0</ele>
        <time>2011-07-01T04:19:07Z</time>
      </trkpt>
      <trkpt lat="31.816739" lon="35.039719">
        <ele>359.0</ele>
        <time>2011-07-01T04:19:10Z</time>
      </trkpt>
      <trkpt lat="31.816707" lon="35.039896">
        <ele>359.0</ele>
        <time>2011-07-01T04:19:18Z</time>
      </trkpt>
      <trkpt lat="31.816669" lon="35.039966">
        <ele>360.0</ele>
        <time>2011-07-01T04:19:23Z</time>
      </trkpt>
      <trkpt lat="31.81661" lon="35.040132">
        <ele>361.0</ele>
        <time>2011-07-01T04:19:33Z</time>
      </trkpt>
      <trkpt lat="31.816578" lon="35.040207">
        <ele>361.0</ele>
        <time>2011-07-01T04:19:38Z</time>
      </trkpt>
      <trkpt lat="31.816556" lon="35.040282">
        <ele>362.0</ele>
        <time>2011-07-01T04:19:43Z</time>
      </trkpt>
      <trkpt lat="31.816524" lon="35.040352">
        <ele>362.0</ele>
        <time>2011-07-01T04:19:48Z</time>
      </trkpt>
      <trkpt lat="31.816514" lon="35.040432">
        <ele>363.0</ele>
        <time>2011-07-01T04:19:53Z</time>
      </trkpt>
      <trkpt lat="31.816487" lon="35.040582">
        <ele>364.0</ele>
        <time>2011-07-01T04:20:02Z</time>
      </trkpt>
      <trkpt lat="31.816487" lon="35.040658">
        <ele>366.0</ele>
        <time>2011-07-01T04:20:07Z</time>
      </trkpt>
      <trkpt lat="31.816449" lon="35.040727">
        <ele>367.0</ele>
        <time>2011-07-01T04:20:12Z</time>
      </trkpt>
      <trkpt lat="31.816412" lon="35.040797">
        <ele>369.0</ele>
        <time>2011-07-01T04:20:17Z</time>
      </trkpt>
      <trkpt lat="31.816363" lon="35.040936">
        <ele>369.0</ele>
        <time>2011-07-01T04:20:27Z</time>
      </trkpt>
      <trkpt lat="31.816337" lon="35.041012">
        <ele>369.0</ele>
        <time>2011-07-01T04:20:32Z</time>
      </trkpt>
      <trkpt lat="31.816337" lon="35.041087">
        <ele>371.0</ele>
        <time>2011-07-01T04:20:37Z</time>
      </trkpt>
      <trkpt lat="31.816337" lon="35.041087">
        <time>2011-07-01T04:20:49Z</time>
      </trkpt>
    </trkseg>
    <trkseg>
      <trkpt lat="31.816337" lon="35.041087">
        <time>2011-07-01T04:20:49Z</time>
      </trkpt>
      <trkpt lat="31.816224" lon="35.041301">
        <ele>371.0</ele>
        <time>2011-07-01T04:20:54Z</time>
      </trkpt>
      <trkpt lat="31.816192" lon="35.041382">
        <ele>370.0</ele>
        <time>2011-07-01T04:21:00Z</time>
      </trkpt>
      <trkpt lat="31.816202" lon="35.041457">
        <ele>370.0</ele>
        <time>2011-07-01T04:21:05Z</time>
      </trkpt>
      <trkpt lat="31.816176" lon="35.041537">
        <ele>371.0</ele>
        <time>2011-07-01T04:21:11Z</time>
      </trkpt>
      <trkpt lat="31.81617" lon="35.041623">
        <ele>374.0</ele>
        <time>2011-07-01T04:21:16Z</time>
      </trkpt>
      <trkpt lat="31.81617" lon="35.041623">
        <time>2011-07-01T04:21:28Z</time>
      </trkpt>
    </trkseg>
    <trkseg>
      <trkpt lat="31.81617" lon="35.041623">
        <time>2011-07-01T04:21:28Z</time>
      </trkpt>
      <trkpt lat="31.816143" lon="35.041854">
        <ele>375.0</ele>
        <time>2011-07-01T04:21:34Z</time>
      </trkpt>
      <trkpt lat="31.816143" lon="35.041854">
        <time>2011-07-01T04:21:46Z</time>
      </trkpt>
    </trkseg>
    <trkseg>
      <trkpt lat="31.816143" lon="35.041854">
        <time>2011-07-01T04:21:46Z</time>
      </trkpt>
      <trkpt lat="31.816106" lon="35.042095">
        <ele>381.0</ele>
        <time>2011-07-01T04:21:51Z</time>
      </trkpt>
      <trkpt lat="31.816084" lon="35.042165">
        <ele>381.0</ele>
        <time>2011-07-01T04:21:55Z</time>
      </trkpt>
      <trkpt lat="31.816047" lon="35.04224">
        <ele>382.0</ele>
        <time>2011-07-01T04:22:01Z</time>
      </trkpt>
      <trkpt lat="31.816031" lon="35.042315">
        <ele>382.0</ele>
        <time>2011-07-01T04:22:07Z</time>
      </trkpt>
      <trkpt lat="31.815988" lon="35.042374">
        <ele>384.0</ele>
        <time>2011-07-01T04:22:12Z</time>
      </trkpt>
      <trkpt lat="31.815977" lon="35.042455">
        <ele>386.0</ele>
        <time>2011-07-01T04:22:17Z</time>
      </trkpt>
      <trkpt lat="31.815945" lon="35.04253">
        <ele>386.0</ele>
        <time>2011-07-01T04:22:22Z</time>
      </trkpt>
      <trkpt lat="31.815897" lon="35.042589">
        <ele>385.0</ele>
        <time>2011-07-01T04:22:27Z</time>
      </trkpt>
      <trkpt lat="31.815854" lon="35.042648">
        <ele>390.0</ele>
        <time>2011-07-01T04:22:34Z</time>
      </trkpt>
      <trkpt lat="31.815795" lon="35.04268">
        <ele>391.0</ele>
        <time>2011-07-01T04:22:41Z</time>
      </trkpt>
      <trkpt lat="31.815795" lon="35.04268">
        <time>2011-07-01T04:22:53Z</time>
      </trkpt>
    </trkseg>
    <trkseg>
      <trkpt lat="31.815795" lon="35.04268">
        <time>2011-07-01T04:23:46Z</time>
      </trkpt>
      <trkpt lat="31.815795" lon="35.04268">
        <time>2011-07-01T04:23:58Z</time>
      </trkpt>
    </trkseg>
    <trkseg>
      <trkpt lat="31.815795" lon="35.04268">
        <time>2011-07-01T04:30:34Z</time>
      </trkpt>
      <trkpt lat="31.815671" lon="35.042884">
        <ele>389.0</ele>
        <time>2011-07-01T04:30:38Z</time>
      </trkpt>
      <trkpt lat="31.815623" lon="35.042959">
        <ele>389.0</ele>
        <time>2011-07-01T04:30:43Z</time>
      </trkpt>
      <trkpt lat="31.815591" lon="35.043023">
        <ele>389.0</ele>
        <time>2011-07-01T04:30:47Z</time>
      </trkpt>
      <trkpt lat="31.815548" lon="35.043104">
        <ele>391.0</ele>
        <time>2011-07-01T04:30:52Z</time>
      </trkpt>
      <trkpt lat="31.8155" lon="35.043291">
        <ele>392.0</ele>
        <time>2011-07-01T04:30:59Z</time>
      </trkpt>
      <trkpt lat="31.815516" lon="35.043447">
        <ele>392.0</ele>
        <time>2011-07-01T04:31:05Z</time>
      </trkpt>
      <trkpt lat="31.815526" lon="35.043624">
        <ele>392.0</ele>
        <time>2011-07-01T04:31:11Z</time>
      </trkpt>
      <trkpt lat="31.815543" lon="35.043705">
        <ele>393.0</ele>
        <time>2011-07-01T04:31:14Z</time>
      </trkpt>
      <trkpt lat="31.815559" lon="35.04379">
        <ele>391.0</ele>
        <time>2011-07-01T04:31:18Z</time>
      </trkpt>
      <trkpt lat="31.81558" lon="35.043882">
        <ele>391.0</ele>
        <time>2011-07-01T04:31:22Z</time>
      </trkpt>
      <trkpt lat="31.815639" lon="35.043935">
        <ele>388.0</ele>
        <time>2011-07-01T04:31:25Z</time>
      </trkpt>
      <trkpt lat="31.815661" lon="35.044005">
        <ele>388.0</ele>
        <time>2011-07-01T04:31:28Z</time>
      </trkpt>
      <trkpt lat="31.815671" lon="35.044096">
        <ele>389.0</ele>
        <time>2011-07-01T04:31:32Z</time>
      </trkpt>
      <trkpt lat="31.815666" lon="35.044182">
        <ele>389.0</ele>
        <time>2011-07-01T04:31:36Z</time>
      </trkpt>
      <trkpt lat="31.815666" lon="35.044273">
        <ele>391.0</ele>
        <time>2011-07-01T04:31:40Z</time>
      </trkpt>
      <trkpt lat="31.815661" lon="35.044364">
        <ele>392.0</ele>
        <time>2011-07-01T04:31:44Z</time>
      </trkpt>
      <trkpt lat="31.815655" lon="35.044515">
        <ele>392.0</ele>
        <time>2011-07-01T04:31:52Z</time>
      </trkpt>
      <trkpt lat="31.81565" lon="35.044606">
        <ele>393.0</ele>
        <time>2011-07-01T04:31:57Z</time>
      </trkpt>
      <trkpt lat="31.81565" lon="35.044692">
        <ele>394.0</ele>
        <time>2011-07-01T04:32:02Z</time>
      </trkpt>
      <trkpt lat="31.815655" lon="35.044767">
        <ele>396.0</ele>
        <time>2011-07-01T04:32:06Z</time>
      </trkpt>
      <trkpt lat="31.815666" lon="35.044858">
        <ele>396.0</ele>
        <time>2011-07-01T04:32:11Z</time>
      </trkpt>
      <trkpt lat="31.815671" lon="35.044933">
        <ele>397.0</ele>
        <time>2011-07-01T04:32:15Z</time>
      </trkpt>
      <trkpt lat="31.815704" lon="35.045003">
        <ele>396.0</ele>
        <time>2011-07-01T04:32:19Z</time>
      </trkpt>
      <trkpt lat="31.815693" lon="35.045089">
        <ele>396.0</ele>
        <time>2011-07-01T04:32:24Z</time>
      </trkpt>
      <trkpt lat="31.81573" lon="35.045169">
        <ele>394.0</ele>
        <time>2011-07-01T04:32:28Z</time>
      </trkpt>
      <trkpt lat="31.815752" lon="35.045244">
        <ele>393.0</ele>
        <time>2011-07-01T04:32:32Z</time>
      </trkpt>
      <trkpt lat="31.815768" lon="35.045325">
        <ele>394.0</ele>
        <time>2011-07-01T04:32:37Z</time>
      </trkpt>
      <trkpt lat="31.815779" lon="35.0454">
        <ele>393.0</ele>
        <time>2011-07-01T04:32:41Z</time>
      </trkpt>
      <trkpt lat="31.815773" lon="35.04548">
        <ele>395.0</ele>
        <time>2011-07-01T04:32:45Z</time>
      </trkpt>
      <trkpt lat="31.815757" lon="35.045566">
        <ele>400.0</ele>
        <time>2011-07-01T04:32:51Z</time>
      </trkpt>
      <trkpt lat="31.815736" lon="35.045641">
        <ele>398.0</ele>
        <time>2011-07-01T04:32:55Z</time>
      </trkpt>
      <trkpt lat="31.815704" lon="35.045738">
        <ele>398.0</ele>
        <time>2011-07-01T04:33:00Z</time>
      </trkpt>
      <trkpt lat="31.815671" lon="35.045807">
        <ele>399.0</ele>
        <time>2011-07-01T04:33:04Z</time>
      </trkpt>
      <trkpt lat="31.815639" lon="35.045888">
        <ele>400.0</ele>
        <time>2011-07-01T04:33:08Z</time>
      </trkpt>
      <trkpt lat="31.815612" lon="35.045968">
        <ele>402.0</ele>
        <time>2011-07-01T04:33:12Z</time>
      </trkpt>
      <trkpt lat="31.815596" lon="35.046059">
        <ele>402.0</ele>
        <time>2011-07-01T04:33:16Z</time>
      </trkpt>
      <trkpt lat="31.815575" lon="35.046145">
        <ele>404.0</ele>
        <time>2011-07-01T04:33:20Z</time>
      </trkpt>
      <trkpt lat="31.815559" lon="35.046237">
        <ele>403.0</ele>
        <time>2011-07-01T04:33:24Z</time>
      </trkpt>
      <trkpt lat="31.815526" lon="35.046312">
        <ele>405.0</ele>
        <time>2011-07-01T04:33:28Z</time>
      </trkpt>
      <trkpt lat="31.815505" lon="35.046403">
        <ele>406.0</ele>
        <time>2011-07-01T04:33:32Z</time>
      </trkpt>
      <trkpt lat="31.815467" lon="35.046473">
        <ele>408.0</ele>
        <time>2011-07-01T04:33:36Z</time>
      </trkpt>
      <trkpt lat="31.815435" lon="35.046542">
        <ele>411.0</ele>
        <time>2011-07-01T04:33:40Z</time>
      </trkpt>
      <trkpt lat="31.815398" lon="35.046623">
        <ele>410.0</ele>
        <time>2011-07-01T04:33:44Z</time>
      </trkpt>
      <trkpt lat="31.815387" lon="35.046709">
        <ele>402.0</ele>
        <time>2011-07-01T04:33:48Z</time>
      </trkpt>
      <trkpt lat="31.815344" lon="35.046784">
        <ele>404.0</ele>
        <time>2011-07-01T04:33:52Z</time>
      </trkpt>
      <trkpt lat="31.815285" lon="35.046853">
        <ele>404.0</ele>
        <time>2011-07-01T04:33:56Z</time>
      </trkpt>
      <trkpt lat="31.815231" lon="35.046912">
        <ele>403.0</ele>
        <time>2011-07-01T04:34:00Z</time>
      </trkpt>
      <trkpt lat="31.815162" lon="35.046955">
        <ele>403.0</ele>
        <time>2011-07-01T04:34:04Z</time>
      </trkpt>
      <trkpt lat="31.815108" lon="35.047014">
        <ele>403.0</ele>
        <time>2011-07-01T04:34:08Z</time>
      </trkpt>
      <trkpt lat="31.815038" lon="35.047047">
        <ele>404.0</ele>
        <time>2011-07-01T04:34:12Z</time>
      </trkpt>
      <trkpt lat="31.814985" lon="35.047095">
        <ele>404.0</ele>
        <time>2011-07-01T04:34:16Z</time>
      </trkpt>
      <trkpt lat="31.814926" lon="35.047143">
        <ele>399.0</ele>
        <time>2011-07-01T04:34:20Z</time>
      </trkpt>
      <trkpt lat="31.814856" lon="35.047181">
        <ele>401.0</ele>
        <time>2011-07-01T04:34:24Z</time>
      </trkpt>
      <trkpt lat="31.814781" lon="35.047207">
        <ele>404.0</ele>
        <time>2011-07-01T04:34:28Z</time>
      </trkpt>
      <trkpt lat="31.814711" lon="35.04725">
        <ele>406.0</ele>
        <time>2011-07-01T04:34:32Z</time>
      </trkpt>
      <trkpt lat="31.814663" lon="35.047309">
        <ele>406.0</ele>
        <time>2011-07-01T04:34:36Z</time>
      </trkpt>
      <trkpt lat="31.814615" lon="35.047368">
        <ele>405.0</ele>
        <time>2011-07-01T04:34:40Z</time>
      </trkpt>
      <trkpt lat="31.814572" lon="35.047427">
        <ele>404.0</ele>
        <time>2011-07-01T04:34:44Z</time>
      </trkpt>
      <trkpt lat="31.814518" lon="35.047476">
        <ele>404.0</ele>
        <time>2011-07-01T04:34:48Z</time>
      </trkpt>
      <trkpt lat="31.814475" lon="35.047535">
        <ele>403.0</ele>
        <time>2011-07-01T04:34:53Z</time>
      </trkpt>
      <trkpt lat="31.814427" lon="35.047599">
        <ele>403.0</ele>
        <time>2011-07-01T04:34:58Z</time>
      </trkpt>
      <trkpt lat="31.814325" lon="35.047712">
        <ele>403.0</ele>
        <time>2011-07-01T04:35:07Z</time>
      </trkpt>
      <trkpt lat="31.814266" lon="35.04776">
        <ele>404.0</ele>
        <time>2011-07-01T04:35:12Z</time>
      </trkpt>
      <trkpt lat="31.814218" lon="35.047814">
        <ele>407.0</ele>
        <time>2011-07-01T04:35:16Z</time>
      </trkpt>
      <trkpt lat="31.814169" lon="35.047883">
        <ele>407.0</ele>
        <time>2011-07-01T04:35:21Z</time>
      </trkpt>
      <trkpt lat="31.814116" lon="35.047926">
        <ele>411.0</ele>
        <time>2011-07-01T04:35:25Z</time>
      </trkpt>
      <trkpt lat="31.814067" lon="35.047985">
        <ele>410.0</ele>
        <time>2011-07-01T04:35:29Z</time>
      </trkpt>
      <trkpt lat="31.814003" lon="35.048066">
        <ele>409.0</ele>
        <time>2011-07-01T04:35:35Z</time>
      </trkpt>
      <trkpt lat="31.813955" lon="35.048125">
        <ele>409.0</ele>
        <time>2011-07-01T04:35:40Z</time>
      </trkpt>
      <trkpt lat="31.813912" lon="35.048189">
        <ele>408.0</ele>
        <time>2011-07-01T04:35:45Z</time>
      </trkpt>
      <trkpt lat="31.813858" lon="35.048254">
        <ele>407.0</ele>
        <time>2011-07-01T04:35:50Z</time>
      </trkpt>
      <trkpt lat="31.81381" lon="35.048313">
        <ele>406.0</ele>
        <time>2011-07-01T04:35:55Z</time>
      </trkpt>
      <trkpt lat="31.813756" lon="35.048361">
        <ele>406.0</ele>
        <time>2011-07-01T04:36:00Z</time>
      </trkpt>
      <trkpt lat="31.813708" lon="35.04842">
        <ele>407.0</ele>
        <time>2011-07-01T04:36:05Z</time>
      </trkpt>
      <trkpt lat="31.813654" lon="35.048468">
        <ele>407.0</ele>
        <time>2011-07-01T04:36:10Z</time>
      </trkpt>
      <trkpt lat="31.813585" lon="35.048527">
        <ele>408.0</ele>
        <time>2011-07-01T04:36:16Z</time>
      </trkpt>
      <trkpt lat="31.813526" lon="35.048559">
        <ele>408.0</ele>
        <time>2011-07-01T04:36:20Z</time>
      </trkpt>
      <trkpt lat="31.813472" lon="35.048613">
        <ele>411.0</ele>
        <time>2011-07-01T04:36:24Z</time>
      </trkpt>
      <trkpt lat="31.813418" lon="35.048677">
        <ele>411.0</ele>
        <time>2011-07-01T04:36:29Z</time>
      </trkpt>
      <trkpt lat="31.81337" lon="35.048736">
        <ele>413.0</ele>
        <time>2011-07-01T04:36:34Z</time>
      </trkpt>
      <trkpt lat="31.813322" lon="35.04879">
        <ele>415.0</ele>
        <time>2011-07-01T04:36:38Z</time>
      </trkpt>
      <trkpt lat="31.813273" lon="35.048849">
        <ele>418.0</ele>
        <time>2011-07-01T04:36:43Z</time>
      </trkpt>
      <trkpt lat="31.81322" lon="35.048892">
        <ele>418.0</ele>
        <time>2011-07-01T04:36:49Z</time>
      </trkpt>
      <trkpt lat="31.813177" lon="35.048956">
        <ele>418.0</ele>
        <time>2011-07-01T04:36:55Z</time>
      </trkpt>
      <trkpt lat="31.813123" lon="35.049026">
        <ele>420.0</ele>
        <time>2011-07-01T04:36:59Z</time>
      </trkpt>
      <trkpt lat="31.81308" lon="35.049085">
        <ele>421.0</ele>
        <time>2011-07-01T04:37:03Z</time>
      </trkpt>
      <trkpt lat="31.813053" lon="35.049155">
        <ele>423.0</ele>
        <time>2011-07-01T04:37:07Z</time>
      </trkpt>
      <trkpt lat="31.813016" lon="35.049219">
        <ele>424.0</ele>
        <time>2011-07-01T04:37:11Z</time>
      </trkpt>
      <trkpt lat="31.812994" lon="35.0493">
        <ele>424.0</ele>
        <time>2011-07-01T04:37:15Z</time>
      </trkpt>
      <trkpt lat="31.812957" lon="35.049375">
        <ele>424.0</ele>
        <time>2011-07-01T04:37:19Z</time>
      </trkpt>
      <trkpt lat="31.812925" lon="35.049444">
        <ele>426.0</ele>
        <time>2011-07-01T04:37:23Z</time>
      </trkpt>
      <trkpt lat="31.812898" lon="35.04952">
        <ele>425.0</ele>
        <time>2011-07-01T04:37:27Z</time>
      </trkpt>
      <trkpt lat="31.812871" lon="35.049589">
        <ele>424.0</ele>
        <time>2011-07-01T04:37:31Z</time>
      </trkpt>
      <trkpt lat="31.812834" lon="35.049654">
        <ele>424.0</ele>
        <time>2011-07-01T04:37:35Z</time>
      </trkpt>
      <trkpt lat="31.812791" lon="35.049723">
        <ele>425.0</ele>
        <time>2011-07-01T04:37:39Z</time>
      </trkpt>
      <trkpt lat="31.812742" lon="35.049798">
        <ele>426.0</ele>
        <time>2011-07-01T04:37:44Z</time>
      </trkpt>
      <trkpt lat="31.81271" lon="35.049868">
        <ele>426.0</ele>
        <time>2011-07-01T04:37:48Z</time>
      </trkpt>
      <trkpt lat="31.812678" lon="35.049938">
        <ele>426.0</ele>
        <time>2011-07-01T04:37:52Z</time>
      </trkpt>
      <trkpt lat="31.81264" lon="35.050002">
        <ele>426.0</ele>
        <time>2011-07-01T04:37:56Z</time>
      </trkpt>
      <trkpt lat="31.812624" lon="35.050094">
        <ele>426.0</ele>
        <time>2011-07-01T04:38:01Z</time>
      </trkpt>
      <trkpt lat="31.812592" lon="35.050169">
        <ele>426.0</ele>
        <time>2011-07-01T04:38:05Z</time>
      </trkpt>
      <trkpt lat="31.812571" lon="35.050238">
        <ele>427.0</ele>
        <time>2011-07-01T04:38:09Z</time>
      </trkpt>
      <trkpt lat="31.812555" lon="35.050324">
        <ele>426.0</ele>
        <time>2011-07-01T04:38:13Z</time>
      </trkpt>
      <trkpt lat="31.812544" lon="35.050405">
        <ele>424.0</ele>
        <time>2011-07-01T04:38:17Z</time>
      </trkpt>
      <trkpt lat="31.812528" lon="35.050501">
        <ele>424.0</ele>
        <time>2011-07-01T04:38:21Z</time>
      </trkpt>
      <trkpt lat="31.812501" lon="35.050668">
        <ele>423.0</ele>
        <time>2011-07-01T04:38:30Z</time>
      </trkpt>
      <trkpt lat="31.812522" lon="35.050737">
        <ele>423.0</ele>
        <time>2011-07-01T04:38:33Z</time>
      </trkpt>
      <trkpt lat="31.812522" lon="35.050818">
        <ele>423.0</ele>
        <time>2011-07-01T04:38:37Z</time>
      </trkpt>
      <trkpt lat="31.812522" lon="35.050909">
        <ele>424.0</ele>
        <time>2011-07-01T04:38:42Z</time>
      </trkpt>
      <trkpt lat="31.812517" lon="35.050989">
        <ele>425.0</ele>
        <time>2011-07-01T04:38:46Z</time>
      </trkpt>
      <trkpt lat="31.812517" lon="35.051081">
        <ele>424.0</ele>
        <time>2011-07-01T04:38:51Z</time>
      </trkpt>
      <trkpt lat="31.812506" lon="35.051161">
        <ele>424.0</ele>
        <time>2011-07-01T04:38:57Z</time>
      </trkpt>
      <trkpt lat="31.81249" lon="35.051247">
        <ele>424.0</ele>
        <time>2011-07-01T04:39:03Z</time>
      </trkpt>
      <trkpt lat="31.812474" lon="35.051327">
        <ele>424.0</ele>
        <time>2011-07-01T04:39:10Z</time>
      </trkpt>
      <trkpt lat="31.812458" lon="35.051408">
        <ele>425.0</ele>
        <time>2011-07-01T04:39:15Z</time>
      </trkpt>
      <trkpt lat="31.812442" lon="35.051569">
        <ele>425.0</ele>
        <time>2011-07-01T04:39:24Z</time>
      </trkpt>
      <trkpt lat="31.812442" lon="35.051569">
        <time>2011-07-01T04:39:36Z</time>
      </trkpt>
    </trkseg>
    <trkseg>
      <trkpt lat="31.812442" lon="35.051569">
        <time>2011-07-01T04:40:21Z</time>
      </trkpt>
      <trkpt lat="31.812442" lon="35.051569">
        <time>2011-07-01T04:40:43Z</time>
      </trkpt>
    </trkseg>
    <trkseg>
      <trkpt lat="31.812442" lon="35.051569">
        <time>2011-07-01T04:42:09Z</time>
      </trkpt>
      <trkpt lat="31.812399" lon="35.051821">
        <ele>430.0</ele>
        <time>2011-07-01T04:42:16Z</time>
      </trkpt>
      <trkpt lat="31.812361" lon="35.051891">
        <ele>427.0</ele>
        <time>2011-07-01T04:42:20Z</time>
      </trkpt>
      <trkpt lat="31.812383" lon="35.052159">
        <ele>428.0</ele>
        <time>2011-07-01T04:42:32Z</time>
      </trkpt>
      <trkpt lat="31.812394" lon="35.052239">
        <ele>429.0</ele>
        <time>2011-07-01T04:42:35Z</time>
      </trkpt>
      <trkpt lat="31.81241" lon="35.05233">
        <ele>429.0</ele>
        <time>2011-07-01T04:42:39Z</time>
      </trkpt>
      <trkpt lat="31.812431" lon="35.052411">
        <ele>425.0</ele>
        <time>2011-07-01T04:42:44Z</time>
      </trkpt>
      <trkpt lat="31.812431" lon="35.052497">
        <ele>425.0</ele>
        <time>2011-07-01T04:42:50Z</time>
      </trkpt>
      <trkpt lat="31.812453" lon="35.052572">
        <ele>426.0</ele>
        <time>2011-07-01T04:42:56Z</time>
      </trkpt>
      <trkpt lat="31.812469" lon="35.052663">
        <ele>427.0</ele>
        <time>2011-07-01T04:43:01Z</time>
      </trkpt>
      <trkpt lat="31.812479" lon="35.052824">
        <ele>428.0</ele>
        <time>2011-07-01T04:43:11Z</time>
      </trkpt>
      <trkpt lat="31.812485" lon="35.052899">
        <ele>427.0</ele>
        <time>2011-07-01T04:43:15Z</time>
      </trkpt>
      <trkpt lat="31.812485" lon="35.05298">
        <ele>428.0</ele>
        <time>2011-07-01T04:43:19Z</time>
      </trkpt>
      <trkpt lat="31.812469" lon="35.053135">
        <ele>431.0</ele>
        <time>2011-07-01T04:43:30Z</time>
      </trkpt>
      <trkpt lat="31.812463" lon="35.053221">
        <ele>432.0</ele>
        <time>2011-07-01T04:43:35Z</time>
      </trkpt>
      <trkpt lat="31.812463" lon="35.053296">
        <ele>433.0</ele>
        <time>2011-07-01T04:43:40Z</time>
      </trkpt>
      <trkpt lat="31.812485" lon="35.053377">
        <ele>434.0</ele>
        <time>2011-07-01T04:43:44Z</time>
      </trkpt>
      <trkpt lat="31.812506" lon="35.053446">
        <ele>434.0</ele>
        <time>2011-07-01T04:43:47Z</time>
      </trkpt>
      <trkpt lat="31.812528" lon="35.053516">
        <ele>435.0</ele>
        <time>2011-07-01T04:43:51Z</time>
      </trkpt>
      <trkpt lat="31.812549" lon="35.053591">
        <ele>436.0</ele>
        <time>2011-07-01T04:43:55Z</time>
      </trkpt>
      <trkpt lat="31.812581" lon="35.053666">
        <ele>438.0</ele>
        <time>2011-07-01T04:44:02Z</time>
      </trkpt>
      <trkpt lat="31.812635" lon="35.053715">
        <ele>439.0</ele>
        <time>2011-07-01T04:44:05Z</time>
      </trkpt>
      <trkpt lat="31.812683" lon="35.053779">
        <ele>441.0</ele>
        <time>2011-07-01T04:44:11Z</time>
      </trkpt>
      <trkpt lat="31.812753" lon="35.053811">
        <ele>442.0</ele>
        <time>2011-07-01T04:44:15Z</time>
      </trkpt>
      <trkpt lat="31.812817" lon="35.053811">
        <ele>443.0</ele>
        <time>2011-07-01T04:44:19Z</time>
      </trkpt>
      <trkpt lat="31.812882" lon="35.053849">
        <ele>445.0</ele>
        <time>2011-07-01T04:44:24Z</time>
      </trkpt>
      <trkpt lat="31.812946" lon="35.053849">
        <ele>445.0</ele>
        <time>2011-07-01T04:44:27Z</time>
      </trkpt>
      <trkpt lat="31.813005" lon="35.053902">
        <ele>445.0</ele>
        <time>2011-07-01T04:44:31Z</time>
      </trkpt>
      <trkpt lat="31.813059" lon="35.053972">
        <ele>444.0</ele>
        <time>2011-07-01T04:44:36Z</time>
      </trkpt>
      <trkpt lat="31.813107" lon="35.05402">
        <ele>443.0</ele>
        <time>2011-07-01T04:44:40Z</time>
      </trkpt>
      <trkpt lat="31.813145" lon="35.05409">
        <ele>443.0</ele>
        <time>2011-07-01T04:44:46Z</time>
      </trkpt>
      <trkpt lat="31.813172" lon="35.054165">
        <ele>441.0</ele>
        <time>2011-07-01T04:44:52Z</time>
      </trkpt>
      <trkpt lat="31.813204" lon="35.05424">
        <ele>440.0</ele>
        <time>2011-07-01T04:44:57Z</time>
      </trkpt>
      <trkpt lat="31.813236" lon="35.054315">
        <ele>441.0</ele>
        <time>2011-07-01T04:45:02Z</time>
      </trkpt>
      <trkpt lat="31.813257" lon="35.05439">
        <ele>443.0</ele>
        <time>2011-07-01T04:45:07Z</time>
      </trkpt>
      <trkpt lat="31.813295" lon="35.05446">
        <ele>444.0</ele>
        <time>2011-07-01T04:45:12Z</time>
      </trkpt>
      <trkpt lat="31.813316" lon="35.054541">
        <ele>446.0</ele>
        <time>2011-07-01T04:45:19Z</time>
      </trkpt>
      <trkpt lat="31.813359" lon="35.0546">
        <ele>446.0</ele>
        <time>2011-07-01T04:45:25Z</time>
      </trkpt>
      <trkpt lat="31.813402" lon="35.054675">
        <ele>446.0</ele>
        <time>2011-07-01T04:45:31Z</time>
      </trkpt>
      <trkpt lat="31.813456" lon="35.054728">
        <ele>448.0</ele>
        <time>2011-07-01T04:45:37Z</time>
      </trkpt>
      <trkpt lat="31.81352" lon="35.054873">
        <ele>452.0</ele>
        <time>2011-07-01T04:45:48Z</time>
      </trkpt>
      <trkpt lat="31.813531" lon="35.054954">
        <ele>455.0</ele>
        <time>2011-07-01T04:45:53Z</time>
      </trkpt>
      <trkpt lat="31.813568" lon="35.055018">
        <ele>457.0</ele>
        <time>2011-07-01T04:45:58Z</time>
      </trkpt>
      <trkpt lat="31.813633" lon="35.055158">
        <ele>457.0</ele>
        <time>2011-07-01T04:46:08Z</time>
      </trkpt>
      <trkpt lat="31.81367" lon="35.055222">
        <ele>457.0</ele>
        <time>2011-07-01T04:46:13Z</time>
      </trkpt>
      <trkpt lat="31.813719" lon="35.055286">
        <ele>458.0</ele>
        <time>2011-07-01T04:46:19Z</time>
      </trkpt>
      <trkpt lat="31.813778" lon="35.055324">
        <ele>459.0</ele>
        <time>2011-07-01T04:46:25Z</time>
      </trkpt>
      <trkpt lat="31.813826" lon="35.055394">
        <ele>460.0</ele>
        <time>2011-07-01T04:46:33Z</time>
      </trkpt>
      <trkpt lat="31.813858" lon="35.055544">
        <ele>460.0</ele>
        <time>2011-07-01T04:46:40Z</time>
      </trkpt>
      <trkpt lat="31.813815" lon="35.055608">
        <ele>466.0</ele>
        <time>2011-07-01T04:46:46Z</time>
      </trkpt>
      <trkpt lat="31.813815" lon="35.055608">
        <time>2011-07-01T04:46:57Z</time>
      </trkpt>
    </trkseg>
    <trkseg>
      <trkpt lat="31.813815" lon="35.055608">
        <time>2011-07-01T04:48:19Z</time>
      </trkpt>
      <trkpt lat="31.813815" lon="35.055608">
        <time>2011-07-01T04:48:30Z</time>
      </trkpt>
    </trkseg>
    <trkseg>
      <trkpt lat="31.813815" lon="35.055608">
        <time>2011-07-01T04:52:50Z</time>
      </trkpt>
      <trkpt lat="31.813815" lon="35.055608">
        <time>2011-07-01T04:53:01Z</time>
      </trkpt>
    </trkseg>
    <trkseg>
      <trkpt lat="31.813815" lon="35.055608">
        <time>2011-07-01T04:53:26Z</time>
      </trkpt>
      <trkpt lat="31.813778" lon="35.055748">
        <ele>467.0</ele>
        <time>2011-07-01T04:53:31Z</time>
      </trkpt>
      <trkpt lat="31.81374" lon="35.055823">
        <ele>466.0</ele>
        <time>2011-07-01T04:53:37Z</time>
      </trkpt>
      <trkpt lat="31.813713" lon="35.055898">
        <ele>465.0</ele>
        <time>2011-07-01T04:53:43Z</time>
      </trkpt>
      <trkpt lat="31.813708" lon="35.055978">
        <ele>465.0</ele>
        <time>2011-07-01T04:53:48Z</time>
      </trkpt>
      <trkpt lat="31.813692" lon="35.056059">
        <ele>466.0</ele>
        <time>2011-07-01T04:53:53Z</time>
      </trkpt>
      <trkpt lat="31.813686" lon="35.056134">
        <ele>466.0</ele>
        <time>2011-07-01T04:53:58Z</time>
      </trkpt>
      <trkpt lat="31.813686" lon="35.056306">
        <ele>467.0</ele>
        <time>2011-07-01T04:54:08Z</time>
      </trkpt>
      <trkpt lat="31.81367" lon="35.056381">
        <ele>466.0</ele>
        <time>2011-07-01T04:54:13Z</time>
      </trkpt>
      <trkpt lat="31.813665" lon="35.056466">
        <ele>467.0</ele>
        <time>2011-07-01T04:54:19Z</time>
      </trkpt>
      <trkpt lat="31.813686" lon="35.056552">
        <ele>463.0</ele>
        <time>2011-07-01T04:54:24Z</time>
      </trkpt>
      <trkpt lat="31.813676" lon="35.056638">
        <ele>464.0</ele>
        <time>2011-07-01T04:54:30Z</time>
      </trkpt>
      <trkpt lat="31.813681" lon="35.05674">
        <ele>464.0</ele>
        <time>2011-07-01T04:54:34Z</time>
      </trkpt>
      <trkpt lat="31.81367" lon="35.056826">
        <ele>465.0</ele>
        <time>2011-07-01T04:54:38Z</time>
      </trkpt>
      <trkpt lat="31.813665" lon="35.056987">
        <ele>466.0</ele>
        <time>2011-07-01T04:54:47Z</time>
      </trkpt>
      <trkpt lat="31.81366" lon="35.057062">
        <ele>467.0</ele>
        <time>2011-07-01T04:54:52Z</time>
      </trkpt>
      <trkpt lat="31.813665" lon="35.057142">
        <ele>466.0</ele>
        <time>2011-07-01T04:54:57Z</time>
      </trkpt>
      <trkpt lat="31.813665" lon="35.057142">
        <time>2011-07-01T04:55:09Z</time>
      </trkpt>
    </trkseg>
    <trkseg>
      <trkpt lat="31.813665" lon="35.057142">
        <time>2011-07-01T04:55:09Z</time>
      </trkpt>
      <trkpt lat="31.813681" lon="35.057421">
        <ele>467.0</ele>
        <time>2011-07-01T04:55:15Z</time>
      </trkpt>
      <trkpt lat="31.813692" lon="35.057507">
        <ele>468.0</ele>
        <time>2011-07-01T04:55:21Z</time>
      </trkpt>
      <trkpt lat="31.813708" lon="35.057593">
        <ele>468.0</ele>
        <time>2011-07-01T04:55:26Z</time>
      </trkpt>
      <trkpt lat="31.813724" lon="35.057673">
        <ele>467.0</ele>
        <time>2011-07-01T04:55:33Z</time>
      </trkpt>
      <trkpt lat="31.81374" lon="35.057749">
        <ele>467.0</ele>
        <time>2011-07-01T04:55:38Z</time>
      </trkpt>
      <trkpt lat="31.81374" lon="35.057909">
        <ele>468.0</ele>
        <time>2011-07-01T04:55:48Z</time>
      </trkpt>
      <trkpt lat="31.813751" lon="35.057985">
        <ele>467.0</ele>
        <time>2011-07-01T04:55:53Z</time>
      </trkpt>
      <trkpt lat="31.813756" lon="35.058151">
        <ele>467.0</ele>
        <time>2011-07-01T04:56:03Z</time>
      </trkpt>
      <trkpt lat="31.813762" lon="35.058333">
        <ele>469.0</ele>
        <time>2011-07-01T04:56:13Z</time>
      </trkpt>
      <trkpt lat="31.813778" lon="35.058414">
        <ele>471.0</ele>
        <time>2011-07-01T04:56:19Z</time>
      </trkpt>
      <trkpt lat="31.813788" lon="35.058494">
        <ele>470.0</ele>
        <time>2011-07-01T04:56:25Z</time>
      </trkpt>
      <trkpt lat="31.813788" lon="35.058575">
        <ele>470.0</ele>
        <time>2011-07-01T04:56:30Z</time>
      </trkpt>
      <trkpt lat="31.813783" lon="35.05865">
        <ele>470.0</ele>
        <time>2011-07-01T04:56:34Z</time>
      </trkpt>
      <trkpt lat="31.813778" lon="35.058725">
        <ele>471.0</ele>
        <time>2011-07-01T04:56:39Z</time>
      </trkpt>
      <trkpt lat="31.813767" lon="35.058805">
        <ele>474.0</ele>
        <time>2011-07-01T04:56:44Z</time>
      </trkpt>
      <trkpt lat="31.81374" lon="35.058956">
        <ele>476.0</ele>
        <time>2011-07-01T04:56:54Z</time>
      </trkpt>
      <trkpt lat="31.813729" lon="35.059036">
        <ele>477.0</ele>
        <time>2011-07-01T04:56:58Z</time>
      </trkpt>
      <trkpt lat="31.81367" lon="35.059181">
        <ele>474.0</ele>
        <time>2011-07-01T04:57:06Z</time>
      </trkpt>
      <trkpt lat="31.813649" lon="35.059251">
        <ele>475.0</ele>
        <time>2011-07-01T04:57:10Z</time>
      </trkpt>
      <trkpt lat="31.813606" lon="35.059326">
        <ele>473.0</ele>
        <time>2011-07-01T04:57:15Z</time>
      </trkpt>
      <trkpt lat="31.813574" lon="35.059406">
        <ele>471.0</ele>
        <time>2011-07-01T04:57:20Z</time>
      </trkpt>
      <trkpt lat="31.813531" lon="35.059476">
        <ele>469.0</ele>
        <time>2011-07-01T04:57:24Z</time>
      </trkpt>
      <trkpt lat="31.813509" lon="35.059556">
        <ele>470.0</ele>
        <time>2011-07-01T04:57:28Z</time>
      </trkpt>
      <trkpt lat="31.813477" lon="35.059631">
        <ele>471.0</ele>
        <time>2011-07-01T04:57:33Z</time>
      </trkpt>
      <trkpt lat="31.813418" lon="35.05968">
        <ele>472.0</ele>
        <time>2011-07-01T04:57:37Z</time>
      </trkpt>
      <trkpt lat="31.813365" lon="35.059723">
        <ele>473.0</ele>
        <time>2011-07-01T04:57:41Z</time>
      </trkpt>
      <trkpt lat="31.813306" lon="35.059766">
        <ele>478.0</ele>
        <time>2011-07-01T04:57:46Z</time>
      </trkpt>
      <trkpt lat="31.813257" lon="35.059825">
        <ele>479.0</ele>
        <time>2011-07-01T04:57:50Z</time>
      </trkpt>
      <trkpt lat="31.81322" lon="35.059894">
        <ele>480.0</ele>
        <time>2011-07-01T04:57:54Z</time>
      </trkpt>
      <trkpt lat="31.813193" lon="35.059964">
        <ele>480.0</ele>
        <time>2011-07-01T04:57:58Z</time>
      </trkpt>
      <trkpt lat="31.813155" lon="35.06005">
        <ele>481.0</ele>
        <time>2011-07-01T04:58:03Z</time>
      </trkpt>
      <trkpt lat="31.813112" lon="35.06012">
        <ele>484.0</ele>
        <time>2011-07-01T04:58:08Z</time>
      </trkpt>
      <trkpt lat="31.813096" lon="35.060195">
        <ele>483.0</ele>
        <time>2011-07-01T04:58:12Z</time>
      </trkpt>
      <trkpt lat="31.813102" lon="35.060281">
        <ele>484.0</ele>
        <time>2011-07-01T04:58:16Z</time>
      </trkpt>
      <trkpt lat="31.813075" lon="35.060431">
        <ele>484.0</ele>
        <time>2011-07-01T04:58:24Z</time>
      </trkpt>
      <trkpt lat="31.813037" lon="35.060506">
        <ele>486.0</ele>
        <time>2011-07-01T04:58:28Z</time>
      </trkpt>
      <trkpt lat="31.812984" lon="35.060576">
        <ele>484.0</ele>
        <time>2011-07-01T04:58:34Z</time>
      </trkpt>
      <trkpt lat="31.812968" lon="35.060667">
        <ele>484.0</ele>
        <time>2011-07-01T04:58:39Z</time>
      </trkpt>
      <trkpt lat="31.812893" lon="35.060737">
        <ele>485.0</ele>
        <time>2011-07-01T04:58:45Z</time>
      </trkpt>
      <trkpt lat="31.812828" lon="35.060774">
        <ele>486.0</ele>
        <time>2011-07-01T04:58:49Z</time>
      </trkpt>
      <trkpt lat="31.812775" lon="35.060822">
        <ele>482.0</ele>
        <time>2011-07-01T04:58:54Z</time>
      </trkpt>
      <trkpt lat="31.812737" lon="35.060887">
        <ele>479.0</ele>
        <time>2011-07-01T04:59:01Z</time>
      </trkpt>
      <trkpt lat="31.812705" lon="35.060956">
        <ele>482.0</ele>
        <time>2011-07-01T04:59:07Z</time>
      </trkpt>
      <trkpt lat="31.812662" lon="35.061015">
        <ele>482.0</ele>
        <time>2011-07-01T04:59:12Z</time>
      </trkpt>
      <trkpt lat="31.812592" lon="35.061155">
        <ele>483.0</ele>
        <time>2011-07-01T04:59:23Z</time>
      </trkpt>
      <trkpt lat="31.812549" lon="35.06123">
        <ele>484.0</ele>
        <time>2011-07-01T04:59:29Z</time>
      </trkpt>
      <trkpt lat="31.812528" lon="35.061311">
        <ele>486.0</ele>
        <time>2011-07-01T04:59:34Z</time>
      </trkpt>
      <trkpt lat="31.812501" lon="35.061396">
        <ele>488.0</ele>
        <time>2011-07-01T04:59:40Z</time>
      </trkpt>
      <trkpt lat="31.812474" lon="35.061466">
        <ele>488.0</ele>
        <time>2011-07-01T04:59:44Z</time>
      </trkpt>
      <trkpt lat="31.812442" lon="35.061547">
        <ele>486.0</ele>
        <time>2011-07-01T04:59:50Z</time>
      </trkpt>
      <trkpt lat="31.81241" lon="35.061616">
        <ele>489.0</ele>
        <time>2011-07-01T04:59:55Z</time>
      </trkpt>
      <trkpt lat="31.812361" lon="35.06167">
        <ele>488.0</ele>
        <time>2011-07-01T04:59:59Z</time>
      </trkpt>
      <trkpt lat="31.812313" lon="35.061724">
        <ele>488.0</ele>
        <time>2011-07-01T05:00:04Z</time>
      </trkpt>
      <trkpt lat="31.812313" lon="35.061724">
        <time>2011-07-01T05:00:16Z</time>
      </trkpt>
    </trkseg>
    <trkseg>
      <trkpt lat="31.812313" lon="35.061724">
        <time>2011-07-01T05:00:41Z</time>
      </trkpt>
      <trkpt lat="31.812211" lon="35.061938">
        <ele>488.0</ele>
        <time>2011-07-01T05:00:45Z</time>
      </trkpt>
      <trkpt lat="31.812179" lon="35.062003">
        <ele>488.0</ele>
        <time>2011-07-01T05:00:49Z</time>
      </trkpt>
      <trkpt lat="31.81212" lon="35.062051">
        <ele>490.0</ele>
        <time>2011-07-01T05:00:53Z</time>
      </trkpt>
      <trkpt lat="31.812072" lon="35.062104">
        <ele>490.0</ele>
        <time>2011-07-01T05:00:56Z</time>
      </trkpt>
      <trkpt lat="31.812007" lon="35.062147">
        <ele>493.0</ele>
        <time>2011-07-01T05:01:01Z</time>
      </trkpt>
      <trkpt lat="31.811938" lon="35.06218">
        <ele>496.0</ele>
        <time>2011-07-01T05:01:06Z</time>
      </trkpt>
      <trkpt lat="31.811879" lon="35.062217">
        <ele>495.0</ele>
        <time>2011-07-01T05:01:11Z</time>
      </trkpt>
      <trkpt lat="31.811879" lon="35.062217">
        <time>2011-07-01T05:01:22Z</time>
      </trkpt>
    </trkseg>
    <trkseg>
      <trkpt lat="31.811879" lon="35.062217">
        <time>2011-07-01T05:04:02Z</time>
      </trkpt>
      <trkpt lat="31.81168" lon="35.062319">
        <ele>495.0</ele>
        <time>2011-07-01T05:04:06Z</time>
      </trkpt>
      <trkpt lat="31.811632" lon="35.062367">
        <ele>496.0</ele>
        <time>2011-07-01T05:04:09Z</time>
      </trkpt>
      <trkpt lat="31.811584" lon="35.062432">
        <ele>498.0</ele>
        <time>2011-07-01T05:04:14Z</time>
      </trkpt>
      <trkpt lat="31.811514" lon="35.062475">
        <ele>497.0</ele>
        <time>2011-07-01T05:04:18Z</time>
      </trkpt>
      <trkpt lat="31.81145" lon="35.062496">
        <ele>498.0</ele>
        <time>2011-07-01T05:04:23Z</time>
      </trkpt>
      <trkpt lat="31.811401" lon="35.062555">
        <ele>499.0</ele>
        <time>2011-07-01T05:04:27Z</time>
      </trkpt>
      <trkpt lat="31.811348" lon="35.062625">
        <ele>499.0</ele>
        <time>2011-07-01T05:04:32Z</time>
      </trkpt>
      <trkpt lat="31.811283" lon="35.062662">
        <ele>499.0</ele>
        <time>2011-07-01T05:04:36Z</time>
      </trkpt>
      <trkpt lat="31.811208" lon="35.062711">
        <ele>499.0</ele>
        <time>2011-07-01T05:04:40Z</time>
      </trkpt>
      <trkpt lat="31.811154" lon="35.062775">
        <ele>501.0</ele>
        <time>2011-07-01T05:04:44Z</time>
      </trkpt>
      <trkpt lat="31.811101" lon="35.062845">
        <ele>502.0</ele>
        <time>2011-07-01T05:04:48Z</time>
      </trkpt>
      <trkpt lat="31.811058" lon="35.062904">
        <ele>503.0</ele>
        <time>2011-07-01T05:04:52Z</time>
      </trkpt>
      <trkpt lat="31.811004" lon="35.062968">
        <ele>504.0</ele>
        <time>2011-07-01T05:04:57Z</time>
      </trkpt>
      <trkpt lat="31.81094" lon="35.063022">
        <ele>504.0</ele>
        <time>2011-07-01T05:05:01Z</time>
      </trkpt>
      <trkpt lat="31.810817" lon="35.063065">
        <ele>505.0</ele>
        <time>2011-07-01T05:05:08Z</time>
      </trkpt>
      <trkpt lat="31.810731" lon="35.063102">
        <ele>505.0</ele>
        <time>2011-07-01T05:05:12Z</time>
      </trkpt>
      <trkpt lat="31.810629" lon="35.063231">
        <ele>505.0</ele>
        <time>2011-07-01T05:05:20Z</time>
      </trkpt>
      <trkpt lat="31.810586" lon="35.063306">
        <ele>506.0</ele>
        <time>2011-07-01T05:05:25Z</time>
      </trkpt>
      <trkpt lat="31.810538" lon="35.06336">
        <ele>508.0</ele>
        <time>2011-07-01T05:05:29Z</time>
      </trkpt>
      <trkpt lat="31.810489" lon="35.063429">
        <ele>509.0</ele>
        <time>2011-07-01T05:05:33Z</time>
      </trkpt>
      <trkpt lat="31.810436" lon="35.063488">
        <ele>510.0</ele>
        <time>2011-07-01T05:05:37Z</time>
      </trkpt>
      <trkpt lat="31.810409" lon="35.063564">
        <ele>509.0</ele>
        <time>2011-07-01T05:05:40Z</time>
      </trkpt>
      <trkpt lat="31.810366" lon="35.063633">
        <ele>513.0</ele>
        <time>2011-07-01T05:05:45Z</time>
      </trkpt>
      <trkpt lat="31.810307" lon="35.063682">
        <ele>512.0</ele>
        <time>2011-07-01T05:05:49Z</time>
      </trkpt>
      <trkpt lat="31.810264" lon="35.063741">
        <ele>514.0</ele>
        <time>2011-07-01T05:05:54Z</time>
      </trkpt>
      <trkpt lat="31.810189" lon="35.063875">
        <ele>512.0</ele>
        <time>2011-07-01T05:06:01Z</time>
      </trkpt>
      <trkpt lat="31.810151" lon="35.063939">
        <ele>511.0</ele>
        <time>2011-07-01T05:06:05Z</time>
      </trkpt>
      <trkpt lat="31.81006" lon="35.064057">
        <ele>509.0</ele>
        <time>2011-07-01T05:06:13Z</time>
      </trkpt>
      <trkpt lat="31.810006" lon="35.0641">
        <ele>511.0</ele>
        <time>2011-07-01T05:06:16Z</time>
      </trkpt>
      <trkpt lat="31.809931" lon="35.064223">
        <ele>512.0</ele>
        <time>2011-07-01T05:06:25Z</time>
      </trkpt>
      <trkpt lat="31.809899" lon="35.064288">
        <ele>512.0</ele>
        <time>2011-07-01T05:06:29Z</time>
      </trkpt>
      <trkpt lat="31.80984" lon="35.064347">
        <ele>511.0</ele>
        <time>2011-07-01T05:06:33Z</time>
      </trkpt>
      <trkpt lat="31.809808" lon="35.064422">
        <ele>512.0</ele>
        <time>2011-07-01T05:06:37Z</time>
      </trkpt>
      <trkpt lat="31.809754" lon="35.064476">
        <ele>511.0</ele>
        <time>2011-07-01T05:06:41Z</time>
      </trkpt>
      <trkpt lat="31.809754" lon="35.064476">
        <time>2011-07-01T05:06:53Z</time>
      </trkpt>
    </trkseg>
    <trkseg>
      <trkpt lat="31.809754" lon="35.064476">
        <time>2011-07-01T05:08:25Z</time>
      </trkpt>
      <trkpt lat="31.80962" lon="35.064642">
        <ele>509.0</ele>
        <time>2011-07-01T05:08:29Z</time>
      </trkpt>
      <trkpt lat="31.809572" lon="35.064706">
        <ele>509.0</ele>
        <time>2011-07-01T05:08:33Z</time>
      </trkpt>
      <trkpt lat="31.809513" lon="35.064771">
        <ele>507.0</ele>
        <time>2011-07-01T05:08:37Z</time>
      </trkpt>
      <trkpt lat="31.809475" lon="35.064856">
        <ele>510.0</ele>
        <time>2011-07-01T05:08:41Z</time>
      </trkpt>
      <trkpt lat="31.809406" lon="35.065017">
        <ele>511.0</ele>
        <time>2011-07-01T05:08:47Z</time>
      </trkpt>
      <trkpt lat="31.809325" lon="35.065157">
        <ele>510.0</ele>
        <time>2011-07-01T05:08:51Z</time>
      </trkpt>
      <trkpt lat="31.809266" lon="35.065312">
        <ele>511.0</ele>
        <time>2011-07-01T05:08:55Z</time>
      </trkpt>
      <trkpt lat="31.809223" lon="35.065463">
        <ele>514.0</ele>
        <time>2011-07-01T05:08:59Z</time>
      </trkpt>
      <trkpt lat="31.809175" lon="35.065527">
        <ele>515.0</ele>
        <time>2011-07-01T05:09:02Z</time>
      </trkpt>
      <trkpt lat="31.809143" lon="35.065602">
        <ele>517.0</ele>
        <time>2011-07-01T05:09:05Z</time>
      </trkpt>
      <trkpt lat="31.809111" lon="35.065672">
        <ele>516.0</ele>
        <time>2011-07-01T05:09:09Z</time>
      </trkpt>
      <trkpt lat="31.809062" lon="35.065827">
        <ele>516.0</ele>
        <time>2011-07-01T05:09:17Z</time>
      </trkpt>
      <trkpt lat="31.809025" lon="35.065892">
        <ele>517.0</ele>
        <time>2011-07-01T05:09:21Z</time>
      </trkpt>
      <trkpt lat="31.808977" lon="35.065956">
        <ele>518.0</ele>
        <time>2011-07-01T05:09:25Z</time>
      </trkpt>
      <trkpt lat="31.808944" lon="35.066037">
        <ele>519.0</ele>
        <time>2011-07-01T05:09:29Z</time>
      </trkpt>
      <trkpt lat="31.808918" lon="35.066117">
        <ele>519.0</ele>
        <time>2011-07-01T05:09:33Z</time>
      </trkpt>
      <trkpt lat="31.80888" lon="35.066181">
        <ele>519.0</ele>
        <time>2011-07-01T05:09:36Z</time>
      </trkpt>
      <trkpt lat="31.808816" lon="35.066337">
        <ele>518.0</ele>
        <time>2011-07-01T05:09:43Z</time>
      </trkpt>
      <trkpt lat="31.808778" lon="35.066412">
        <ele>518.0</ele>
        <time>2011-07-01T05:09:46Z</time>
      </trkpt>
      <trkpt lat="31.808703" lon="35.066535">
        <ele>518.0</ele>
        <time>2011-07-01T05:09:55Z</time>
      </trkpt>
      <trkpt lat="31.808698" lon="35.066611">
        <ele>519.0</ele>
        <time>2011-07-01T05:09:58Z</time>
      </trkpt>
      <trkpt lat="31.808639" lon="35.06667">
        <ele>519.0</ele>
        <time>2011-07-01T05:10:02Z</time>
      </trkpt>
      <trkpt lat="31.808606" lon="35.066739">
        <ele>519.0</ele>
        <time>2011-07-01T05:10:07Z</time>
      </trkpt>
      <trkpt lat="31.808563" lon="35.066798">
        <ele>522.0</ele>
        <time>2011-07-01T05:10:11Z</time>
      </trkpt>
      <trkpt lat="31.808521" lon="35.066879">
        <ele>524.0</ele>
        <time>2011-07-01T05:10:15Z</time>
      </trkpt>
      <trkpt lat="31.808488" lon="35.066949">
        <ele>524.0</ele>
        <time>2011-07-01T05:10:19Z</time>
      </trkpt>
      <trkpt lat="31.808435" lon="35.067024">
        <ele>523.0</ele>
        <time>2011-07-01T05:10:24Z</time>
      </trkpt>
      <trkpt lat="31.808408" lon="35.067093">
        <ele>523.0</ele>
        <time>2011-07-01T05:10:28Z</time>
      </trkpt>
      <trkpt lat="31.808376" lon="35.067179">
        <ele>523.0</ele>
        <time>2011-07-01T05:10:33Z</time>
      </trkpt>
      <trkpt lat="31.808354" lon="35.067276">
        <ele>523.0</ele>
        <time>2011-07-01T05:10:38Z</time>
      </trkpt>
      <trkpt lat="31.808354" lon="35.067362">
        <ele>525.0</ele>
        <time>2011-07-01T05:10:42Z</time>
      </trkpt>
      <trkpt lat="31.808333" lon="35.067458">
        <ele>524.0</ele>
        <time>2011-07-01T05:10:46Z</time>
      </trkpt>
      <trkpt lat="31.808306" lon="35.067528">
        <ele>524.0</ele>
        <time>2011-07-01T05:10:49Z</time>
      </trkpt>
      <trkpt lat="31.808279" lon="35.067603">
        <ele>525.0</ele>
        <time>2011-07-01T05:10:52Z</time>
      </trkpt>
      <trkpt lat="31.808242" lon="35.067694">
        <ele>524.0</ele>
        <time>2011-07-01T05:10:56Z</time>
      </trkpt>
      <trkpt lat="31.808204" lon="35.067764">
        <ele>524.0</ele>
        <time>2011-07-01T05:11:00Z</time>
      </trkpt>
      <trkpt lat="31.808124" lon="35.067898">
        <ele>525.0</ele>
        <time>2011-07-01T05:11:10Z</time>
      </trkpt>
      <trkpt lat="31.808075" lon="35.067957">
        <ele>528.0</ele>
        <time>2011-07-01T05:11:15Z</time>
      </trkpt>
      <trkpt lat="31.808027" lon="35.068011">
        <ele>526.0</ele>
        <time>2011-07-01T05:11:20Z</time>
      </trkpt>
      <trkpt lat="31.807941" lon="35.068139">
        <ele>527.0</ele>
        <time>2011-07-01T05:11:29Z</time>
      </trkpt>
      <trkpt lat="31.807904" lon="35.068204">
        <ele>527.0</ele>
        <time>2011-07-01T05:11:33Z</time>
      </trkpt>
      <trkpt lat="31.807871" lon="35.068268">
        <ele>526.0</ele>
        <time>2011-07-01T05:11:37Z</time>
      </trkpt>
      <trkpt lat="31.80785" lon="35.068338">
        <ele>527.0</ele>
        <time>2011-07-01T05:11:41Z</time>
      </trkpt>
      <trkpt lat="31.807823" lon="35.068515">
        <ele>529.0</ele>
        <time>2011-07-01T05:11:50Z</time>
      </trkpt>
      <trkpt lat="31.807812" lon="35.06859">
        <ele>530.0</ele>
        <time>2011-07-01T05:11:53Z</time>
      </trkpt>
      <trkpt lat="31.807775" lon="35.068671">
        <ele>530.0</ele>
        <time>2011-07-01T05:11:57Z</time>
      </trkpt>
      <trkpt lat="31.807743" lon="35.068746">
        <ele>529.0</ele>
        <time>2011-07-01T05:12:00Z</time>
      </trkpt>
      <trkpt lat="31.807689" lon="35.068815">
        <ele>529.0</ele>
        <time>2011-07-01T05:12:04Z</time>
      </trkpt>
      <trkpt lat="31.807635" lon="35.068885">
        <ele>529.0</ele>
        <time>2011-07-01T05:12:08Z</time>
      </trkpt>
      <trkpt lat="31.807593" lon="35.068955">
        <ele>530.0</ele>
        <time>2011-07-01T05:12:12Z</time>
      </trkpt>
      <trkpt lat="31.807523" lon="35.069105">
        <ele>531.0</ele>
        <time>2011-07-01T05:12:20Z</time>
      </trkpt>
      <trkpt lat="31.807512" lon="35.069185">
        <ele>532.0</ele>
        <time>2011-07-01T05:12:24Z</time>
      </trkpt>
      <trkpt lat="31.80748" lon="35.069261">
        <ele>534.0</ele>
        <time>2011-07-01T05:12:29Z</time>
      </trkpt>
      <trkpt lat="31.807474" lon="35.069346">
        <ele>534.0</ele>
        <time>2011-07-01T05:12:33Z</time>
      </trkpt>
      <trkpt lat="31.807464" lon="35.069422">
        <ele>530.0</ele>
        <time>2011-07-01T05:12:36Z</time>
      </trkpt>
      <trkpt lat="31.807437" lon="35.069502">
        <ele>531.0</ele>
        <time>2011-07-01T05:12:40Z</time>
      </trkpt>
      <trkpt lat="31.80741" lon="35.069582">
        <ele>532.0</ele>
        <time>2011-07-01T05:12:44Z</time>
      </trkpt>
      <trkpt lat="31.807383" lon="35.069743">
        <ele>535.0</ele>
        <time>2011-07-01T05:12:51Z</time>
      </trkpt>
      <trkpt lat="31.807356" lon="35.069829">
        <ele>536.0</ele>
        <time>2011-07-01T05:12:55Z</time>
      </trkpt>
      <trkpt lat="31.807324" lon="35.069904">
        <ele>536.0</ele>
        <time>2011-07-01T05:12:59Z</time>
      </trkpt>
      <trkpt lat="31.807297" lon="35.069974">
        <ele>535.0</ele>
        <time>2011-07-01T05:13:02Z</time>
      </trkpt>
      <trkpt lat="31.807265" lon="35.070065">
        <ele>536.0</ele>
        <time>2011-07-01T05:13:06Z</time>
      </trkpt>
      <trkpt lat="31.807217" lon="35.070215">
        <ele>537.0</ele>
        <time>2011-07-01T05:13:12Z</time>
      </trkpt>
      <trkpt lat="31.80719" lon="35.070291">
        <ele>538.0</ele>
        <time>2011-07-01T05:13:15Z</time>
      </trkpt>
      <trkpt lat="31.807158" lon="35.070355">
        <ele>537.0</ele>
        <time>2011-07-01T05:13:19Z</time>
      </trkpt>
      <trkpt lat="31.80697" lon="35.070457">
        <ele>540.0</ele>
        <time>2011-07-01T05:13:28Z</time>
      </trkpt>
      <trkpt lat="31.806911" lon="35.070511">
        <ele>541.0</ele>
        <time>2011-07-01T05:13:32Z</time>
      </trkpt>
      <trkpt lat="31.806788" lon="35.070591">
        <ele>542.0</ele>
        <time>2011-07-01T05:13:39Z</time>
      </trkpt>
      <trkpt lat="31.806734" lon="35.070634">
        <ele>545.0</ele>
        <time>2011-07-01T05:13:42Z</time>
      </trkpt>
      <trkpt lat="31.80667" lon="35.070671">
        <ele>547.0</ele>
        <time>2011-07-01T05:13:45Z</time>
      </trkpt>
      <trkpt lat="31.806546" lon="35.070736">
        <ele>548.0</ele>
        <time>2011-07-01T05:13:52Z</time>
      </trkpt>
      <trkpt lat="31.806487" lon="35.070773">
        <ele>548.0</ele>
        <time>2011-07-01T05:13:56Z</time>
      </trkpt>
      <trkpt lat="31.806434" lon="35.070832">
        <ele>547.0</ele>
        <time>2011-07-01T05:14:01Z</time>
      </trkpt>
      <trkpt lat="31.806434" lon="35.070832">
        <time>2011-07-01T05:14:12Z</time>
      </trkpt>
    </trkseg>
    <trkseg>
      <trkpt lat="31.806434" lon="35.070832">
        <time>2011-07-01T05:19:51Z</time>
      </trkpt>
      <trkpt lat="31.806434" lon="35.070832">
        <time>2011-07-01T05:20:02Z</time>
      </trkpt>
    </trkseg>
    <trkseg>
      <trkpt lat="31.806434" lon="35.070832">
        <time>2011-07-01T05:20:12Z</time>
      </trkpt>
      <trkpt lat="31.806284" lon="35.07102">
        <ele>547.0</ele>
        <time>2011-07-01T05:20:16Z</time>
      </trkpt>
      <trkpt lat="31.806251" lon="35.071084">
        <ele>547.0</ele>
        <time>2011-07-01T05:20:19Z</time>
      </trkpt>
      <trkpt lat="31.806198" lon="35.071154">
        <ele>546.0</ele>
        <time>2011-07-01T05:20:23Z</time>
      </trkpt>
      <trkpt lat="31.806149" lon="35.071235">
        <ele>546.0</ele>
        <time>2011-07-01T05:20:27Z</time>
      </trkpt>
      <trkpt lat="31.806101" lon="35.071294">
        <ele>546.0</ele>
        <time>2011-07-01T05:20:30Z</time>
      </trkpt>
      <trkpt lat="31.806069" lon="35.07138">
        <ele>551.0</ele>
        <time>2011-07-01T05:20:34Z</time>
      </trkpt>
      <trkpt lat="31.806026" lon="35.071455">
        <ele>552.0</ele>
        <time>2011-07-01T05:20:38Z</time>
      </trkpt>
      <trkpt lat="31.805978" lon="35.071514">
        <ele>553.0</ele>
        <time>2011-07-01T05:20:41Z</time>
      </trkpt>
      <trkpt lat="31.805887" lon="35.071637">
        <ele>553.0</ele>
        <time>2011-07-01T05:20:47Z</time>
      </trkpt>
      <trkpt lat="31.805838" lon="35.071701">
        <ele>554.0</ele>
        <time>2011-07-01T05:20:50Z</time>
      </trkpt>
      <trkpt lat="31.805801" lon="35.071787">
        <ele>555.0</ele>
        <time>2011-07-01T05:20:54Z</time>
      </trkpt>
      <trkpt lat="31.805758" lon="35.071846">
        <ele>556.0</ele>
        <time>2011-07-01T05:20:57Z</time>
      </trkpt>
      <trkpt lat="31.805715" lon="35.071927">
        <ele>556.0</ele>
        <time>2011-07-01T05:21:01Z</time>
      </trkpt>
      <trkpt lat="31.805592" lon="35.072029">
        <ele>556.0</ele>
        <time>2011-07-01T05:21:07Z</time>
      </trkpt>
      <trkpt lat="31.805522" lon="35.072066">
        <ele>557.0</ele>
        <time>2011-07-01T05:21:10Z</time>
      </trkpt>
      <trkpt lat="31.805468" lon="35.072109">
        <ele>553.0</ele>
        <time>2011-07-01T05:21:13Z</time>
      </trkpt>
      <trkpt lat="31.805366" lon="35.072227">
        <ele>552.0</ele>
        <time>2011-07-01T05:21:20Z</time>
      </trkpt>
      <trkpt lat="31.805372" lon="35.072308">
        <ele>555.0</ele>
        <time>2011-07-01T05:21:23Z</time>
      </trkpt>
      <trkpt lat="31.80512" lon="35.07249">
        <ele>552.0</ele>
        <time>2011-07-01T05:21:36Z</time>
      </trkpt>
      <trkpt lat="31.80505" lon="35.072522">
        <ele>551.0</ele>
        <time>2011-07-01T05:21:39Z</time>
      </trkpt>
      <trkpt lat="31.804991" lon="35.07257">
        <ele>551.0</ele>
        <time>2011-07-01T05:21:42Z</time>
      </trkpt>
      <trkpt lat="31.804846" lon="35.072656">
        <ele>550.0</ele>
        <time>2011-07-01T05:21:48Z</time>
      </trkpt>
      <trkpt lat="31.804782" lon="35.072705">
        <ele>550.0</ele>
        <time>2011-07-01T05:21:51Z</time>
      </trkpt>
      <trkpt lat="31.804723" lon="35.072758">
        <ele>551.0</ele>
        <time>2011-07-01T05:21:54Z</time>
      </trkpt>
      <trkpt lat="31.804599" lon="35.072849">
        <ele>553.0</ele>
        <time>2011-07-01T05:22:00Z</time>
      </trkpt>
      <trkpt lat="31.804476" lon="35.072924">
        <ele>554.0</ele>
        <time>2011-07-01T05:22:08Z</time>
      </trkpt>
      <trkpt lat="31.804433" lon="35.072994">
        <ele>555.0</ele>
        <time>2011-07-01T05:22:12Z</time>
      </trkpt>
      <trkpt lat="31.804406" lon="35.073069">
        <ele>555.0</ele>
        <time>2011-07-01T05:22:15Z</time>
      </trkpt>
      <trkpt lat="31.804347" lon="35.073144">
        <ele>554.0</ele>
        <time>2011-07-01T05:22:18Z</time>
      </trkpt>
      <trkpt lat="31.804293" lon="35.073193">
        <ele>555.0</ele>
        <time>2011-07-01T05:22:21Z</time>
      </trkpt>
      <trkpt lat="31.804293" lon="35.073193">
        <time>2011-07-01T05:22:33Z</time>
      </trkpt>
    </trkseg>
    <trkseg>
      <trkpt lat="31.804293" lon="35.073193">
        <time>2011-07-01T05:24:05Z</time>
      </trkpt>
      <trkpt lat="31.804106" lon="35.073338">
        <ele>562.0</ele>
        <time>2011-07-01T05:24:08Z</time>
      </trkpt>
      <trkpt lat="31.804036" lon="35.073375">
        <ele>563.0</ele>
        <time>2011-07-01T05:24:11Z</time>
      </trkpt>
      <trkpt lat="31.803977" lon="35.073418">
        <ele>565.0</ele>
        <time>2011-07-01T05:24:14Z</time>
      </trkpt>
      <trkpt lat="31.803918" lon="35.073482">
        <ele>564.0</ele>
        <time>2011-07-01T05:24:17Z</time>
      </trkpt>
      <trkpt lat="31.803859" lon="35.073557">
        <ele>564.0</ele>
        <time>2011-07-01T05:24:20Z</time>
      </trkpt>
      <trkpt lat="31.803757" lon="35.073713">
        <ele>562.0</ele>
        <time>2011-07-01T05:24:27Z</time>
      </trkpt>
      <trkpt lat="31.803714" lon="35.073794">
        <ele>560.0</ele>
        <time>2011-07-01T05:24:30Z</time>
      </trkpt>
      <trkpt lat="31.803634" lon="35.073971">
        <ele>560.0</ele>
        <time>2011-07-01T05:24:36Z</time>
      </trkpt>
      <trkpt lat="31.803612" lon="35.074062">
        <ele>561.0</ele>
        <time>2011-07-01T05:24:39Z</time>
      </trkpt>
      <trkpt lat="31.803591" lon="35.074233">
        <ele>561.0</ele>
        <time>2011-07-01T05:24:45Z</time>
      </trkpt>
      <trkpt lat="31.803591" lon="35.074325">
        <ele>561.0</ele>
        <time>2011-07-01T05:24:48Z</time>
      </trkpt>
      <trkpt lat="31.803591" lon="35.074427">
        <ele>560.0</ele>
        <time>2011-07-01T05:24:51Z</time>
      </trkpt>
      <trkpt lat="31.803628" lon="35.074587">
        <ele>562.0</ele>
        <time>2011-07-01T05:24:57Z</time>
      </trkpt>
      <trkpt lat="31.803644" lon="35.074759">
        <ele>562.0</ele>
        <time>2011-07-01T05:25:05Z</time>
      </trkpt>
      <trkpt lat="31.803671" lon="35.07484">
        <ele>564.0</ele>
        <time>2011-07-01T05:25:08Z</time>
      </trkpt>
      <trkpt lat="31.803714" lon="35.07492">
        <ele>564.0</ele>
        <time>2011-07-01T05:25:12Z</time>
      </trkpt>
      <trkpt lat="31.803757" lon="35.075081">
        <ele>565.0</ele>
        <time>2011-07-01T05:25:20Z</time>
      </trkpt>
      <trkpt lat="31.803832" lon="35.075231">
        <ele>570.0</ele>
        <time>2011-07-01T05:25:28Z</time>
      </trkpt>
      <trkpt lat="31.803864" lon="35.075296">
        <ele>571.0</ele>
        <time>2011-07-01T05:25:32Z</time>
      </trkpt>
      <trkpt lat="31.803907" lon="35.07536">
        <ele>574.0</ele>
        <time>2011-07-01T05:25:37Z</time>
      </trkpt>
      <trkpt lat="31.803945" lon="35.075435">
        <ele>575.0</ele>
        <time>2011-07-01T05:25:42Z</time>
      </trkpt>
      <trkpt lat="31.803966" lon="35.075516">
        <ele>575.0</ele>
        <time>2011-07-01T05:25:47Z</time>
      </trkpt>
      <trkpt lat="31.803982" lon="35.075601">
        <ele>574.0</ele>
        <time>2011-07-01T05:25:52Z</time>
      </trkpt>
      <trkpt lat="31.804009" lon="35.075682">
        <ele>575.0</ele>
        <time>2011-07-01T05:25:56Z</time>
      </trkpt>
      <trkpt lat="31.804047" lon="35.075757">
        <ele>579.0</ele>
        <time>2011-07-01T05:26:01Z</time>
      </trkpt>
      <trkpt lat="31.804073" lon="35.075827">
        <ele>580.0</ele>
        <time>2011-07-01T05:26:05Z</time>
      </trkpt>
      <trkpt lat="31.8041" lon="35.075902">
        <ele>579.0</ele>
        <time>2011-07-01T05:26:10Z</time>
      </trkpt>
      <trkpt lat="31.804122" lon="35.075977">
        <ele>580.0</ele>
        <time>2011-07-01T05:26:14Z</time>
      </trkpt>
      <trkpt lat="31.804138" lon="35.076052">
        <ele>582.0</ele>
        <time>2011-07-01T05:26:18Z</time>
      </trkpt>
      <trkpt lat="31.804165" lon="35.076127">
        <ele>583.0</ele>
        <time>2011-07-01T05:26:22Z</time>
      </trkpt>
      <trkpt lat="31.804213" lon="35.076293">
        <ele>583.0</ele>
        <time>2011-07-01T05:26:30Z</time>
      </trkpt>
      <trkpt lat="31.804245" lon="35.076374">
        <ele>582.0</ele>
        <time>2011-07-01T05:26:34Z</time>
      </trkpt>
      <trkpt lat="31.804277" lon="35.076449">
        <ele>585.0</ele>
        <time>2011-07-01T05:26:39Z</time>
      </trkpt>
      <trkpt lat="31.804299" lon="35.076524">
        <ele>585.0</ele>
        <time>2011-07-01T05:26:43Z</time>
      </trkpt>
      <trkpt lat="31.804326" lon="35.076594">
        <ele>587.0</ele>
        <time>2011-07-01T05:26:51Z</time>
      </trkpt>
      <trkpt lat="31.804326" lon="35.076594">
        <time>2011-07-01T05:27:02Z</time>
      </trkpt>
    </trkseg>
    <trkseg>
      <trkpt lat="31.804326" lon="35.076594">
        <time>2011-07-01T05:32:31Z</time>
      </trkpt>
      <trkpt lat="31.804449" lon="35.076824">
        <ele>591.0</ele>
        <time>2011-07-01T05:32:39Z</time>
      </trkpt>
      <trkpt lat="31.804519" lon="35.076991">
        <ele>594.0</ele>
        <time>2011-07-01T05:32:47Z</time>
      </trkpt>
      <trkpt lat="31.804578" lon="35.077055">
        <ele>597.0</ele>
        <time>2011-07-01T05:32:52Z</time>
      </trkpt>
      <trkpt lat="31.804626" lon="35.077103">
        <ele>598.0</ele>
        <time>2011-07-01T05:32:55Z</time>
      </trkpt>
      <trkpt lat="31.80468" lon="35.077178">
        <ele>596.0</ele>
        <time>2011-07-01T05:32:59Z</time>
      </trkpt>
      <trkpt lat="31.804717" lon="35.077243">
        <ele>594.0</ele>
        <time>2011-07-01T05:33:03Z</time>
      </trkpt>
      <trkpt lat="31.804771" lon="35.077313">
        <ele>596.0</ele>
        <time>2011-07-01T05:33:07Z</time>
      </trkpt>
      <trkpt lat="31.804819" lon="35.077382">
        <ele>597.0</ele>
        <time>2011-07-01T05:33:11Z</time>
      </trkpt>
      <trkpt lat="31.804867" lon="35.077457">
        <ele>597.0</ele>
        <time>2011-07-01T05:33:15Z</time>
      </trkpt>
      <trkpt lat="31.804905" lon="35.077527">
        <ele>595.0</ele>
        <time>2011-07-01T05:33:19Z</time>
      </trkpt>
      <trkpt lat="31.804953" lon="35.077677">
        <ele>597.0</ele>
        <time>2011-07-01T05:33:27Z</time>
      </trkpt>
      <trkpt lat="31.804932" lon="35.077763">
        <ele>597.0</ele>
        <time>2011-07-01T05:33:34Z</time>
      </trkpt>
      <trkpt lat="31.804894" lon="35.077828">
        <ele>597.0</ele>
        <time>2011-07-01T05:33:39Z</time>
      </trkpt>
      <trkpt lat="31.804862" lon="35.077892">
        <ele>596.0</ele>
        <time>2011-07-01T05:33:44Z</time>
      </trkpt>
      <trkpt lat="31.80483" lon="35.078042">
        <ele>597.0</ele>
        <time>2011-07-01T05:33:54Z</time>
      </trkpt>
      <trkpt lat="31.804803" lon="35.078117">
        <ele>598.0</ele>
        <time>2011-07-01T05:33:59Z</time>
      </trkpt>
      <trkpt lat="31.804765" lon="35.078198">
        <ele>598.0</ele>
        <time>2011-07-01T05:34:04Z</time>
      </trkpt>
      <trkpt lat="31.804728" lon="35.078359">
        <ele>601.0</ele>
        <time>2011-07-01T05:34:14Z</time>
      </trkpt>
      <trkpt lat="31.804706" lon="35.07852">
        <ele>604.0</ele>
        <time>2011-07-01T05:34:25Z</time>
      </trkpt>
      <trkpt lat="31.804706" lon="35.07852">
        <time>2011-07-01T05:34:36Z</time>
      </trkpt>
    </trkseg>
    <trkseg>
      <trkpt lat="31.804706" lon="35.07852">
        <time>2011-07-01T05:34:37Z</time>
      </trkpt>
      <trkpt lat="31.804674" lon="35.078766">
        <ele>606.0</ele>
        <time>2011-07-01T05:34:43Z</time>
      </trkpt>
      <trkpt lat="31.804664" lon="35.078847">
        <ele>608.0</ele>
        <time>2011-07-01T05:34:49Z</time>
      </trkpt>
      <trkpt lat="31.804653" lon="35.078927">
        <ele>610.0</ele>
        <time>2011-07-01T05:34:54Z</time>
      </trkpt>
      <trkpt lat="31.804647" lon="35.079008">
        <ele>609.0</ele>
        <time>2011-07-01T05:35:00Z</time>
      </trkpt>
      <trkpt lat="31.804637" lon="35.079088">
        <ele>609.0</ele>
        <time>2011-07-01T05:35:06Z</time>
      </trkpt>
      <trkpt lat="31.804631" lon="35.079169">
        <ele>610.0</ele>
        <time>2011-07-01T05:35:11Z</time>
      </trkpt>
      <trkpt lat="31.804615" lon="35.079249">
        <ele>609.0</ele>
        <time>2011-07-01T05:35:17Z</time>
      </trkpt>
      <trkpt lat="31.804594" lon="35.079324">
        <ele>610.0</ele>
        <time>2011-07-01T05:35:23Z</time>
      </trkpt>
      <trkpt lat="31.804588" lon="35.079399">
        <ele>609.0</ele>
        <time>2011-07-01T05:35:28Z</time>
      </trkpt>
      <trkpt lat="31.804578" lon="35.07948">
        <ele>608.0</ele>
        <time>2011-07-01T05:35:34Z</time>
      </trkpt>
      <trkpt lat="31.804578" lon="35.07956">
        <ele>608.0</ele>
        <time>2011-07-01T05:35:39Z</time>
      </trkpt>
      <trkpt lat="31.804578" lon="35.079646">
        <ele>607.0</ele>
        <time>2011-07-01T05:35:43Z</time>
      </trkpt>
      <trkpt lat="31.804567" lon="35.079721">
        <ele>608.0</ele>
        <time>2011-07-01T05:35:47Z</time>
      </trkpt>
      <trkpt lat="31.804562" lon="35.079877">
        <ele>608.0</ele>
        <time>2011-07-01T05:35:57Z</time>
      </trkpt>
      <trkpt lat="31.804556" lon="35.079963">
        <ele>608.0</ele>
        <time>2011-07-01T05:36:02Z</time>
      </trkpt>
      <trkpt lat="31.804546" lon="35.080048">
        <ele>608.0</ele>
        <time>2011-07-01T05:36:08Z</time>
      </trkpt>
      <trkpt lat="31.804556" lon="35.080124">
        <ele>611.0</ele>
        <time>2011-07-01T05:36:13Z</time>
      </trkpt>
      <trkpt lat="31.804556" lon="35.080204">
        <ele>613.0</ele>
        <time>2011-07-01T05:36:19Z</time>
      </trkpt>
      <trkpt lat="31.804556" lon="35.080279">
        <ele>613.0</ele>
        <time>2011-07-01T05:36:24Z</time>
      </trkpt>
      <trkpt lat="31.804546" lon="35.080354">
        <ele>613.0</ele>
        <time>2011-07-01T05:36:29Z</time>
      </trkpt>
      <trkpt lat="31.804535" lon="35.080435">
        <ele>613.0</ele>
        <time>2011-07-01T05:36:35Z</time>
      </trkpt>
      <trkpt lat="31.804503" lon="35.080515">
        <ele>610.0</ele>
        <time>2011-07-01T05:36:40Z</time>
      </trkpt>
      <trkpt lat="31.804497" lon="35.08059">
        <ele>611.0</ele>
        <time>2011-07-01T05:36:45Z</time>
      </trkpt>
      <trkpt lat="31.804481" lon="35.080671">
        <ele>612.0</ele>
        <time>2011-07-01T05:36:51Z</time>
      </trkpt>
      <trkpt lat="31.804454" lon="35.08074">
        <ele>615.0</ele>
        <time>2011-07-01T05:36:57Z</time>
      </trkpt>
      <trkpt lat="31.804411" lon="35.080821">
        <ele>614.0</ele>
        <time>2011-07-01T05:37:02Z</time>
      </trkpt>
      <trkpt lat="31.804374" lon="35.080885">
        <ele>615.0</ele>
        <time>2011-07-01T05:37:06Z</time>
      </trkpt>
      <trkpt lat="31.804347" lon="35.080955">
        <ele>616.0</ele>
        <time>2011-07-01T05:37:10Z</time>
      </trkpt>
      <trkpt lat="31.804331" lon="35.081035">
        <ele>616.0</ele>
        <time>2011-07-01T05:37:15Z</time>
      </trkpt>
      <trkpt lat="31.804299" lon="35.081111">
        <ele>617.0</ele>
        <time>2011-07-01T05:37:20Z</time>
      </trkpt>
      <trkpt lat="31.804267" lon="35.081186">
        <ele>619.0</ele>
        <time>2011-07-01T05:37:25Z</time>
      </trkpt>
      <trkpt lat="31.804256" lon="35.081261">
        <ele>620.0</ele>
        <time>2011-07-01T05:37:30Z</time>
      </trkpt>
      <trkpt lat="31.80424" lon="35.081336">
        <ele>620.0</ele>
        <time>2011-07-01T05:37:35Z</time>
      </trkpt>
      <trkpt lat="31.804229" lon="35.081411">
        <ele>619.0</ele>
        <time>2011-07-01T05:37:40Z</time>
      </trkpt>
      <trkpt lat="31.804213" lon="35.081486">
        <ele>621.0</ele>
        <time>2011-07-01T05:37:45Z</time>
      </trkpt>
      <trkpt lat="31.804202" lon="35.081567">
        <ele>622.0</ele>
        <time>2011-07-01T05:37:50Z</time>
      </trkpt>
      <trkpt lat="31.804186" lon="35.081647">
        <ele>623.0</ele>
        <time>2011-07-01T05:37:55Z</time>
      </trkpt>
      <trkpt lat="31.804175" lon="35.081728">
        <ele>624.0</ele>
        <time>2011-07-01T05:38:00Z</time>
      </trkpt>
      <trkpt lat="31.80417" lon="35.081803">
        <ele>624.0</ele>
        <time>2011-07-01T05:38:04Z</time>
      </trkpt>
      <trkpt lat="31.804159" lon="35.081899">
        <ele>624.0</ele>
        <time>2011-07-01T05:38:09Z</time>
      </trkpt>
      <trkpt lat="31.804143" lon="35.081974">
        <ele>624.0</ele>
        <time>2011-07-01T05:38:13Z</time>
      </trkpt>
      <trkpt lat="31.804138" lon="35.08206">
        <ele>624.0</ele>
        <time>2011-07-01T05:38:16Z</time>
      </trkpt>
      <trkpt lat="31.804138" lon="35.082141">
        <ele>626.0</ele>
        <time>2011-07-01T05:38:20Z</time>
      </trkpt>
      <trkpt lat="31.804132" lon="35.082226">
        <ele>627.0</ele>
        <time>2011-07-01T05:38:24Z</time>
      </trkpt>
      <trkpt lat="31.804122" lon="35.082301">
        <ele>627.0</ele>
        <time>2011-07-01T05:38:28Z</time>
      </trkpt>
      <trkpt lat="31.804127" lon="35.082393">
        <ele>629.0</ele>
        <time>2011-07-01T05:38:32Z</time>
      </trkpt>
      <trkpt lat="31.804127" lon="35.082479">
        <ele>628.0</ele>
        <time>2011-07-01T05:38:36Z</time>
      </trkpt>
      <trkpt lat="31.804122" lon="35.082564">
        <ele>630.0</ele>
        <time>2011-07-01T05:38:40Z</time>
      </trkpt>
      <trkpt lat="31.804111" lon="35.082656">
        <ele>633.0</ele>
        <time>2011-07-01T05:38:45Z</time>
      </trkpt>
      <trkpt lat="31.804111" lon="35.082741">
        <ele>634.0</ele>
        <time>2011-07-01T05:38:49Z</time>
      </trkpt>
      <trkpt lat="31.804111" lon="35.082822">
        <ele>633.0</ele>
        <time>2011-07-01T05:38:52Z</time>
      </trkpt>
      <trkpt lat="31.804095" lon="35.082897">
        <ele>632.0</ele>
        <time>2011-07-01T05:38:56Z</time>
      </trkpt>
      <trkpt lat="31.804073" lon="35.083069">
        <ele>630.0</ele>
        <time>2011-07-01T05:39:03Z</time>
      </trkpt>
      <trkpt lat="31.804073" lon="35.083144">
        <ele>630.0</ele>
        <time>2011-07-01T05:39:07Z</time>
      </trkpt>
      <trkpt lat="31.804057" lon="35.083224">
        <ele>631.0</ele>
        <time>2011-07-01T05:39:11Z</time>
      </trkpt>
      <trkpt lat="31.804036" lon="35.08331">
        <ele>631.0</ele>
        <time>2011-07-01T05:39:15Z</time>
      </trkpt>
      <trkpt lat="31.804014" lon="35.08339">
        <ele>632.0</ele>
        <time>2011-07-01T05:39:19Z</time>
      </trkpt>
      <trkpt lat="31.803993" lon="35.083471">
        <ele>631.0</ele>
        <time>2011-07-01T05:39:23Z</time>
      </trkpt>
      <trkpt lat="31.803961" lon="35.083557">
        <ele>632.0</ele>
        <time>2011-07-01T05:39:27Z</time>
      </trkpt>
      <trkpt lat="31.803939" lon="35.083637">
        <ele>633.0</ele>
        <time>2011-07-01T05:39:32Z</time>
      </trkpt>
      <trkpt lat="31.803913" lon="35.083707">
        <ele>633.0</ele>
        <time>2011-07-01T05:39:36Z</time>
      </trkpt>
      <trkpt lat="31.803891" lon="35.083787">
        <ele>633.0</ele>
        <time>2011-07-01T05:39:41Z</time>
      </trkpt>
      <trkpt lat="31.80387" lon="35.083879">
        <ele>635.0</ele>
        <time>2011-07-01T05:39:45Z</time>
      </trkpt>
      <trkpt lat="31.803859" lon="35.083964">
        <ele>635.0</ele>
        <time>2011-07-01T05:39:49Z</time>
      </trkpt>
      <trkpt lat="31.803848" lon="35.084045">
        <ele>636.0</ele>
        <time>2011-07-01T05:39:53Z</time>
      </trkpt>
      <trkpt lat="31.803843" lon="35.084125">
        <ele>636.0</ele>
        <time>2011-07-01T05:39:58Z</time>
      </trkpt>
      <trkpt lat="31.803832" lon="35.084206">
        <ele>637.0</ele>
        <time>2011-07-01T05:40:02Z</time>
      </trkpt>
      <trkpt lat="31.803811" lon="35.084297">
        <ele>636.0</ele>
        <time>2011-07-01T05:40:06Z</time>
      </trkpt>
      <trkpt lat="31.8038" lon="35.084378">
        <ele>635.0</ele>
        <time>2011-07-01T05:40:10Z</time>
      </trkpt>
      <trkpt lat="31.803795" lon="35.084469">
        <ele>637.0</ele>
        <time>2011-07-01T05:40:15Z</time>
      </trkpt>
      <trkpt lat="31.803795" lon="35.084555">
        <ele>637.0</ele>
        <time>2011-07-01T05:40:19Z</time>
      </trkpt>
      <trkpt lat="31.8038" lon="35.084635">
        <ele>639.0</ele>
        <time>2011-07-01T05:40:23Z</time>
      </trkpt>
      <trkpt lat="31.803811" lon="35.084715">
        <ele>641.0</ele>
        <time>2011-07-01T05:40:27Z</time>
      </trkpt>
      <trkpt lat="31.803816" lon="35.084791">
        <ele>643.0</ele>
        <time>2011-07-01T05:40:31Z</time>
      </trkpt>
      <trkpt lat="31.803837" lon="35.084882">
        <ele>644.0</ele>
        <time>2011-07-01T05:40:36Z</time>
      </trkpt>
      <trkpt lat="31.803902" lon="35.085112">
        <ele>645.0</ele>
        <time>2011-07-01T05:40:47Z</time>
      </trkpt>
      <trkpt lat="31.803902" lon="35.085112">
        <time>2011-07-01T05:40:59Z</time>
      </trkpt>
    </trkseg>
    <trkseg>
      <trkpt lat="31.803902" lon="35.085112">
        <time>2011-07-01T05:42:11Z</time>
      </trkpt>
      <trkpt lat="31.803902" lon="35.085112">
        <time>2011-07-01T05:42:23Z</time>
      </trkpt>
    </trkseg>
    <trkseg>
      <trkpt lat="31.803902" lon="35.085112">
        <time>2011-07-01T05:51:30Z</time>
      </trkpt>
      <trkpt lat="31.803966" lon="35.085332">
        <ele>646.0</ele>
        <time>2011-07-01T05:51:40Z</time>
      </trkpt>
      <trkpt lat="31.803972" lon="35.085413">
        <ele>648.0</ele>
        <time>2011-07-01T05:51:44Z</time>
      </trkpt>
      <trkpt lat="31.803972" lon="35.085493">
        <ele>648.0</ele>
        <time>2011-07-01T05:51:49Z</time>
      </trkpt>
      <trkpt lat="31.803966" lon="35.085574">
        <ele>646.0</ele>
        <time>2011-07-01T05:51:53Z</time>
      </trkpt>
      <trkpt lat="31.803955" lon="35.085654">
        <ele>646.0</ele>
        <time>2011-07-01T05:51:57Z</time>
      </trkpt>
      <trkpt lat="31.803939" lon="35.085745">
        <ele>646.0</ele>
        <time>2011-07-01T05:52:01Z</time>
      </trkpt>
      <trkpt lat="31.803929" lon="35.085831">
        <ele>648.0</ele>
        <time>2011-07-01T05:52:05Z</time>
      </trkpt>
      <trkpt lat="31.803907" lon="35.085912">
        <ele>648.0</ele>
        <time>2011-07-01T05:52:09Z</time>
      </trkpt>
      <trkpt lat="31.803848" lon="35.086078">
        <ele>650.0</ele>
        <time>2011-07-01T05:52:16Z</time>
      </trkpt>
      <trkpt lat="31.803811" lon="35.086164">
        <ele>650.0</ele>
        <time>2011-07-01T05:52:19Z</time>
      </trkpt>
      <trkpt lat="31.803789" lon="35.086234">
        <ele>650.0</ele>
        <time>2011-07-01T05:52:22Z</time>
      </trkpt>
      <trkpt lat="31.803757" lon="35.086309">
        <ele>651.0</ele>
        <time>2011-07-01T05:52:25Z</time>
      </trkpt>
      <trkpt lat="31.803703" lon="35.086373">
        <ele>653.0</ele>
        <time>2011-07-01T05:52:29Z</time>
      </trkpt>
      <trkpt lat="31.803644" lon="35.086432">
        <ele>654.0</ele>
        <time>2011-07-01T05:52:35Z</time>
      </trkpt>
      <trkpt lat="31.803575" lon="35.086459">
        <ele>654.0</ele>
        <time>2011-07-01T05:52:39Z</time>
      </trkpt>
      <trkpt lat="31.80351" lon="35.086459">
        <ele>655.0</ele>
        <time>2011-07-01T05:52:42Z</time>
      </trkpt>
      <trkpt lat="31.803424" lon="35.086432">
        <ele>656.0</ele>
        <time>2011-07-01T05:52:46Z</time>
      </trkpt>
      <trkpt lat="31.803355" lon="35.0864">
        <ele>657.0</ele>
        <time>2011-07-01T05:52:49Z</time>
      </trkpt>
      <trkpt lat="31.80328" lon="35.086421">
        <ele>656.0</ele>
        <time>2011-07-01T05:52:53Z</time>
      </trkpt>
      <trkpt lat="31.803204" lon="35.086427">
        <ele>658.0</ele>
        <time>2011-07-01T05:52:57Z</time>
      </trkpt>
      <trkpt lat="31.80314" lon="35.086454">
        <ele>657.0</ele>
        <time>2011-07-01T05:53:01Z</time>
      </trkpt>
      <trkpt lat="31.803065" lon="35.086491">
        <ele>657.0</ele>
        <time>2011-07-01T05:53:06Z</time>
      </trkpt>
      <trkpt lat="31.803001" lon="35.086513">
        <ele>658.0</ele>
        <time>2011-07-01T05:53:11Z</time>
      </trkpt>
      <trkpt lat="31.802931" lon="35.086539">
        <ele>659.0</ele>
        <time>2011-07-01T05:53:17Z</time>
      </trkpt>
      <trkpt lat="31.802872" lon="35.086582">
        <ele>661.0</ele>
        <time>2011-07-01T05:53:24Z</time>
      </trkpt>
      <trkpt lat="31.802813" lon="35.086614">
        <ele>662.0</ele>
        <time>2011-07-01T05:53:30Z</time>
      </trkpt>
      <trkpt lat="31.802743" lon="35.086641">
        <ele>663.0</ele>
        <time>2011-07-01T05:53:37Z</time>
      </trkpt>
      <trkpt lat="31.802673" lon="35.086668">
        <ele>663.0</ele>
        <time>2011-07-01T05:53:43Z</time>
      </trkpt>
      <trkpt lat="31.802614" lon="35.086695">
        <ele>665.0</ele>
        <time>2011-07-01T05:53:48Z</time>
      </trkpt>
      <trkpt lat="31.80255" lon="35.086722">
        <ele>666.0</ele>
        <time>2011-07-01T05:53:54Z</time>
      </trkpt>
      <trkpt lat="31.802475" lon="35.086738">
        <ele>668.0</ele>
        <time>2011-07-01T05:54:00Z</time>
      </trkpt>
      <trkpt lat="31.802405" lon="35.086754">
        <ele>671.0</ele>
        <time>2011-07-01T05:54:06Z</time>
      </trkpt>
      <trkpt lat="31.802346" lon="35.086781">
        <ele>671.0</ele>
        <time>2011-07-01T05:54:12Z</time>
      </trkpt>
      <trkpt lat="31.802287" lon="35.086818">
        <ele>672.0</ele>
        <time>2011-07-01T05:54:17Z</time>
      </trkpt>
      <trkpt lat="31.802223" lon="35.086856">
        <ele>673.0</ele>
        <time>2011-07-01T05:54:22Z</time>
      </trkpt>
      <trkpt lat="31.802158" lon="35.086904">
        <ele>672.0</ele>
        <time>2011-07-01T05:54:27Z</time>
      </trkpt>
      <trkpt lat="31.802099" lon="35.086947">
        <ele>672.0</ele>
        <time>2011-07-01T05:54:32Z</time>
      </trkpt>
      <trkpt lat="31.80204" lon="35.086995">
        <ele>673.0</ele>
        <time>2011-07-01T05:54:38Z</time>
      </trkpt>
      <trkpt lat="31.801971" lon="35.087022">
        <ele>674.0</ele>
        <time>2011-07-01T05:54:43Z</time>
      </trkpt>
      <trkpt lat="31.801906" lon="35.087044">
        <ele>678.0</ele>
        <time>2011-07-01T05:54:49Z</time>
      </trkpt>
      <trkpt lat="31.801842" lon="35.087054">
        <ele>678.0</ele>
        <time>2011-07-01T05:54:55Z</time>
      </trkpt>
      <trkpt lat="31.801772" lon="35.087076">
        <ele>679.0</ele>
        <time>2011-07-01T05:55:01Z</time>
      </trkpt>
      <trkpt lat="31.801702" lon="35.087081">
        <ele>680.0</ele>
        <time>2011-07-01T05:55:06Z</time>
      </trkpt>
      <trkpt lat="31.801638" lon="35.087097">
        <ele>679.0</ele>
        <time>2011-07-01T05:55:12Z</time>
      </trkpt>
      <trkpt lat="31.801638" lon="35.087097">
        <time>2011-07-01T05:55:23Z</time>
      </trkpt>
    </trkseg>
    <trkseg>
      <trkpt lat="31.801638" lon="35.087097">
        <time>2011-07-01T05:55:30Z</time>
      </trkpt>
      <trkpt lat="31.801756" lon="35.087022">
        <ele>681.0</ele>
        <time>2011-07-01T05:55:35Z</time>
      </trkpt>
      <trkpt lat="31.801794" lon="35.086952">
        <ele>680.0</ele>
        <time>2011-07-01T05:55:42Z</time>
      </trkpt>
      <trkpt lat="31.801729" lon="35.086942">
        <ele>680.0</ele>
        <time>2011-07-01T05:55:47Z</time>
      </trkpt>
      <trkpt lat="31.801702" lon="35.087017">
        <ele>680.0</ele>
        <time>2011-07-01T05:55:55Z</time>
      </trkpt>
      <trkpt lat="31.801643" lon="35.08706">
        <ele>680.0</ele>
        <time>2011-07-01T05:56:02Z</time>
      </trkpt>
      <trkpt lat="31.801643" lon="35.08706">
        <time>2011-07-01T05:56:13Z</time>
      </trkpt>
    </trkseg>
    <trkseg>
      <trkpt lat="31.801643" lon="35.08706">
        <time>2011-07-01T05:56:21Z</time>
      </trkpt>
      <trkpt lat="31.801767" lon="35.086995">
        <ele>680.0</ele>
        <time>2011-07-01T05:56:27Z</time>
      </trkpt>
      <trkpt lat="31.801767" lon="35.086995">
        <time>2011-07-01T05:56:38Z</time>
      </trkpt>
    </trkseg>
    <trkseg>
      <trkpt lat="31.801767" lon="35.086995">
        <time>2011-07-01T06:00:22Z</time>
      </trkpt>
      <trkpt lat="31.801874" lon="35.086877">
        <ele>677.0</ele>
        <time>2011-07-01T06:00:25Z</time>
      </trkpt>
      <trkpt lat="31.801987" lon="35.086759">
        <ele>676.0</ele>
        <time>2011-07-01T06:00:31Z</time>
      </trkpt>
      <trkpt lat="31.802046" lon="35.0867">
        <ele>676.0</ele>
        <time>2011-07-01T06:00:34Z</time>
      </trkpt>
      <trkpt lat="31.802094" lon="35.086625">
        <ele>675.0</ele>
        <time>2011-07-01T06:00:37Z</time>
      </trkpt>
      <trkpt lat="31.802217" lon="35.086475">
        <ele>674.0</ele>
        <time>2011-07-01T06:00:42Z</time>
      </trkpt>
      <trkpt lat="31.802325" lon="35.086319">
        <ele>672.0</ele>
        <time>2011-07-01T06:00:46Z</time>
      </trkpt>
      <trkpt lat="31.802389" lon="35.086083">
        <ele>672.0</ele>
        <time>2011-07-01T06:00:50Z</time>
      </trkpt>
      <trkpt lat="31.802378" lon="35.085906">
        <ele>672.0</ele>
        <time>2011-07-01T06:00:54Z</time>
      </trkpt>
      <trkpt lat="31.802394" lon="35.085821">
        <ele>672.0</ele>
        <time>2011-07-01T06:00:57Z</time>
      </trkpt>
      <trkpt lat="31.802443" lon="35.085665">
        <ele>671.0</ele>
        <time>2011-07-01T06:01:03Z</time>
      </trkpt>
      <trkpt lat="31.802491" lon="35.085515">
        <ele>671.0</ele>
        <time>2011-07-01T06:01:07Z</time>
      </trkpt>
      <trkpt lat="31.802545" lon="35.085311">
        <ele>670.0</ele>
        <time>2011-07-01T06:01:11Z</time>
      </trkpt>
      <trkpt lat="31.802571" lon="35.085096">
        <ele>671.0</ele>
        <time>2011-07-01T06:01:15Z</time>
      </trkpt>
      <trkpt lat="31.802614" lon="35.084855">
        <ele>671.0</ele>
        <time>2011-07-01T06:01:19Z</time>
      </trkpt>
      <trkpt lat="31.802609" lon="35.084603">
        <ele>670.0</ele>
        <time>2011-07-01T06:01:23Z</time>
      </trkpt>
      <trkpt lat="31.802604" lon="35.084394">
        <ele>669.0</ele>
        <time>2011-07-01T06:01:27Z</time>
      </trkpt>
      <trkpt lat="31.802652" lon="35.084163">
        <ele>669.0</ele>
        <time>2011-07-01T06:01:31Z</time>
      </trkpt>
      <trkpt lat="31.802684" lon="35.083846">
        <ele>669.0</ele>
        <time>2011-07-01T06:01:35Z</time>
      </trkpt>
      <trkpt lat="31.802706" lon="35.083616">
        <ele>669.0</ele>
        <time>2011-07-01T06:01:38Z</time>
      </trkpt>
      <trkpt lat="31.802743" lon="35.083342">
        <ele>668.0</ele>
        <time>2011-07-01T06:01:42Z</time>
      </trkpt>
      <trkpt lat="31.802743" lon="35.083133">
        <ele>668.0</ele>
        <time>2011-07-01T06:01:46Z</time>
      </trkpt>
      <trkpt lat="31.802748" lon="35.082967">
        <ele>669.0</ele>
        <time>2011-07-01T06:01:50Z</time>
      </trkpt>
      <trkpt lat="31.802754" lon="35.082795">
        <ele>669.0</ele>
        <time>2011-07-01T06:01:54Z</time>
      </trkpt>
      <trkpt lat="31.802743" lon="35.082629">
        <ele>669.0</ele>
        <time>2011-07-01T06:01:58Z</time>
      </trkpt>
      <trkpt lat="31.802754" lon="35.082479">
        <ele>668.0</ele>
        <time>2011-07-01T06:02:02Z</time>
      </trkpt>
      <trkpt lat="31.802781" lon="35.082307">
        <ele>667.0</ele>
        <time>2011-07-01T06:02:06Z</time>
      </trkpt>
      <trkpt lat="31.802775" lon="35.082124">
        <ele>667.0</ele>
        <time>2011-07-01T06:02:11Z</time>
      </trkpt>
      <trkpt lat="31.802775" lon="35.082124">
        <time>2011-07-01T06:02:22Z</time>
      </trkpt>
    </trkseg>
    <trkseg>
      <trkpt lat="31.802775" lon="35.082124">
        <time>2011-07-01T06:03:13Z</time>
      </trkpt>
      <trkpt lat="31.802759" lon="35.081781">
        <ele>662.0</ele>
        <time>2011-07-01T06:03:18Z</time>
      </trkpt>
      <trkpt lat="31.802743" lon="35.08162">
        <ele>663.0</ele>
        <time>2011-07-01T06:03:22Z</time>
      </trkpt>
      <trkpt lat="31.802663" lon="35.081481">
        <ele>663.0</ele>
        <time>2011-07-01T06:03:26Z</time>
      </trkpt>
      <trkpt lat="31.802459" lon="35.081352">
        <ele>666.0</ele>
        <time>2011-07-01T06:03:34Z</time>
      </trkpt>
      <trkpt lat="31.802394" lon="35.081331">
        <ele>668.0</ele>
        <time>2011-07-01T06:03:37Z</time>
      </trkpt>
      <trkpt lat="31.802335" lon="35.081304">
        <ele>669.0</ele>
        <time>2011-07-01T06:03:40Z</time>
      </trkpt>
      <trkpt lat="31.802271" lon="35.081255">
        <ele>670.0</ele>
        <time>2011-07-01T06:03:44Z</time>
      </trkpt>
      <trkpt lat="31.802217" lon="35.081202">
        <ele>670.0</ele>
        <time>2011-07-01T06:03:48Z</time>
      </trkpt>
      <trkpt lat="31.802169" lon="35.081148">
        <ele>670.0</ele>
        <time>2011-07-01T06:03:52Z</time>
      </trkpt>
      <trkpt lat="31.802121" lon="35.081089">
        <ele>671.0</ele>
        <time>2011-07-01T06:03:56Z</time>
      </trkpt>
      <trkpt lat="31.802078" lon="35.081025">
        <ele>670.0</ele>
        <time>2011-07-01T06:04:00Z</time>
      </trkpt>
      <trkpt lat="31.802035" lon="35.080955">
        <ele>670.0</ele>
        <time>2011-07-01T06:04:05Z</time>
      </trkpt>
      <trkpt lat="31.801987" lon="35.080901">
        <ele>670.0</ele>
        <time>2011-07-01T06:04:08Z</time>
      </trkpt>
      <trkpt lat="31.801885" lon="35.080767">
        <ele>669.0</ele>
        <time>2011-07-01T06:04:13Z</time>
      </trkpt>
      <trkpt lat="31.801761" lon="35.080671">
        <ele>669.0</ele>
        <time>2011-07-01T06:04:17Z</time>
      </trkpt>
      <trkpt lat="31.801617" lon="35.080596">
        <ele>669.0</ele>
        <time>2011-07-01T06:04:21Z</time>
      </trkpt>
      <trkpt lat="31.801402" lon="35.080504">
        <ele>669.0</ele>
        <time>2011-07-01T06:04:25Z</time>
      </trkpt>
      <trkpt lat="31.801316" lon="35.080478">
        <ele>669.0</ele>
        <time>2011-07-01T06:04:27Z</time>
      </trkpt>
      <trkpt lat="31.801316" lon="35.080478">
        <time>2011-07-01T06:04:38Z</time>
      </trkpt>
    </trkseg>
    <trkseg>
      <trkpt lat="31.801316" lon="35.080478">
        <time>2011-07-01T06:04:39Z</time>
      </trkpt>
      <trkpt lat="31.801316" lon="35.080478">
        <time>2011-07-01T06:04:51Z</time>
      </trkpt>
    </trkseg>
    <trkseg>
      <trkpt lat="31.801316" lon="35.080478">
        <time>2011-07-01T06:05:25Z</time>
      </trkpt>
      <trkpt lat="31.801225" lon="35.080177">
        <ele>667.0</ele>
        <time>2011-07-01T06:05:28Z</time>
      </trkpt>
      <trkpt lat="31.801246" lon="35.079989">
        <ele>667.0</ele>
        <time>2011-07-01T06:05:34Z</time>
      </trkpt>
      <trkpt lat="31.801257" lon="35.079909">
        <ele>666.0</ele>
        <time>2011-07-01T06:05:37Z</time>
      </trkpt>
      <trkpt lat="31.801246" lon="35.079829">
        <ele>666.0</ele>
        <time>2011-07-01T06:05:41Z</time>
      </trkpt>
      <trkpt lat="31.801166" lon="35.079786">
        <ele>666.0</ele>
        <time>2011-07-01T06:05:45Z</time>
      </trkpt>
      <trkpt lat="31.801107" lon="35.079732">
        <ele>665.0</ele>
        <time>2011-07-01T06:05:48Z</time>
      </trkpt>
      <trkpt lat="31.801075" lon="35.079555">
        <ele>665.0</ele>
        <time>2011-07-01T06:05:53Z</time>
      </trkpt>
      <trkpt lat="31.801037" lon="35.079373">
        <ele>663.0</ele>
        <time>2011-07-01T06:05:57Z</time>
      </trkpt>
      <trkpt lat="31.801" lon="35.079212">
        <ele>662.0</ele>
        <time>2011-07-01T06:06:01Z</time>
      </trkpt>
      <trkpt lat="31.800973" lon="35.079018">
        <ele>661.0</ele>
        <time>2011-07-01T06:06:05Z</time>
      </trkpt>
      <trkpt lat="31.800957" lon="35.078766">
        <ele>660.0</ele>
        <time>2011-07-01T06:06:09Z</time>
      </trkpt>
      <trkpt lat="31.800946" lon="35.078503">
        <ele>658.0</ele>
        <time>2011-07-01T06:06:13Z</time>
      </trkpt>
      <trkpt lat="31.80093" lon="35.078251">
        <ele>656.0</ele>
        <time>2011-07-01T06:06:17Z</time>
      </trkpt>
      <trkpt lat="31.800919" lon="35.077989">
        <ele>653.0</ele>
        <time>2011-07-01T06:06:21Z</time>
      </trkpt>
      <trkpt lat="31.800908" lon="35.077752">
        <ele>652.0</ele>
        <time>2011-07-01T06:06:25Z</time>
      </trkpt>
      <trkpt lat="31.800919" lon="35.077495">
        <ele>651.0</ele>
        <time>2011-07-01T06:06:29Z</time>
      </trkpt>
      <trkpt lat="31.800935" lon="35.077243">
        <ele>649.0</ele>
        <time>2011-07-01T06:06:33Z</time>
      </trkpt>
      <trkpt lat="31.800941" lon="35.077023">
        <ele>648.0</ele>
        <time>2011-07-01T06:06:37Z</time>
      </trkpt>
      <trkpt lat="31.800962" lon="35.076803">
        <ele>649.0</ele>
        <time>2011-07-01T06:06:41Z</time>
      </trkpt>
      <trkpt lat="31.801059" lon="35.076663">
        <ele>646.0</ele>
        <time>2011-07-01T06:06:45Z</time>
      </trkpt>
      <trkpt lat="31.801118" lon="35.076497">
        <ele>645.0</ele>
        <time>2011-07-01T06:06:50Z</time>
      </trkpt>
      <trkpt lat="31.801102" lon="35.076422">
        <ele>644.0</ele>
        <time>2011-07-01T06:06:52Z</time>
      </trkpt>
      <trkpt lat="31.800978" lon="35.076342">
        <ele>641.0</ele>
        <time>2011-07-01T06:06:58Z</time>
      </trkpt>
      <trkpt lat="31.800908" lon="35.076358">
        <ele>641.0</ele>
        <time>2011-07-01T06:07:01Z</time>
      </trkpt>
      <trkpt lat="31.800844" lon="35.076385">
        <ele>643.0</ele>
        <time>2011-07-01T06:07:04Z</time>
      </trkpt>
      <trkpt lat="31.800758" lon="35.076347">
        <ele>643.0</ele>
        <time>2011-07-01T06:07:08Z</time>
      </trkpt>
      <trkpt lat="31.800683" lon="35.07632">
        <ele>642.0</ele>
        <time>2011-07-01T06:07:12Z</time>
      </trkpt>
      <trkpt lat="31.800683" lon="35.07632">
        <time>2011-07-01T06:07:24Z</time>
      </trkpt>
    </trkseg>
    <trkseg>
      <trkpt lat="31.800683" lon="35.07632">
        <time>2011-07-01T06:07:40Z</time>
      </trkpt>
      <trkpt lat="31.79953" lon="35.075709">
        <ele>643.0</ele>
        <time>2011-07-01T06:07:42Z</time>
      </trkpt>
      <trkpt lat="31.799455" lon="35.075709">
        <ele>643.0</ele>
        <time>2011-07-01T06:07:44Z</time>
      </trkpt>
      <trkpt lat="31.799315" lon="35.075644">
        <ele>644.0</ele>
        <time>2011-07-01T06:07:51Z</time>
      </trkpt>
      <trkpt lat="31.799245" lon="35.075601">
        <ele>647.0</ele>
        <time>2011-07-01T06:07:55Z</time>
      </trkpt>
      <trkpt lat="31.799181" lon="35.075575">
        <ele>647.0</ele>
        <time>2011-07-01T06:07:58Z</time>
      </trkpt>
      <trkpt lat="31.799117" lon="35.075537">
        <ele>647.0</ele>
        <time>2011-07-01T06:08:01Z</time>
      </trkpt>
      <trkpt lat="31.798972" lon="35.075489">
        <ele>645.0</ele>
        <time>2011-07-01T06:08:09Z</time>
      </trkpt>
      <trkpt lat="31.798832" lon="35.07543">
        <ele>644.0</ele>
        <time>2011-07-01T06:08:15Z</time>
      </trkpt>
      <trkpt lat="31.798763" lon="35.075414">
        <ele>644.0</ele>
        <time>2011-07-01T06:08:18Z</time>
      </trkpt>
      <trkpt lat="31.798623" lon="35.075408">
        <ele>645.0</ele>
        <time>2011-07-01T06:08:23Z</time>
      </trkpt>
      <trkpt lat="31.798478" lon="35.075381">
        <ele>648.0</ele>
        <time>2011-07-01T06:08:29Z</time>
      </trkpt>
      <trkpt lat="31.798393" lon="35.075376">
        <ele>647.0</ele>
        <time>2011-07-01T06:08:33Z</time>
      </trkpt>
      <trkpt lat="31.798242" lon="35.075344">
        <ele>648.0</ele>
        <time>2011-07-01T06:08:39Z</time>
      </trkpt>
      <trkpt lat="31.798162" lon="35.075403">
        <ele>650.0</ele>
        <time>2011-07-01T06:08:42Z</time>
      </trkpt>
      <trkpt lat="31.798092" lon="35.07543">
        <ele>652.0</ele>
        <time>2011-07-01T06:08:45Z</time>
      </trkpt>
      <trkpt lat="31.797963" lon="35.075494">
        <ele>654.0</ele>
        <time>2011-07-01T06:08:51Z</time>
      </trkpt>
      <trkpt lat="31.797942" lon="35.075601">
        <ele>652.0</ele>
        <time>2011-07-01T06:08:54Z</time>
      </trkpt>
      <trkpt lat="31.79792" lon="35.075676">
        <ele>653.0</ele>
        <time>2011-07-01T06:08:57Z</time>
      </trkpt>
      <trkpt lat="31.797953" lon="35.075757">
        <ele>655.0</ele>
        <time>2011-07-01T06:09:00Z</time>
      </trkpt>
      <trkpt lat="31.798022" lon="35.075741">
        <ele>656.0</ele>
        <time>2011-07-01T06:09:05Z</time>
      </trkpt>
      <trkpt lat="31.798087" lon="35.075778">
        <ele>656.0</ele>
        <time>2011-07-01T06:09:11Z</time>
      </trkpt>
      <trkpt lat="31.798114" lon="35.075848">
        <ele>656.0</ele>
        <time>2011-07-01T06:09:16Z</time>
      </trkpt>
      <trkpt lat="31.798167" lon="35.075918">
        <ele>653.0</ele>
        <time>2011-07-01T06:09:24Z</time>
      </trkpt>
      <trkpt lat="31.798237" lon="35.075945">
        <ele>653.0</ele>
        <time>2011-07-01T06:09:29Z</time>
      </trkpt>
      <trkpt lat="31.798307" lon="35.075971">
        <ele>654.0</ele>
        <time>2011-07-01T06:09:34Z</time>
      </trkpt>
      <trkpt lat="31.798307" lon="35.075971">
        <time>2011-07-01T06:09:46Z</time>
      </trkpt>
    </trkseg>
    <trkseg>
      <trkpt lat="31.798307" lon="35.075971">
        <time>2011-07-01T06:09:56Z</time>
      </trkpt>
      <trkpt lat="31.798307" lon="35.075971">
        <time>2011-07-01T06:10:08Z</time>
      </trkpt>
    </trkseg>
    <trkseg>
      <trkpt lat="31.798307" lon="35.075971">
        <time>2011-07-01T06:11:29Z</time>
      </trkpt>
      <trkpt lat="31.798307" lon="35.075971">
        <time>2011-07-01T06:11:41Z</time>
      </trkpt>
    </trkseg>
    <trkseg>
      <trkpt lat="31.798307" lon="35.075971">
        <time>2011-07-01T06:16:20Z</time>
      </trkpt>
      <trkpt lat="31.798307" lon="35.075971">
        <time>2011-07-01T06:16:31Z</time>
      </trkpt>
    </trkseg>
    <trkseg>
      <trkpt lat="31.798307" lon="35.075971">
        <time>2011-07-01T06:18:17Z</time>
      </trkpt>
      <trkpt lat="31.798307" lon="35.075971">
        <time>2011-07-01T06:18:28Z</time>
      </trkpt>
    </trkseg>
    <trkseg>
      <trkpt lat="31.798307" lon="35.075971">
        <time>2011-07-01T06:41:44Z</time>
      </trkpt>
      <trkpt lat="31.798275" lon="35.075896">
        <ele>648.0</ele>
        <time>2011-07-01T06:41:50Z</time>
      </trkpt>
      <trkpt lat="31.798199" lon="35.075886">
        <ele>644.0</ele>
        <time>2011-07-01T06:41:54Z</time>
      </trkpt>
      <trkpt lat="31.79813" lon="35.075848">
        <ele>638.0</ele>
        <time>2011-07-01T06:41:59Z</time>
      </trkpt>
      <trkpt lat="31.798065" lon="35.075843">
        <ele>637.0</ele>
        <time>2011-07-01T06:42:04Z</time>
      </trkpt>
      <trkpt lat="31.797996" lon="35.075794">
        <ele>639.0</ele>
        <time>2011-07-01T06:42:09Z</time>
      </trkpt>
      <trkpt lat="31.79791" lon="35.075778">
        <ele>640.0</ele>
        <time>2011-07-01T06:42:13Z</time>
      </trkpt>
      <trkpt lat="31.797786" lon="35.075875">
        <ele>640.0</ele>
        <time>2011-07-01T06:42:17Z</time>
      </trkpt>
      <trkpt lat="31.797765" lon="35.076057">
        <ele>640.0</ele>
        <time>2011-07-01T06:42:21Z</time>
      </trkpt>
      <trkpt lat="31.797792" lon="35.076267">
        <ele>640.0</ele>
        <time>2011-07-01T06:42:25Z</time>
      </trkpt>
      <trkpt lat="31.797631" lon="35.076449">
        <ele>639.0</ele>
        <time>2011-07-01T06:42:29Z</time>
      </trkpt>
      <trkpt lat="31.797228" lon="35.076524">
        <ele>639.0</ele>
        <time>2011-07-01T06:42:34Z</time>
      </trkpt>
      <trkpt lat="31.796815" lon="35.076572">
        <ele>637.0</ele>
        <time>2011-07-01T06:42:38Z</time>
      </trkpt>
      <trkpt lat="31.796515" lon="35.076615">
        <ele>635.0</ele>
        <time>2011-07-01T06:42:42Z</time>
      </trkpt>
      <trkpt lat="31.796322" lon="35.076685">
        <ele>635.0</ele>
        <time>2011-07-01T06:42:46Z</time>
      </trkpt>
      <trkpt lat="31.796263" lon="35.076717">
        <ele>634.0</ele>
        <time>2011-07-01T06:42:48Z</time>
      </trkpt>
      <trkpt lat="31.796215" lon="35.076776">
        <ele>632.0</ele>
        <time>2011-07-01T06:42:52Z</time>
      </trkpt>
      <trkpt lat="31.796247" lon="35.076841">
        <ele>629.0</ele>
        <time>2011-07-01T06:42:57Z</time>
      </trkpt>
      <trkpt lat="31.796295" lon="35.0769">
        <ele>626.0</ele>
        <time>2011-07-01T06:43:03Z</time>
      </trkpt>
      <trkpt lat="31.796284" lon="35.076991">
        <ele>624.0</ele>
        <time>2011-07-01T06:43:12Z</time>
      </trkpt>
      <trkpt lat="31.796284" lon="35.076991">
        <time>2011-07-01T06:43:23Z</time>
      </trkpt>
    </trkseg>
    <trkseg>
      <trkpt lat="31.796284" lon="35.076991">
        <time>2011-07-01T06:46:15Z</time>
      </trkpt>
      <trkpt lat="31.796467" lon="35.077023">
        <ele>624.0</ele>
        <time>2011-07-01T06:46:17Z</time>
      </trkpt>
      <trkpt lat="31.796638" lon="35.077055">
        <ele>623.0</ele>
        <time>2011-07-01T06:46:21Z</time>
      </trkpt>
      <trkpt lat="31.796966" lon="35.077211">
        <ele>623.0</ele>
        <time>2011-07-01T06:46:26Z</time>
      </trkpt>
      <trkpt lat="31.797218" lon="35.07757">
        <ele>622.0</ele>
        <time>2011-07-01T06:46:30Z</time>
      </trkpt>
      <trkpt lat="31.797282" lon="35.078021">
        <ele>620.0</ele>
        <time>2011-07-01T06:46:34Z</time>
      </trkpt>
      <trkpt lat="31.797325" lon="35.078428">
        <ele>619.0</ele>
        <time>2011-07-01T06:46:38Z</time>
      </trkpt>
      <trkpt lat="31.797379" lon="35.078799">
        <ele>618.0</ele>
        <time>2011-07-01T06:46:42Z</time>
      </trkpt>
      <trkpt lat="31.797432" lon="35.079115">
        <ele>618.0</ele>
        <time>2011-07-01T06:46:46Z</time>
      </trkpt>
      <trkpt lat="31.797438" lon="35.079432">
        <ele>615.0</ele>
        <time>2011-07-01T06:46:50Z</time>
      </trkpt>
      <trkpt lat="31.79747" lon="35.079737">
        <ele>614.0</ele>
        <time>2011-07-01T06:46:54Z</time>
      </trkpt>
      <trkpt lat="31.797518" lon="35.079979">
        <ele>613.0</ele>
        <time>2011-07-01T06:46:58Z</time>
      </trkpt>
      <trkpt lat="31.797604" lon="35.080177">
        <ele>613.0</ele>
        <time>2011-07-01T06:47:02Z</time>
      </trkpt>
      <trkpt lat="31.797556" lon="35.080236">
        <ele>612.0</ele>
        <time>2011-07-01T06:47:06Z</time>
      </trkpt>
      <trkpt lat="31.797556" lon="35.080236">
        <time>2011-07-01T06:47:18Z</time>
      </trkpt>
    </trkseg>
    <trkseg>
      <trkpt lat="31.797556" lon="35.080236">
        <time>2011-07-01T06:49:05Z</time>
      </trkpt>
      <trkpt lat="31.797384" lon="35.079925">
        <ele>600.0</ele>
        <time>2011-07-01T06:49:10Z</time>
      </trkpt>
      <trkpt lat="31.797271" lon="35.079764">
        <ele>601.0</ele>
        <time>2011-07-01T06:49:14Z</time>
      </trkpt>
      <trkpt lat="31.797153" lon="35.079576">
        <ele>601.0</ele>
        <time>2011-07-01T06:49:18Z</time>
      </trkpt>
      <trkpt lat="31.7971" lon="35.079474">
        <ele>601.0</ele>
        <time>2011-07-01T06:49:20Z</time>
      </trkpt>
      <trkpt lat="31.796992" lon="35.079238">
        <ele>600.0</ele>
        <time>2011-07-01T06:49:26Z</time>
      </trkpt>
      <trkpt lat="31.796971" lon="35.079163">
        <ele>600.0</ele>
        <time>2011-07-01T06:49:29Z</time>
      </trkpt>
      <trkpt lat="31.79695" lon="35.078997">
        <ele>599.0</ele>
        <time>2011-07-01T06:49:34Z</time>
      </trkpt>
      <trkpt lat="31.796939" lon="35.078906">
        <ele>597.0</ele>
        <time>2011-07-01T06:49:37Z</time>
      </trkpt>
      <trkpt lat="31.796928" lon="35.078809">
        <ele>596.0</ele>
        <time>2011-07-01T06:49:40Z</time>
      </trkpt>
      <trkpt lat="31.796917" lon="35.078611">
        <ele>593.0</ele>
        <time>2011-07-01T06:49:46Z</time>
      </trkpt>
      <trkpt lat="31.796912" lon="35.078509">
        <ele>593.0</ele>
        <time>2011-07-01T06:49:49Z</time>
      </trkpt>
      <trkpt lat="31.796821" lon="35.078385">
        <ele>590.0</ele>
        <time>2011-07-01T06:49:54Z</time>
      </trkpt>
      <trkpt lat="31.796601" lon="35.07838">
        <ele>589.0</ele>
        <time>2011-07-01T06:49:58Z</time>
      </trkpt>
      <trkpt lat="31.796402" lon="35.078326">
        <ele>589.0</ele>
        <time>2011-07-01T06:50:02Z</time>
      </trkpt>
      <trkpt lat="31.796182" lon="35.078289">
        <ele>588.0</ele>
        <time>2011-07-01T06:50:06Z</time>
      </trkpt>
      <trkpt lat="31.795925" lon="35.078198">
        <ele>589.0</ele>
        <time>2011-07-01T06:50:10Z</time>
      </trkpt>
      <trkpt lat="31.795737" lon="35.078198">
        <ele>589.0</ele>
        <time>2011-07-01T06:50:13Z</time>
      </trkpt>
      <trkpt lat="31.795587" lon="35.078166">
        <ele>589.0</ele>
        <time>2011-07-01T06:50:18Z</time>
      </trkpt>
      <trkpt lat="31.795587" lon="35.078166">
        <time>2011-07-01T06:50:30Z</time>
      </trkpt>
    </trkseg>
    <trkseg>
      <trkpt lat="31.795587" lon="35.078166">
        <time>2011-07-01T06:51:07Z</time>
      </trkpt>
      <trkpt lat="31.795512" lon="35.078048">
        <ele>584.0</ele>
        <time>2011-07-01T06:51:12Z</time>
      </trkpt>
      <trkpt lat="31.795431" lon="35.078053">
        <ele>585.0</ele>
        <time>2011-07-01T06:51:15Z</time>
      </trkpt>
      <trkpt lat="31.79534" lon="35.078021">
        <ele>586.0</ele>
        <time>2011-07-01T06:51:18Z</time>
      </trkpt>
      <trkpt lat="31.795179" lon="35.077967">
        <ele>585.0</ele>
        <time>2011-07-01T06:51:24Z</time>
      </trkpt>
      <trkpt lat="31.795034" lon="35.077935">
        <ele>585.0</ele>
        <time>2011-07-01T06:51:28Z</time>
      </trkpt>
      <trkpt lat="31.794949" lon="35.077913">
        <ele>585.0</ele>
        <time>2011-07-01T06:51:31Z</time>
      </trkpt>
      <trkpt lat="31.794868" lon="35.077919">
        <ele>582.0</ele>
        <time>2011-07-01T06:51:35Z</time>
      </trkpt>
      <trkpt lat="31.794729" lon="35.077897">
        <ele>580.0</ele>
        <time>2011-07-01T06:51:40Z</time>
      </trkpt>
      <trkpt lat="31.794584" lon="35.077844">
        <ele>580.0</ele>
        <time>2011-07-01T06:51:44Z</time>
      </trkpt>
      <trkpt lat="31.794434" lon="35.077806">
        <ele>580.0</ele>
        <time>2011-07-01T06:51:48Z</time>
      </trkpt>
      <trkpt lat="31.794348" lon="35.077801">
        <ele>580.0</ele>
        <time>2011-07-01T06:51:51Z</time>
      </trkpt>
      <trkpt lat="31.794289" lon="35.077769">
        <ele>580.0</ele>
        <time>2011-07-01T06:51:54Z</time>
      </trkpt>
      <trkpt lat="31.794106" lon="35.077763">
        <ele>581.0</ele>
        <time>2011-07-01T06:52:00Z</time>
      </trkpt>
      <trkpt lat="31.793956" lon="35.077683">
        <ele>582.0</ele>
        <time>2011-07-01T06:52:08Z</time>
      </trkpt>
      <trkpt lat="31.793844" lon="35.077688">
        <ele>583.0</ele>
        <time>2011-07-01T06:52:11Z</time>
      </trkpt>
      <trkpt lat="31.793688" lon="35.077699">
        <ele>583.0</ele>
        <time>2011-07-01T06:52:15Z</time>
      </trkpt>
      <trkpt lat="31.793532" lon="35.077667">
        <ele>583.0</ele>
        <time>2011-07-01T06:52:19Z</time>
      </trkpt>
      <trkpt lat="31.793457" lon="35.077645">
        <ele>582.0</ele>
        <time>2011-07-01T06:52:21Z</time>
      </trkpt>
      <trkpt lat="31.793248" lon="35.077527">
        <ele>580.0</ele>
        <time>2011-07-01T06:52:27Z</time>
      </trkpt>
      <trkpt lat="31.7932" lon="35.077452">
        <ele>581.0</ele>
        <time>2011-07-01T06:52:30Z</time>
      </trkpt>
      <trkpt lat="31.793135" lon="35.077398">
        <ele>583.0</ele>
        <time>2011-07-01T06:52:34Z</time>
      </trkpt>
      <trkpt lat="31.79306" lon="35.077404">
        <ele>584.0</ele>
        <time>2011-07-01T06:52:38Z</time>
      </trkpt>
      <trkpt lat="31.79306" lon="35.077404">
        <time>2011-07-01T06:52:50Z</time>
      </trkpt>
    </trkseg>
    <trkseg>
      <trkpt lat="31.79306" lon="35.077404">
        <time>2011-07-01T06:53:00Z</time>
      </trkpt>
      <trkpt lat="31.792937" lon="35.077366">
        <ele>586.0</ele>
        <time>2011-07-01T06:53:03Z</time>
      </trkpt>
      <trkpt lat="31.792883" lon="35.077313">
        <ele>586.0</ele>
        <time>2011-07-01T06:53:07Z</time>
      </trkpt>
      <trkpt lat="31.79283" lon="35.077237">
        <ele>586.0</ele>
        <time>2011-07-01T06:53:10Z</time>
      </trkpt>
      <trkpt lat="31.79276" lon="35.077034">
        <ele>583.0</ele>
        <time>2011-07-01T06:53:14Z</time>
      </trkpt>
      <trkpt lat="31.792728" lon="35.076798">
        <ele>581.0</ele>
        <time>2011-07-01T06:53:18Z</time>
      </trkpt>
      <trkpt lat="31.792696" lon="35.076588">
        <ele>581.0</ele>
        <time>2011-07-01T06:53:22Z</time>
      </trkpt>
      <trkpt lat="31.792712" lon="35.076401">
        <ele>582.0</ele>
        <time>2011-07-01T06:53:26Z</time>
      </trkpt>
      <trkpt lat="31.792738" lon="35.076315">
        <ele>581.0</ele>
        <time>2011-07-01T06:53:28Z</time>
      </trkpt>
      <trkpt lat="31.792889" lon="35.075982">
        <ele>583.0</ele>
        <time>2011-07-01T06:53:36Z</time>
      </trkpt>
      <trkpt lat="31.79298" lon="35.075778">
        <ele>583.0</ele>
        <time>2011-07-01T06:53:39Z</time>
      </trkpt>
      <trkpt lat="31.793141" lon="35.07543">
        <ele>584.0</ele>
        <time>2011-07-01T06:53:44Z</time>
      </trkpt>
      <trkpt lat="31.793146" lon="35.075172">
        <ele>583.0</ele>
        <time>2011-07-01T06:53:48Z</time>
      </trkpt>
      <trkpt lat="31.793044" lon="35.07499">
        <ele>581.0</ele>
        <time>2011-07-01T06:53:52Z</time>
      </trkpt>
      <trkpt lat="31.79291" lon="35.074829">
        <ele>580.0</ele>
        <time>2011-07-01T06:53:55Z</time>
      </trkpt>
      <trkpt lat="31.792733" lon="35.07463">
        <ele>579.0</ele>
        <time>2011-07-01T06:53:59Z</time>
      </trkpt>
      <trkpt lat="31.792631" lon="35.074421">
        <ele>578.0</ele>
        <time>2011-07-01T06:54:03Z</time>
      </trkpt>
      <trkpt lat="31.792535" lon="35.07426">
        <ele>577.0</ele>
        <time>2011-07-01T06:54:07Z</time>
      </trkpt>
      <trkpt lat="31.792395" lon="35.074078">
        <ele>576.0</ele>
        <time>2011-07-01T06:54:11Z</time>
      </trkpt>
      <trkpt lat="31.792266" lon="35.073895">
        <ele>575.0</ele>
        <time>2011-07-01T06:54:14Z</time>
      </trkpt>
      <trkpt lat="31.792014" lon="35.0736">
        <ele>572.0</ele>
        <time>2011-07-01T06:54:19Z</time>
      </trkpt>
      <trkpt lat="31.791869" lon="35.073466">
        <ele>571.0</ele>
        <time>2011-07-01T06:54:22Z</time>
      </trkpt>
      <trkpt lat="31.791714" lon="35.073327">
        <ele>565.0</ele>
        <time>2011-07-01T06:54:26Z</time>
      </trkpt>
      <trkpt lat="31.791649" lon="35.073241">
        <ele>563.0</ele>
        <time>2011-07-01T06:54:28Z</time>
      </trkpt>
      <trkpt lat="31.791489" lon="35.073016">
        <ele>564.0</ele>
        <time>2011-07-01T06:54:34Z</time>
      </trkpt>
      <trkpt lat="31.791408" lon="35.072817">
        <ele>564.0</ele>
        <time>2011-07-01T06:54:38Z</time>
      </trkpt>
      <trkpt lat="31.791387" lon="35.072726">
        <ele>564.0</ele>
        <time>2011-07-01T06:54:40Z</time>
      </trkpt>
      <trkpt lat="31.791322" lon="35.072646">
        <ele>563.0</ele>
        <time>2011-07-01T06:54:43Z</time>
      </trkpt>
      <trkpt lat="31.791043" lon="35.072308">
        <ele>563.0</ele>
        <time>2011-07-01T06:54:55Z</time>
      </trkpt>
      <trkpt lat="31.790979" lon="35.072147">
        <ele>564.0</ele>
        <time>2011-07-01T06:54:59Z</time>
      </trkpt>
      <trkpt lat="31.790909" lon="35.071975">
        <ele>565.0</ele>
        <time>2011-07-01T06:55:03Z</time>
      </trkpt>
      <trkpt lat="31.790802" lon="35.071836">
        <ele>567.0</ele>
        <time>2011-07-01T06:55:07Z</time>
      </trkpt>
      <trkpt lat="31.790727" lon="35.071691">
        <ele>568.0</ele>
        <time>2011-07-01T06:55:11Z</time>
      </trkpt>
      <trkpt lat="31.790614" lon="35.071567">
        <ele>570.0</ele>
        <time>2011-07-01T06:55:15Z</time>
      </trkpt>
      <trkpt lat="31.790571" lon="35.071498">
        <ele>570.0</ele>
        <time>2011-07-01T06:55:17Z</time>
      </trkpt>
      <trkpt lat="31.790485" lon="35.071347">
        <ele>571.0</ele>
        <time>2011-07-01T06:55:23Z</time>
      </trkpt>
      <trkpt lat="31.790485" lon="35.07109">
        <ele>571.0</ele>
        <time>2011-07-01T06:55:31Z</time>
      </trkpt>
      <trkpt lat="31.790459" lon="35.070999">
        <ele>577.0</ele>
        <time>2011-07-01T06:55:34Z</time>
      </trkpt>
      <trkpt lat="31.790459" lon="35.070918">
        <ele>578.0</ele>
        <time>2011-07-01T06:55:37Z</time>
      </trkpt>
      <trkpt lat="31.790469" lon="35.070832">
        <ele>579.0</ele>
        <time>2011-07-01T06:55:40Z</time>
      </trkpt>
      <trkpt lat="31.790475" lon="35.070736">
        <ele>581.0</ele>
        <time>2011-07-01T06:55:44Z</time>
      </trkpt>
      <trkpt lat="31.790512" lon="35.07058">
        <ele>580.0</ele>
        <time>2011-07-01T06:55:51Z</time>
      </trkpt>
      <trkpt lat="31.790528" lon="35.070494">
        <ele>579.0</ele>
        <time>2011-07-01T06:55:54Z</time>
      </trkpt>
      <trkpt lat="31.790544" lon="35.070419">
        <ele>580.0</ele>
        <time>2011-07-01T06:55:57Z</time>
      </trkpt>
      <trkpt lat="31.790459" lon="35.070173">
        <ele>589.0</ele>
        <time>2011-07-01T06:56:06Z</time>
      </trkpt>
      <trkpt lat="31.790437" lon="35.070076">
        <ele>589.0</ele>
        <time>2011-07-01T06:56:09Z</time>
      </trkpt>
      <trkpt lat="31.790378" lon="35.069926">
        <ele>591.0</ele>
        <time>2011-07-01T06:56:15Z</time>
      </trkpt>
      <trkpt lat="31.790346" lon="35.069851">
        <ele>590.0</ele>
        <time>2011-07-01T06:56:18Z</time>
      </trkpt>
      <trkpt lat="31.790308" lon="35.069776">
        <ele>589.0</ele>
        <time>2011-07-01T06:56:21Z</time>
      </trkpt>
      <trkpt lat="31.790265" lon="35.069582">
        <ele>586.0</ele>
        <time>2011-07-01T06:56:27Z</time>
      </trkpt>
      <trkpt lat="31.790223" lon="35.069507">
        <ele>583.0</ele>
        <time>2011-07-01T06:56:30Z</time>
      </trkpt>
      <trkpt lat="31.790185" lon="35.069432">
        <ele>582.0</ele>
        <time>2011-07-01T06:56:33Z</time>
      </trkpt>
      <trkpt lat="31.790153" lon="35.069368">
        <ele>578.0</ele>
        <time>2011-07-01T06:56:36Z</time>
      </trkpt>
      <trkpt lat="31.790051" lon="35.069218">
        <ele>577.0</ele>
        <time>2011-07-01T06:56:43Z</time>
      </trkpt>
      <trkpt lat="31.789976" lon="35.069159">
        <ele>581.0</ele>
        <time>2011-07-01T06:56:46Z</time>
      </trkpt>
      <trkpt lat="31.789911" lon="35.069089">
        <ele>582.0</ele>
        <time>2011-07-01T06:56:49Z</time>
      </trkpt>
      <trkpt lat="31.789761" lon="35.068987">
        <ele>584.0</ele>
        <time>2011-07-01T06:56:55Z</time>
      </trkpt>
      <trkpt lat="31.789718" lon="35.068917">
        <ele>585.0</ele>
        <time>2011-07-01T06:56:58Z</time>
      </trkpt>
      <trkpt lat="31.789654" lon="35.068853">
        <ele>585.0</ele>
        <time>2011-07-01T06:57:01Z</time>
      </trkpt>
      <trkpt lat="31.789557" lon="35.068724">
        <ele>586.0</ele>
        <time>2011-07-01T06:57:07Z</time>
      </trkpt>
      <trkpt lat="31.789498" lon="35.06866">
        <ele>588.0</ele>
        <time>2011-07-01T06:57:10Z</time>
      </trkpt>
      <trkpt lat="31.78938" lon="35.068547">
        <ele>588.0</ele>
        <time>2011-07-01T06:57:15Z</time>
      </trkpt>
      <trkpt lat="31.789294" lon="35.068392">
        <ele>587.0</ele>
        <time>2011-07-01T06:57:21Z</time>
      </trkpt>
      <trkpt lat="31.78923" lon="35.068316">
        <ele>586.0</ele>
        <time>2011-07-01T06:57:24Z</time>
      </trkpt>
      <trkpt lat="31.789176" lon="35.06815">
        <ele>586.0</ele>
        <time>2011-07-01T06:57:30Z</time>
      </trkpt>
      <trkpt lat="31.789155" lon="35.068059">
        <ele>586.0</ele>
        <time>2011-07-01T06:57:34Z</time>
      </trkpt>
      <trkpt lat="31.789139" lon="35.067984">
        <ele>587.0</ele>
        <time>2011-07-01T06:57:37Z</time>
      </trkpt>
      <trkpt lat="31.78915" lon="35.067801">
        <ele>587.0</ele>
        <time>2011-07-01T06:57:43Z</time>
      </trkpt>
      <trkpt lat="31.789171" lon="35.067732">
        <ele>589.0</ele>
        <time>2011-07-01T06:57:47Z</time>
      </trkpt>
      <trkpt lat="31.789235" lon="35.067598">
        <ele>588.0</ele>
        <time>2011-07-01T06:57:55Z</time>
      </trkpt>
      <trkpt lat="31.789284" lon="35.067528">
        <ele>588.0</ele>
        <time>2011-07-01T06:58:00Z</time>
      </trkpt>
      <trkpt lat="31.789364" lon="35.067405">
        <ele>589.0</ele>
        <time>2011-07-01T06:58:10Z</time>
      </trkpt>
      <trkpt lat="31.789412" lon="35.067335">
        <ele>590.0</ele>
        <time>2011-07-01T06:58:14Z</time>
      </trkpt>
      <trkpt lat="31.78945" lon="35.067254">
        <ele>590.0</ele>
        <time>2011-07-01T06:58:18Z</time>
      </trkpt>
      <trkpt lat="31.789493" lon="35.06719">
        <ele>590.0</ele>
        <time>2011-07-01T06:58:22Z</time>
      </trkpt>
      <trkpt lat="31.789509" lon="35.067109">
        <ele>590.0</ele>
        <time>2011-07-01T06:58:27Z</time>
      </trkpt>
      <trkpt lat="31.789541" lon="35.067034">
        <ele>593.0</ele>
        <time>2011-07-01T06:58:33Z</time>
      </trkpt>
      <trkpt lat="31.789573" lon="35.06697">
        <ele>594.0</ele>
        <time>2011-07-01T06:58:37Z</time>
      </trkpt>
      <trkpt lat="31.789611" lon="35.06689">
        <ele>593.0</ele>
        <time>2011-07-01T06:58:41Z</time>
      </trkpt>
      <trkpt lat="31.78967" lon="35.066755">
        <ele>594.0</ele>
        <time>2011-07-01T06:58:49Z</time>
      </trkpt>
      <trkpt lat="31.789713" lon="35.066696">
        <ele>595.0</ele>
        <time>2011-07-01T06:58:54Z</time>
      </trkpt>
      <trkpt lat="31.789783" lon="35.066562">
        <ele>596.0</ele>
        <time>2011-07-01T06:59:02Z</time>
      </trkpt>
      <trkpt lat="31.789815" lon="35.066493">
        <ele>595.0</ele>
        <time>2011-07-01T06:59:06Z</time>
      </trkpt>
      <trkpt lat="31.78989" lon="35.066337">
        <ele>592.0</ele>
        <time>2011-07-01T06:59:14Z</time>
      </trkpt>
      <trkpt lat="31.789927" lon="35.066273">
        <ele>592.0</ele>
        <time>2011-07-01T06:59:18Z</time>
      </trkpt>
      <trkpt lat="31.789965" lon="35.066187">
        <ele>590.0</ele>
        <time>2011-07-01T06:59:21Z</time>
      </trkpt>
      <trkpt lat="31.789992" lon="35.066117">
        <ele>590.0</ele>
        <time>2011-07-01T06:59:25Z</time>
      </trkpt>
      <trkpt lat="31.79004" lon="35.065935">
        <ele>589.0</ele>
        <time>2011-07-01T06:59:33Z</time>
      </trkpt>
      <trkpt lat="31.79004" lon="35.065935">
        <time>2011-07-01T06:59:44Z</time>
      </trkpt>
    </trkseg>
    <trkseg>
      <trkpt lat="31.79004" lon="35.065935">
        <time>2011-07-01T06:59:45Z</time>
      </trkpt>
      <trkpt lat="31.790056" lon="35.065602">
        <ele>599.0</ele>
        <time>2011-07-01T06:59:48Z</time>
      </trkpt>
      <trkpt lat="31.790051" lon="35.065522">
        <ele>600.0</ele>
        <time>2011-07-01T06:59:52Z</time>
      </trkpt>
      <trkpt lat="31.790056" lon="35.065446">
        <ele>600.0</ele>
        <time>2011-07-01T06:59:55Z</time>
      </trkpt>
      <trkpt lat="31.790067" lon="35.065355">
        <ele>599.0</ele>
        <time>2011-07-01T06:59:58Z</time>
      </trkpt>
      <trkpt lat="31.790067" lon="35.065269">
        <ele>599.0</ele>
        <time>2011-07-01T07:00:03Z</time>
      </trkpt>
      <trkpt lat="31.790045" lon="35.0652">
        <ele>603.0</ele>
        <time>2011-07-01T07:00:06Z</time>
      </trkpt>
      <trkpt lat="31.790035" lon="35.065023">
        <ele>603.0</ele>
        <time>2011-07-01T07:00:12Z</time>
      </trkpt>
      <trkpt lat="31.79004" lon="35.06484">
        <ele>601.0</ele>
        <time>2011-07-01T07:00:18Z</time>
      </trkpt>
      <trkpt lat="31.790029" lon="35.064754">
        <ele>601.0</ele>
        <time>2011-07-01T07:00:22Z</time>
      </trkpt>
      <trkpt lat="31.790051" lon="35.064583">
        <ele>601.0</ele>
        <time>2011-07-01T07:00:28Z</time>
      </trkpt>
      <trkpt lat="31.790051" lon="35.064502">
        <ele>601.0</ele>
        <time>2011-07-01T07:00:31Z</time>
      </trkpt>
      <trkpt lat="31.79004" lon="35.064422">
        <ele>601.0</ele>
        <time>2011-07-01T07:00:34Z</time>
      </trkpt>
      <trkpt lat="31.790051" lon="35.064256">
        <ele>601.0</ele>
        <time>2011-07-01T07:00:40Z</time>
      </trkpt>
      <trkpt lat="31.790078" lon="35.064084">
        <ele>602.0</ele>
        <time>2011-07-01T07:00:46Z</time>
      </trkpt>
      <trkpt lat="31.790088" lon="35.063993">
        <ele>601.0</ele>
        <time>2011-07-01T07:00:50Z</time>
      </trkpt>
      <trkpt lat="31.790137" lon="35.063837">
        <ele>601.0</ele>
        <time>2011-07-01T07:00:56Z</time>
      </trkpt>
      <trkpt lat="31.790158" lon="35.063746">
        <ele>601.0</ele>
        <time>2011-07-01T07:00:59Z</time>
      </trkpt>
      <trkpt lat="31.790201" lon="35.06366">
        <ele>601.0</ele>
        <time>2011-07-01T07:01:03Z</time>
      </trkpt>
      <trkpt lat="31.790223" lon="35.063585">
        <ele>601.0</ele>
        <time>2011-07-01T07:01:06Z</time>
      </trkpt>
      <trkpt lat="31.790239" lon="35.063403">
        <ele>603.0</ele>
        <time>2011-07-01T07:01:12Z</time>
      </trkpt>
      <trkpt lat="31.790244" lon="35.063193">
        <ele>610.0</ele>
        <time>2011-07-01T07:01:18Z</time>
      </trkpt>
      <trkpt lat="31.790265" lon="35.063022">
        <ele>608.0</ele>
        <time>2011-07-01T07:01:23Z</time>
      </trkpt>
      <trkpt lat="31.790265" lon="35.06292">
        <ele>608.0</ele>
        <time>2011-07-01T07:01:26Z</time>
      </trkpt>
      <trkpt lat="31.790212" lon="35.062737">
        <ele>611.0</ele>
        <time>2011-07-01T07:01:32Z</time>
      </trkpt>
      <trkpt lat="31.790201" lon="35.062657">
        <ele>612.0</ele>
        <time>2011-07-01T07:01:35Z</time>
      </trkpt>
      <trkpt lat="31.79019" lon="35.062555">
        <ele>612.0</ele>
        <time>2011-07-01T07:01:38Z</time>
      </trkpt>
      <trkpt lat="31.790185" lon="35.062453">
        <ele>612.0</ele>
        <time>2011-07-01T07:01:41Z</time>
      </trkpt>
      <trkpt lat="31.790164" lon="35.062276">
        <ele>612.0</ele>
        <time>2011-07-01T07:01:46Z</time>
      </trkpt>
      <trkpt lat="31.790105" lon="35.062126">
        <ele>613.0</ele>
        <time>2011-07-01T07:01:52Z</time>
      </trkpt>
      <trkpt lat="31.790083" lon="35.062045">
        <ele>613.0</ele>
        <time>2011-07-01T07:01:55Z</time>
      </trkpt>
      <trkpt lat="31.790078" lon="35.061954">
        <ele>613.0</ele>
        <time>2011-07-01T07:01:58Z</time>
      </trkpt>
      <trkpt lat="31.790051" lon="35.061783">
        <ele>612.0</ele>
        <time>2011-07-01T07:02:04Z</time>
      </trkpt>
      <trkpt lat="31.790035" lon="35.061697">
        <ele>612.0</ele>
        <time>2011-07-01T07:02:07Z</time>
      </trkpt>
      <trkpt lat="31.790019" lon="35.0616">
        <ele>612.0</ele>
        <time>2011-07-01T07:02:10Z</time>
      </trkpt>
      <trkpt lat="31.789944" lon="35.061439">
        <ele>617.0</ele>
        <time>2011-07-01T07:02:16Z</time>
      </trkpt>
      <trkpt lat="31.789933" lon="35.061278">
        <ele>618.0</ele>
        <time>2011-07-01T07:02:22Z</time>
      </trkpt>
      <trkpt lat="31.789922" lon="35.061107">
        <ele>619.0</ele>
        <time>2011-07-01T07:02:28Z</time>
      </trkpt>
      <trkpt lat="31.789917" lon="35.061021">
        <ele>619.0</ele>
        <time>2011-07-01T07:02:31Z</time>
      </trkpt>
      <trkpt lat="31.789906" lon="35.06093">
        <ele>620.0</ele>
        <time>2011-07-01T07:02:34Z</time>
      </trkpt>
      <trkpt lat="31.789895" lon="35.060742">
        <ele>622.0</ele>
        <time>2011-07-01T07:02:40Z</time>
      </trkpt>
      <trkpt lat="31.789901" lon="35.060661">
        <ele>623.0</ele>
        <time>2011-07-01T07:02:43Z</time>
      </trkpt>
      <trkpt lat="31.789852" lon="35.060393">
        <ele>620.0</ele>
        <time>2011-07-01T07:02:51Z</time>
      </trkpt>
      <trkpt lat="31.789809" lon="35.060329">
        <ele>619.0</ele>
        <time>2011-07-01T07:02:53Z</time>
      </trkpt>
      <trkpt lat="31.789708" lon="35.060109">
        <ele>616.0</ele>
        <time>2011-07-01T07:03:00Z</time>
      </trkpt>
      <trkpt lat="31.789643" lon="35.06005">
        <ele>615.0</ele>
        <time>2011-07-01T07:03:07Z</time>
      </trkpt>
      <trkpt lat="31.78952" lon="35.059927">
        <ele>614.0</ele>
        <time>2011-07-01T07:03:15Z</time>
      </trkpt>
      <trkpt lat="31.78945" lon="35.059851">
        <ele>614.0</ele>
        <time>2011-07-01T07:03:18Z</time>
      </trkpt>
      <trkpt lat="31.789332" lon="35.059749">
        <ele>616.0</ele>
        <time>2011-07-01T07:03:23Z</time>
      </trkpt>
      <trkpt lat="31.789289" lon="35.05969">
        <ele>615.0</ele>
        <time>2011-07-01T07:03:27Z</time>
      </trkpt>
      <trkpt lat="31.789246" lon="35.059631">
        <ele>616.0</ele>
        <time>2011-07-01T07:03:35Z</time>
      </trkpt>
      <trkpt lat="31.789246" lon="35.059631">
        <time>2011-07-01T07:03:47Z</time>
      </trkpt>
    </trkseg>
    <trkseg>
      <trkpt lat="31.789246" lon="35.059631">
        <time>2011-07-01T07:10:37Z</time>
      </trkpt>
      <trkpt lat="31.788946" lon="35.059288">
        <ele>608.0</ele>
        <time>2011-07-01T07:10:43Z</time>
      </trkpt>
      <trkpt lat="31.788887" lon="35.059234">
        <ele>607.0</ele>
        <time>2011-07-01T07:10:46Z</time>
      </trkpt>
      <trkpt lat="31.788785" lon="35.0591">
        <ele>604.0</ele>
        <time>2011-07-01T07:10:51Z</time>
      </trkpt>
      <trkpt lat="31.788678" lon="35.058945">
        <ele>605.0</ele>
        <time>2011-07-01T07:10:55Z</time>
      </trkpt>
      <trkpt lat="31.788586" lon="35.058784">
        <ele>606.0</ele>
        <time>2011-07-01T07:10:59Z</time>
      </trkpt>
      <trkpt lat="31.788495" lon="35.058601">
        <ele>607.0</ele>
        <time>2011-07-01T07:11:03Z</time>
      </trkpt>
      <trkpt lat="31.788404" lon="35.058398">
        <ele>608.0</ele>
        <time>2011-07-01T07:11:07Z</time>
      </trkpt>
      <trkpt lat="31.788318" lon="35.058178">
        <ele>608.0</ele>
        <time>2011-07-01T07:11:11Z</time>
      </trkpt>
      <trkpt lat="31.788259" lon="35.057931">
        <ele>609.0</ele>
        <time>2011-07-01T07:11:15Z</time>
      </trkpt>
      <trkpt lat="31.788222" lon="35.057732">
        <ele>607.0</ele>
        <time>2011-07-01T07:11:18Z</time>
      </trkpt>
      <trkpt lat="31.788184" lon="35.057352">
        <ele>606.0</ele>
        <time>2011-07-01T07:11:23Z</time>
      </trkpt>
      <trkpt lat="31.788163" lon="35.057046">
        <ele>606.0</ele>
        <time>2011-07-01T07:11:27Z</time>
      </trkpt>
      <trkpt lat="31.788125" lon="35.05674">
        <ele>605.0</ele>
        <time>2011-07-01T07:11:31Z</time>
      </trkpt>
      <trkpt lat="31.788184" lon="35.056397">
        <ele>603.0</ele>
        <time>2011-07-01T07:11:35Z</time>
      </trkpt>
      <trkpt lat="31.788302" lon="35.056059">
        <ele>601.0</ele>
        <time>2011-07-01T07:11:39Z</time>
      </trkpt>
      <trkpt lat="31.788356" lon="35.055726">
        <ele>598.0</ele>
        <time>2011-07-01T07:11:43Z</time>
      </trkpt>
      <trkpt lat="31.788431" lon="35.055436">
        <ele>597.0</ele>
        <time>2011-07-01T07:11:47Z</time>
      </trkpt>
      <trkpt lat="31.788651" lon="35.055249">
        <ele>596.0</ele>
        <time>2011-07-01T07:11:51Z</time>
      </trkpt>
      <trkpt lat="31.788865" lon="35.055211">
        <ele>595.0</ele>
        <time>2011-07-01T07:11:55Z</time>
      </trkpt>
      <trkpt lat="31.789058" lon="35.055217">
        <ele>594.0</ele>
        <time>2011-07-01T07:11:59Z</time>
      </trkpt>
      <trkpt lat="31.789241" lon="35.055238">
        <ele>592.0</ele>
        <time>2011-07-01T07:12:03Z</time>
      </trkpt>
      <trkpt lat="31.789418" lon="35.055297">
        <ele>592.0</ele>
        <time>2011-07-01T07:12:07Z</time>
      </trkpt>
      <trkpt lat="31.789509" lon="35.055318">
        <ele>592.0</ele>
        <time>2011-07-01T07:12:09Z</time>
      </trkpt>
      <trkpt lat="31.789793" lon="35.055377">
        <ele>592.0</ele>
        <time>2011-07-01T07:12:15Z</time>
      </trkpt>
      <trkpt lat="31.790003" lon="35.055442">
        <ele>592.0</ele>
        <time>2011-07-01T07:12:19Z</time>
      </trkpt>
      <trkpt lat="31.790174" lon="35.055469">
        <ele>592.0</ele>
        <time>2011-07-01T07:12:22Z</time>
      </trkpt>
      <trkpt lat="31.790276" lon="35.05527">
        <ele>591.0</ele>
        <time>2011-07-01T07:12:31Z</time>
      </trkpt>
      <trkpt lat="31.790239" lon="35.055179">
        <ele>591.0</ele>
        <time>2011-07-01T07:12:34Z</time>
      </trkpt>
      <trkpt lat="31.790126" lon="35.055061">
        <ele>591.0</ele>
        <time>2011-07-01T07:12:39Z</time>
      </trkpt>
      <trkpt lat="31.790035" lon="35.054895">
        <ele>591.0</ele>
        <time>2011-07-01T07:12:43Z</time>
      </trkpt>
      <trkpt lat="31.789874" lon="35.054637">
        <ele>592.0</ele>
        <time>2011-07-01T07:12:47Z</time>
      </trkpt>
      <trkpt lat="31.789643" lon="35.054374">
        <ele>592.0</ele>
        <time>2011-07-01T07:12:51Z</time>
      </trkpt>
      <trkpt lat="31.789514" lon="35.054192">
        <ele>591.0</ele>
        <time>2011-07-01T07:12:54Z</time>
      </trkpt>
      <trkpt lat="31.789386" lon="35.05387">
        <ele>590.0</ele>
        <time>2011-07-01T07:12:59Z</time>
      </trkpt>
      <trkpt lat="31.789262" lon="35.05365">
        <ele>590.0</ele>
        <time>2011-07-01T07:13:03Z</time>
      </trkpt>
      <trkpt lat="31.789214" lon="35.053409">
        <ele>589.0</ele>
        <time>2011-07-01T07:13:07Z</time>
      </trkpt>
      <trkpt lat="31.789209" lon="35.053157">
        <ele>588.0</ele>
        <time>2011-07-01T07:13:11Z</time>
      </trkpt>
      <trkpt lat="31.789257" lon="35.05298">
        <ele>585.0</ele>
        <time>2011-07-01T07:13:15Z</time>
      </trkpt>
      <trkpt lat="31.789514" lon="35.05269">
        <ele>582.0</ele>
        <time>2011-07-01T07:13:23Z</time>
      </trkpt>
      <trkpt lat="31.789579" lon="35.052658">
        <ele>580.0</ele>
        <time>2011-07-01T07:13:25Z</time>
      </trkpt>
      <trkpt lat="31.789761" lon="35.052593">
        <ele>577.0</ele>
        <time>2011-07-01T07:13:30Z</time>
      </trkpt>
      <trkpt lat="31.789895" lon="35.05255">
        <ele>577.0</ele>
        <time>2011-07-01T07:13:34Z</time>
      </trkpt>
      <trkpt lat="31.789965" lon="35.052518">
        <ele>577.0</ele>
        <time>2011-07-01T07:13:36Z</time>
      </trkpt>
      <trkpt lat="31.790174" lon="35.052411">
        <ele>577.0</ele>
        <time>2011-07-01T07:13:43Z</time>
      </trkpt>
      <trkpt lat="31.790249" lon="35.052384">
        <ele>578.0</ele>
        <time>2011-07-01T07:13:45Z</time>
      </trkpt>
      <trkpt lat="31.7904" lon="35.052341">
        <ele>580.0</ele>
        <time>2011-07-01T07:13:50Z</time>
      </trkpt>
      <trkpt lat="31.790609" lon="35.052229">
        <ele>581.0</ele>
        <time>2011-07-01T07:13:58Z</time>
      </trkpt>
      <trkpt lat="31.790652" lon="35.0521">
        <ele>580.0</ele>
        <time>2011-07-01T07:14:04Z</time>
      </trkpt>
      <trkpt lat="31.790544" lon="35.051917">
        <ele>578.0</ele>
        <time>2011-07-01T07:14:11Z</time>
      </trkpt>
      <trkpt lat="31.790512" lon="35.051816">
        <ele>579.0</ele>
        <time>2011-07-01T07:14:14Z</time>
      </trkpt>
      <trkpt lat="31.790437" lon="35.051687">
        <ele>581.0</ele>
        <time>2011-07-01T07:14:18Z</time>
      </trkpt>
      <trkpt lat="31.790357" lon="35.051537">
        <ele>583.0</ele>
        <time>2011-07-01T07:14:23Z</time>
      </trkpt>
      <trkpt lat="31.790319" lon="35.051461">
        <ele>582.0</ele>
        <time>2011-07-01T07:14:25Z</time>
      </trkpt>
      <trkpt lat="31.790217" lon="35.051311">
        <ele>584.0</ele>
        <time>2011-07-01T07:14:30Z</time>
      </trkpt>
      <trkpt lat="31.790169" lon="35.05115">
        <ele>584.0</ele>
        <time>2011-07-01T07:14:34Z</time>
      </trkpt>
      <trkpt lat="31.790024" lon="35.051005">
        <ele>584.0</ele>
        <time>2011-07-01T07:14:38Z</time>
      </trkpt>
      <trkpt lat="31.789831" lon="35.050925">
        <ele>585.0</ele>
        <time>2011-07-01T07:14:42Z</time>
      </trkpt>
      <trkpt lat="31.789659" lon="35.050871">
        <ele>585.0</ele>
        <time>2011-07-01T07:14:46Z</time>
      </trkpt>
      <trkpt lat="31.789434" lon="35.050759">
        <ele>585.0</ele>
        <time>2011-07-01T07:14:51Z</time>
      </trkpt>
      <trkpt lat="31.789214" lon="35.050523">
        <ele>584.0</ele>
        <time>2011-07-01T07:14:55Z</time>
      </trkpt>
      <trkpt lat="31.78908" lon="35.050206">
        <ele>580.0</ele>
        <time>2011-07-01T07:14:59Z</time>
      </trkpt>
      <trkpt lat="31.788983" lon="35.049949">
        <ele>579.0</ele>
        <time>2011-07-01T07:15:03Z</time>
      </trkpt>
      <trkpt lat="31.788967" lon="35.04968">
        <ele>576.0</ele>
        <time>2011-07-01T07:15:07Z</time>
      </trkpt>
      <trkpt lat="31.788978" lon="35.049487">
        <ele>576.0</ele>
        <time>2011-07-01T07:15:11Z</time>
      </trkpt>
      <trkpt lat="31.788999" lon="35.049418">
        <ele>575.0</ele>
        <time>2011-07-01T07:15:13Z</time>
      </trkpt>
      <trkpt lat="31.789085" lon="35.049235">
        <ele>573.0</ele>
        <time>2011-07-01T07:15:18Z</time>
      </trkpt>
      <trkpt lat="31.789171" lon="35.049074">
        <ele>570.0</ele>
        <time>2011-07-01T07:15:22Z</time>
      </trkpt>
      <trkpt lat="31.789252" lon="35.04887">
        <ele>568.0</ele>
        <time>2011-07-01T07:15:26Z</time>
      </trkpt>
      <trkpt lat="31.789327" lon="35.048726">
        <ele>571.0</ele>
        <time>2011-07-01T07:15:30Z</time>
      </trkpt>
      <trkpt lat="31.789353" lon="35.048645">
        <ele>572.0</ele>
        <time>2011-07-01T07:15:33Z</time>
      </trkpt>
      <trkpt lat="31.789402" lon="35.048484">
        <ele>574.0</ele>
        <time>2011-07-01T07:15:39Z</time>
      </trkpt>
      <trkpt lat="31.789439" lon="35.048409">
        <ele>575.0</ele>
        <time>2011-07-01T07:15:42Z</time>
      </trkpt>
      <trkpt lat="31.789461" lon="35.048313">
        <ele>578.0</ele>
        <time>2011-07-01T07:15:45Z</time>
      </trkpt>
      <trkpt lat="31.789493" lon="35.048232">
        <ele>579.0</ele>
        <time>2011-07-01T07:15:48Z</time>
      </trkpt>
      <trkpt lat="31.789488" lon="35.047937">
        <ele>582.0</ele>
        <time>2011-07-01T07:15:55Z</time>
      </trkpt>
      <trkpt lat="31.789434" lon="35.047771">
        <ele>584.0</ele>
        <time>2011-07-01T07:15:59Z</time>
      </trkpt>
      <trkpt lat="31.789418" lon="35.047685">
        <ele>584.0</ele>
        <time>2011-07-01T07:16:02Z</time>
      </trkpt>
      <trkpt lat="31.789359" lon="35.047594">
        <ele>585.0</ele>
        <time>2011-07-01T07:16:05Z</time>
      </trkpt>
      <trkpt lat="31.789252" lon="35.047454">
        <ele>586.0</ele>
        <time>2011-07-01T07:16:11Z</time>
      </trkpt>
      <trkpt lat="31.789187" lon="35.047379">
        <ele>586.0</ele>
        <time>2011-07-01T07:16:14Z</time>
      </trkpt>
      <trkpt lat="31.789075" lon="35.047245">
        <ele>586.0</ele>
        <time>2011-07-01T07:16:19Z</time>
      </trkpt>
      <trkpt lat="31.789016" lon="35.047202">
        <ele>587.0</ele>
        <time>2011-07-01T07:16:21Z</time>
      </trkpt>
      <trkpt lat="31.788898" lon="35.047068">
        <ele>588.0</ele>
        <time>2011-07-01T07:16:26Z</time>
      </trkpt>
      <trkpt lat="31.788796" lon="35.046918">
        <ele>586.0</ele>
        <time>2011-07-01T07:16:31Z</time>
      </trkpt>
      <trkpt lat="31.788667" lon="35.046773">
        <ele>586.0</ele>
        <time>2011-07-01T07:16:35Z</time>
      </trkpt>
      <trkpt lat="31.788527" lon="35.046633">
        <ele>584.0</ele>
        <time>2011-07-01T07:16:39Z</time>
      </trkpt>
      <trkpt lat="31.788442" lon="35.046467">
        <ele>581.0</ele>
        <time>2011-07-01T07:16:43Z</time>
      </trkpt>
      <trkpt lat="31.788447" lon="35.046387">
        <ele>580.0</ele>
        <time>2011-07-01T07:16:46Z</time>
      </trkpt>
      <trkpt lat="31.788484" lon="35.046301">
        <ele>577.0</ele>
        <time>2011-07-01T07:16:50Z</time>
      </trkpt>
      <trkpt lat="31.788511" lon="35.046151">
        <ele>575.0</ele>
        <time>2011-07-01T07:16:55Z</time>
      </trkpt>
      <trkpt lat="31.788543" lon="35.046065">
        <ele>574.0</ele>
        <time>2011-07-01T07:16:58Z</time>
      </trkpt>
      <trkpt lat="31.788608" lon="35.045925">
        <ele>572.0</ele>
        <time>2011-07-01T07:17:02Z</time>
      </trkpt>
      <trkpt lat="31.788726" lon="35.045802">
        <ele>569.0</ele>
        <time>2011-07-01T07:17:06Z</time>
      </trkpt>
      <trkpt lat="31.788828" lon="35.045684">
        <ele>568.0</ele>
        <time>2011-07-01T07:17:10Z</time>
      </trkpt>
      <trkpt lat="31.788914" lon="35.04555">
        <ele>571.0</ele>
        <time>2011-07-01T07:17:15Z</time>
      </trkpt>
      <trkpt lat="31.788967" lon="35.045491">
        <ele>570.0</ele>
        <time>2011-07-01T07:17:17Z</time>
      </trkpt>
      <trkpt lat="31.78901" lon="35.045341">
        <ele>573.0</ele>
        <time>2011-07-01T07:17:23Z</time>
      </trkpt>
      <trkpt lat="31.789091" lon="35.045164">
        <ele>574.0</ele>
        <time>2011-07-01T07:17:28Z</time>
      </trkpt>
      <trkpt lat="31.789252" lon="35.044751">
        <ele>578.0</ele>
        <time>2011-07-01T07:17:38Z</time>
      </trkpt>
      <trkpt lat="31.789348" lon="35.044574">
        <ele>576.0</ele>
        <time>2011-07-01T07:17:42Z</time>
      </trkpt>
      <trkpt lat="31.789359" lon="35.044402">
        <ele>575.0</ele>
        <time>2011-07-01T07:17:46Z</time>
      </trkpt>
      <trkpt lat="31.789391" lon="35.044225">
        <ele>575.0</ele>
        <time>2011-07-01T07:17:50Z</time>
      </trkpt>
      <trkpt lat="31.789445" lon="35.044144">
        <ele>573.0</ele>
        <time>2011-07-01T07:17:52Z</time>
      </trkpt>
      <trkpt lat="31.789568" lon="35.04401">
        <ele>570.0</ele>
        <time>2011-07-01T07:18:01Z</time>
      </trkpt>
      <trkpt lat="31.789568" lon="35.04401">
        <time>2011-07-01T07:18:13Z</time>
      </trkpt>
    </trkseg>
    <trkseg>
      <trkpt lat="31.789568" lon="35.04401">
        <time>2011-07-01T07:18:44Z</time>
      </trkpt>
      <trkpt lat="31.789627" lon="35.043796">
        <ele>566.0</ele>
        <time>2011-07-01T07:18:48Z</time>
      </trkpt>
      <trkpt lat="31.789659" lon="35.043721">
        <ele>568.0</ele>
        <time>2011-07-01T07:18:56Z</time>
      </trkpt>
      <trkpt lat="31.789724" lon="35.043688">
        <ele>568.0</ele>
        <time>2011-07-01T07:19:02Z</time>
      </trkpt>
      <trkpt lat="31.789724" lon="35.043688">
        <time>2011-07-01T07:19:14Z</time>
      </trkpt>
    </trkseg>
    <trkseg>
      <trkpt lat="31.789724" lon="35.043688">
        <time>2011-07-01T07:20:40Z</time>
      </trkpt>
      <trkpt lat="31.789611" lon="35.043705">
        <ele>566.0</ele>
        <time>2011-07-01T07:20:48Z</time>
      </trkpt>
      <trkpt lat="31.789675" lon="35.043721">
        <ele>566.0</ele>
        <time>2011-07-01T07:20:52Z</time>
      </trkpt>
      <trkpt lat="31.789713" lon="35.04379">
        <ele>567.0</ele>
        <time>2011-07-01T07:20:56Z</time>
      </trkpt>
      <trkpt lat="31.789734" lon="35.04386">
        <ele>567.0</ele>
        <time>2011-07-01T07:21:00Z</time>
      </trkpt>
      <trkpt lat="31.789756" lon="35.043935">
        <ele>568.0</ele>
        <time>2011-07-01T07:21:04Z</time>
      </trkpt>
      <trkpt lat="31.78975" lon="35.044021">
        <ele>573.0</ele>
        <time>2011-07-01T07:21:11Z</time>
      </trkpt>
      <trkpt lat="31.789906" lon="35.044096">
        <ele>573.0</ele>
        <time>2011-07-01T07:21:22Z</time>
      </trkpt>
      <trkpt lat="31.789976" lon="35.044096">
        <ele>573.0</ele>
        <time>2011-07-01T07:21:25Z</time>
      </trkpt>
      <trkpt lat="31.79011" lon="35.044037">
        <ele>575.0</ele>
        <time>2011-07-01T07:21:34Z</time>
      </trkpt>
      <trkpt lat="31.790174" lon="35.044026">
        <ele>574.0</ele>
        <time>2011-07-01T07:21:37Z</time>
      </trkpt>
      <trkpt lat="31.790196" lon="35.044112">
        <ele>576.0</ele>
        <time>2011-07-01T07:21:45Z</time>
      </trkpt>
      <trkpt lat="31.790164" lon="35.044182">
        <ele>579.0</ele>
        <time>2011-07-01T07:21:50Z</time>
      </trkpt>
      <trkpt lat="31.790142" lon="35.044268">
        <ele>580.0</ele>
        <time>2011-07-01T07:21:55Z</time>
      </trkpt>
      <trkpt lat="31.790153" lon="35.044343">
        <ele>582.0</ele>
        <time>2011-07-01T07:22:00Z</time>
      </trkpt>
      <trkpt lat="31.790164" lon="35.044429">
        <ele>584.0</ele>
        <time>2011-07-01T07:22:06Z</time>
      </trkpt>
      <trkpt lat="31.790217" lon="35.044493">
        <ele>584.0</ele>
        <time>2011-07-01T07:22:11Z</time>
      </trkpt>
      <trkpt lat="31.790314" lon="35.044616">
        <ele>585.0</ele>
        <time>2011-07-01T07:22:21Z</time>
      </trkpt>
      <trkpt lat="31.790383" lon="35.044622">
        <ele>586.0</ele>
        <time>2011-07-01T07:22:26Z</time>
      </trkpt>
      <trkpt lat="31.790453" lon="35.044611">
        <ele>590.0</ele>
        <time>2011-07-01T07:22:30Z</time>
      </trkpt>
      <trkpt lat="31.790518" lon="35.044595">
        <ele>589.0</ele>
        <time>2011-07-01T07:22:34Z</time>
      </trkpt>
      <trkpt lat="31.790646" lon="35.044557">
        <ele>590.0</ele>
        <time>2011-07-01T07:22:42Z</time>
      </trkpt>
      <trkpt lat="31.790721" lon="35.044536">
        <ele>592.0</ele>
        <time>2011-07-01T07:22:47Z</time>
      </trkpt>
      <trkpt lat="31.790786" lon="35.044509">
        <ele>591.0</ele>
        <time>2011-07-01T07:22:51Z</time>
      </trkpt>
      <trkpt lat="31.790856" lon="35.044504">
        <ele>591.0</ele>
        <time>2011-07-01T07:22:56Z</time>
      </trkpt>
      <trkpt lat="31.790925" lon="35.044504">
        <ele>592.0</ele>
        <time>2011-07-01T07:23:00Z</time>
      </trkpt>
      <trkpt lat="31.790995" lon="35.044482">
        <ele>592.0</ele>
        <time>2011-07-01T07:23:05Z</time>
      </trkpt>
      <trkpt lat="31.790995" lon="35.044482">
        <time>2011-07-01T07:23:17Z</time>
      </trkpt>
    </trkseg>
    <trkseg>
      <trkpt lat="31.790995" lon="35.044482">
        <time>2011-07-01T07:23:19Z</time>
      </trkpt>
      <trkpt lat="31.791183" lon="35.04459">
        <ele>594.0</ele>
        <time>2011-07-01T07:23:23Z</time>
      </trkpt>
      <trkpt lat="31.791252" lon="35.044579">
        <ele>593.0</ele>
        <time>2011-07-01T07:23:27Z</time>
      </trkpt>
      <trkpt lat="31.791392" lon="35.044568">
        <ele>594.0</ele>
        <time>2011-07-01T07:23:34Z</time>
      </trkpt>
      <trkpt lat="31.791462" lon="35.044611">
        <ele>595.0</ele>
        <time>2011-07-01T07:23:40Z</time>
      </trkpt>
      <trkpt lat="31.791505" lon="35.04467">
        <ele>595.0</ele>
        <time>2011-07-01T07:23:46Z</time>
      </trkpt>
      <trkpt lat="31.791548" lon="35.044734">
        <ele>596.0</ele>
        <time>2011-07-01T07:23:53Z</time>
      </trkpt>
      <trkpt lat="31.791574" lon="35.04481">
        <ele>597.0</ele>
        <time>2011-07-01T07:23:58Z</time>
      </trkpt>
      <trkpt lat="31.791633" lon="35.04496">
        <ele>596.0</ele>
        <time>2011-07-01T07:24:08Z</time>
      </trkpt>
      <trkpt lat="31.791666" lon="35.045024">
        <ele>596.0</ele>
        <time>2011-07-01T07:24:12Z</time>
      </trkpt>
      <trkpt lat="31.79173" lon="35.045056">
        <ele>600.0</ele>
        <time>2011-07-01T07:24:18Z</time>
      </trkpt>
      <trkpt lat="31.7918" lon="35.045067">
        <ele>602.0</ele>
        <time>2011-07-01T07:24:23Z</time>
      </trkpt>
      <trkpt lat="31.791864" lon="35.045067">
        <ele>604.0</ele>
        <time>2011-07-01T07:24:28Z</time>
      </trkpt>
      <trkpt lat="31.791934" lon="35.045067">
        <ele>604.0</ele>
        <time>2011-07-01T07:24:33Z</time>
      </trkpt>
      <trkpt lat="31.792004" lon="35.04504">
        <ele>604.0</ele>
        <time>2011-07-01T07:24:37Z</time>
      </trkpt>
      <trkpt lat="31.792073" lon="35.045019">
        <ele>606.0</ele>
        <time>2011-07-01T07:24:42Z</time>
      </trkpt>
      <trkpt lat="31.792148" lon="35.044997">
        <ele>606.0</ele>
        <time>2011-07-01T07:24:47Z</time>
      </trkpt>
      <trkpt lat="31.792148" lon="35.044997">
        <time>2011-07-01T07:24:59Z</time>
      </trkpt>
    </trkseg>
    <trkseg>
      <trkpt lat="31.792148" lon="35.044997">
        <time>2011-07-01T07:25:00Z</time>
      </trkpt>
      <trkpt lat="31.792336" lon="35.044906">
        <ele>612.0</ele>
        <time>2011-07-01T07:25:06Z</time>
      </trkpt>
      <trkpt lat="31.792336" lon="35.044906">
        <time>2011-07-01T07:25:18Z</time>
      </trkpt>
    </trkseg>
    <trkseg>
      <trkpt lat="31.792336" lon="35.044906">
        <time>2011-07-01T07:28:45Z</time>
      </trkpt>
      <trkpt lat="31.792374" lon="35.045239">
        <ele>611.0</ele>
        <time>2011-07-01T07:28:47Z</time>
      </trkpt>
      <trkpt lat="31.792384" lon="35.04533">
        <ele>611.0</ele>
        <time>2011-07-01T07:28:49Z</time>
      </trkpt>
      <trkpt lat="31.792406" lon="35.045502">
        <ele>611.0</ele>
        <time>2011-07-01T07:28:53Z</time>
      </trkpt>
      <trkpt lat="31.7924" lon="35.045663">
        <ele>610.0</ele>
        <time>2011-07-01T07:28:59Z</time>
      </trkpt>
      <trkpt lat="31.792406" lon="35.045738">
        <ele>610.0</ele>
        <time>2011-07-01T07:29:02Z</time>
      </trkpt>
      <trkpt lat="31.792443" lon="35.045818">
        <ele>611.0</ele>
        <time>2011-07-01T07:29:06Z</time>
      </trkpt>
      <trkpt lat="31.792492" lon="35.045882">
        <ele>610.0</ele>
        <time>2011-07-01T07:29:10Z</time>
      </trkpt>
      <trkpt lat="31.792561" lon="35.045909">
        <ele>609.0</ele>
        <time>2011-07-01T07:29:13Z</time>
      </trkpt>
      <trkpt lat="31.792631" lon="35.045947">
        <ele>609.0</ele>
        <time>2011-07-01T07:29:16Z</time>
      </trkpt>
      <trkpt lat="31.792797" lon="35.045979">
        <ele>606.0</ele>
        <time>2011-07-01T07:29:23Z</time>
      </trkpt>
      <trkpt lat="31.792862" lon="35.046011">
        <ele>606.0</ele>
        <time>2011-07-01T07:29:26Z</time>
      </trkpt>
      <trkpt lat="31.792926" lon="35.046043">
        <ele>605.0</ele>
        <time>2011-07-01T07:29:29Z</time>
      </trkpt>
      <trkpt lat="31.792996" lon="35.046081">
        <ele>604.0</ele>
        <time>2011-07-01T07:29:33Z</time>
      </trkpt>
      <trkpt lat="31.793114" lon="35.046167">
        <ele>601.0</ele>
        <time>2011-07-01T07:29:40Z</time>
      </trkpt>
      <trkpt lat="31.793178" lon="35.04621">
        <ele>601.0</ele>
        <time>2011-07-01T07:29:44Z</time>
      </trkpt>
      <trkpt lat="31.793243" lon="35.046242">
        <ele>599.0</ele>
        <time>2011-07-01T07:29:48Z</time>
      </trkpt>
      <trkpt lat="31.793264" lon="35.046086">
        <ele>598.0</ele>
        <time>2011-07-01T07:29:55Z</time>
      </trkpt>
      <trkpt lat="31.793141" lon="35.045984">
        <ele>597.0</ele>
        <time>2011-07-01T07:29:59Z</time>
      </trkpt>
      <trkpt lat="31.793092" lon="35.045915">
        <ele>596.0</ele>
        <time>2011-07-01T07:30:01Z</time>
      </trkpt>
      <trkpt lat="31.79298" lon="35.0457">
        <ele>596.0</ele>
        <time>2011-07-01T07:30:07Z</time>
      </trkpt>
      <trkpt lat="31.792969" lon="35.045614">
        <ele>596.0</ele>
        <time>2011-07-01T07:30:09Z</time>
      </trkpt>
      <trkpt lat="31.792926" lon="35.045528">
        <ele>595.0</ele>
        <time>2011-07-01T07:30:12Z</time>
      </trkpt>
      <trkpt lat="31.792926" lon="35.045528">
        <time>2011-07-01T07:30:23Z</time>
      </trkpt>
    </trkseg>
    <trkseg>
      <trkpt lat="31.792926" lon="35.045528">
        <time>2011-07-01T07:30:53Z</time>
      </trkpt>
      <trkpt lat="31.793023" lon="35.045271">
        <ele>596.0</ele>
        <time>2011-07-01T07:30:56Z</time>
      </trkpt>
      <trkpt lat="31.793076" lon="35.045223">
        <ele>596.0</ele>
        <time>2011-07-01T07:30:59Z</time>
      </trkpt>
      <trkpt lat="31.793146" lon="35.045201">
        <ele>594.0</ele>
        <time>2011-07-01T07:31:03Z</time>
      </trkpt>
      <trkpt lat="31.793227" lon="35.04518">
        <ele>593.0</ele>
        <time>2011-07-01T07:31:08Z</time>
      </trkpt>
      <trkpt lat="31.793296" lon="35.04518">
        <ele>593.0</ele>
        <time>2011-07-01T07:31:13Z</time>
      </trkpt>
      <trkpt lat="31.793366" lon="35.045196">
        <ele>593.0</ele>
        <time>2011-07-01T07:31:18Z</time>
      </trkpt>
      <trkpt lat="31.7935" lon="35.045223">
        <ele>591.0</ele>
        <time>2011-07-01T07:31:26Z</time>
      </trkpt>
      <trkpt lat="31.793581" lon="35.045212">
        <ele>590.0</ele>
        <time>2011-07-01T07:31:31Z</time>
      </trkpt>
      <trkpt lat="31.793822" lon="35.045223">
        <ele>586.0</ele>
        <time>2011-07-01T07:31:37Z</time>
      </trkpt>
      <trkpt lat="31.793994" lon="35.045153">
        <ele>584.0</ele>
        <time>2011-07-01T07:31:41Z</time>
      </trkpt>
      <trkpt lat="31.794208" lon="35.045062">
        <ele>582.0</ele>
        <time>2011-07-01T07:31:45Z</time>
      </trkpt>
      <trkpt lat="31.794519" lon="35.044912">
        <ele>579.0</ele>
        <time>2011-07-01T07:31:49Z</time>
      </trkpt>
      <trkpt lat="31.794809" lon="35.044724">
        <ele>575.0</ele>
        <time>2011-07-01T07:31:53Z</time>
      </trkpt>
      <trkpt lat="31.794927" lon="35.044611">
        <ele>574.0</ele>
        <time>2011-07-01T07:31:55Z</time>
      </trkpt>
      <trkpt lat="31.795222" lon="35.044295">
        <ele>571.0</ele>
        <time>2011-07-01T07:32:01Z</time>
      </trkpt>
      <trkpt lat="31.795394" lon="35.044026">
        <ele>569.0</ele>
        <time>2011-07-01T07:32:05Z</time>
      </trkpt>
      <trkpt lat="31.795469" lon="35.043849">
        <ele>568.0</ele>
        <time>2011-07-01T07:32:08Z</time>
      </trkpt>
      <trkpt lat="31.795528" lon="35.043796">
        <ele>567.0</ele>
        <time>2011-07-01T07:32:11Z</time>
      </trkpt>
      <trkpt lat="31.795603" lon="35.043764">
        <ele>566.0</ele>
        <time>2011-07-01T07:32:15Z</time>
      </trkpt>
      <trkpt lat="31.795603" lon="35.043764">
        <time>2011-07-01T07:32:26Z</time>
      </trkpt>
    </trkseg>
    <trkseg>
      <trkpt lat="31.795603" lon="35.043764">
        <time>2011-07-01T07:32:54Z</time>
      </trkpt>
      <trkpt lat="31.795705" lon="35.043629">
        <ele>559.0</ele>
        <time>2011-07-01T07:32:57Z</time>
      </trkpt>
      <trkpt lat="31.795705" lon="35.043629">
        <time>2011-07-01T07:33:08Z</time>
      </trkpt>
    </trkseg>
    <trkseg>
      <trkpt lat="31.795705" lon="35.043629">
        <time>2011-07-01T07:33:10Z</time>
      </trkpt>
      <trkpt lat="31.796027" lon="35.043361">
        <ele>552.0</ele>
        <time>2011-07-01T07:33:13Z</time>
      </trkpt>
      <trkpt lat="31.796386" lon="35.042803">
        <ele>547.0</ele>
        <time>2011-07-01T07:33:23Z</time>
      </trkpt>
      <trkpt lat="31.796547" lon="35.042535">
        <ele>543.0</ele>
        <time>2011-07-01T07:33:27Z</time>
      </trkpt>
      <trkpt lat="31.796612" lon="35.042353">
        <ele>542.0</ele>
        <time>2011-07-01T07:33:30Z</time>
      </trkpt>
      <trkpt lat="31.796767" lon="35.04217">
        <ele>540.0</ele>
        <time>2011-07-01T07:33:34Z</time>
      </trkpt>
      <trkpt lat="31.796842" lon="35.042015">
        <ele>539.0</ele>
        <time>2011-07-01T07:33:38Z</time>
      </trkpt>
      <trkpt lat="31.796885" lon="35.041924">
        <ele>538.0</ele>
        <time>2011-07-01T07:33:42Z</time>
      </trkpt>
      <trkpt lat="31.796901" lon="35.041848">
        <ele>537.0</ele>
        <time>2011-07-01T07:33:45Z</time>
      </trkpt>
      <trkpt lat="31.796939" lon="35.041773">
        <ele>536.0</ele>
        <time>2011-07-01T07:33:50Z</time>
      </trkpt>
      <trkpt lat="31.796939" lon="35.041773">
        <time>2011-07-01T07:34:01Z</time>
      </trkpt>
    </trkseg>
    <trkseg>
      <trkpt lat="31.796939" lon="35.041773">
        <time>2011-07-01T07:34:02Z</time>
      </trkpt>
      <trkpt lat="31.797223" lon="35.041478">
        <ele>534.0</ele>
        <time>2011-07-01T07:34:12Z</time>
      </trkpt>
      <trkpt lat="31.797277" lon="35.041387">
        <ele>534.0</ele>
        <time>2011-07-01T07:34:15Z</time>
      </trkpt>
      <trkpt lat="31.797379" lon="35.041274">
        <ele>531.0</ele>
        <time>2011-07-01T07:34:20Z</time>
      </trkpt>
      <trkpt lat="31.797464" lon="35.041221">
        <ele>530.0</ele>
        <time>2011-07-01T07:34:23Z</time>
      </trkpt>
      <trkpt lat="31.797572" lon="35.041113">
        <ele>529.0</ele>
        <time>2011-07-01T07:34:27Z</time>
      </trkpt>
      <trkpt lat="31.79769" lon="35.040969">
        <ele>529.0</ele>
        <time>2011-07-01T07:34:31Z</time>
      </trkpt>
      <trkpt lat="31.797819" lon="35.04077">
        <ele>528.0</ele>
        <time>2011-07-01T07:34:35Z</time>
      </trkpt>
      <trkpt lat="31.797937" lon="35.040561">
        <ele>528.0</ele>
        <time>2011-07-01T07:34:39Z</time>
      </trkpt>
      <trkpt lat="31.798049" lon="35.040379">
        <ele>526.0</ele>
        <time>2011-07-01T07:34:43Z</time>
      </trkpt>
      <trkpt lat="31.798237" lon="35.040132">
        <ele>525.0</ele>
        <time>2011-07-01T07:34:48Z</time>
      </trkpt>
      <trkpt lat="31.79835" lon="35.039987">
        <ele>522.0</ele>
        <time>2011-07-01T07:34:52Z</time>
      </trkpt>
      <trkpt lat="31.798462" lon="35.039858">
        <ele>521.0</ele>
        <time>2011-07-01T07:34:56Z</time>
      </trkpt>
      <trkpt lat="31.79857" lon="35.039746">
        <ele>520.0</ele>
        <time>2011-07-01T07:35:00Z</time>
      </trkpt>
      <trkpt lat="31.798618" lon="35.039654">
        <ele>520.0</ele>
        <time>2011-07-01T07:35:03Z</time>
      </trkpt>
      <trkpt lat="31.798661" lon="35.039585">
        <ele>520.0</ele>
        <time>2011-07-01T07:35:06Z</time>
      </trkpt>
      <trkpt lat="31.798752" lon="35.039456">
        <ele>520.0</ele>
        <time>2011-07-01T07:35:11Z</time>
      </trkpt>
      <trkpt lat="31.798849" lon="35.039306">
        <ele>519.0</ele>
        <time>2011-07-01T07:35:16Z</time>
      </trkpt>
      <trkpt lat="31.798929" lon="35.03915">
        <ele>518.0</ele>
        <time>2011-07-01T07:35:20Z</time>
      </trkpt>
      <trkpt lat="31.798967" lon="35.03908">
        <ele>518.0</ele>
        <time>2011-07-01T07:35:22Z</time>
      </trkpt>
      <trkpt lat="31.799111" lon="35.038877">
        <ele>515.0</ele>
        <time>2011-07-01T07:35:31Z</time>
      </trkpt>
      <trkpt lat="31.79916" lon="35.038828">
        <ele>514.0</ele>
        <time>2011-07-01T07:35:34Z</time>
      </trkpt>
      <trkpt lat="31.799176" lon="35.038742">
        <ele>512.0</ele>
        <time>2011-07-01T07:35:38Z</time>
      </trkpt>
      <trkpt lat="31.799181" lon="35.038667">
        <ele>512.0</ele>
        <time>2011-07-01T07:35:42Z</time>
      </trkpt>
      <trkpt lat="31.799245" lon="35.038533">
        <ele>513.0</ele>
        <time>2011-07-01T07:35:48Z</time>
      </trkpt>
      <trkpt lat="31.799262" lon="35.038453">
        <ele>513.0</ele>
        <time>2011-07-01T07:35:51Z</time>
      </trkpt>
      <trkpt lat="31.799278" lon="35.038372">
        <ele>514.0</ele>
        <time>2011-07-01T07:35:54Z</time>
      </trkpt>
      <trkpt lat="31.799294" lon="35.038297">
        <ele>515.0</ele>
        <time>2011-07-01T07:35:57Z</time>
      </trkpt>
      <trkpt lat="31.799294" lon="35.038297">
        <time>2011-07-01T07:36:09Z</time>
      </trkpt>
    </trkseg>
    <trkseg>
      <trkpt lat="31.799294" lon="35.038297">
        <time>2011-07-01T07:36:13Z</time>
      </trkpt>
      <trkpt lat="31.799567" lon="35.037916">
        <ele>508.0</ele>
        <time>2011-07-01T07:36:21Z</time>
      </trkpt>
      <trkpt lat="31.799642" lon="35.037777">
        <ele>508.0</ele>
        <time>2011-07-01T07:36:25Z</time>
      </trkpt>
      <trkpt lat="31.799675" lon="35.037696">
        <ele>506.0</ele>
        <time>2011-07-01T07:36:28Z</time>
      </trkpt>
      <trkpt lat="31.799712" lon="35.037621">
        <ele>506.0</ele>
        <time>2011-07-01T07:36:32Z</time>
      </trkpt>
      <trkpt lat="31.799712" lon="35.037541">
        <ele>506.0</ele>
        <time>2011-07-01T07:36:35Z</time>
      </trkpt>
      <trkpt lat="31.799782" lon="35.037396">
        <ele>504.0</ele>
        <time>2011-07-01T07:36:41Z</time>
      </trkpt>
      <trkpt lat="31.799819" lon="35.037332">
        <ele>503.0</ele>
        <time>2011-07-01T07:36:44Z</time>
      </trkpt>
      <trkpt lat="31.799911" lon="35.037176">
        <ele>503.0</ele>
        <time>2011-07-01T07:36:49Z</time>
      </trkpt>
      <trkpt lat="31.799943" lon="35.037015">
        <ele>502.0</ele>
        <time>2011-07-01T07:36:53Z</time>
      </trkpt>
      <trkpt lat="31.800029" lon="35.036881">
        <ele>501.0</ele>
        <time>2011-07-01T07:36:57Z</time>
      </trkpt>
      <trkpt lat="31.800109" lon="35.036752">
        <ele>502.0</ele>
        <time>2011-07-01T07:37:01Z</time>
      </trkpt>
      <trkpt lat="31.8002" lon="35.036559">
        <ele>502.0</ele>
        <time>2011-07-01T07:37:05Z</time>
      </trkpt>
      <trkpt lat="31.800334" lon="35.036339">
        <ele>501.0</ele>
        <time>2011-07-01T07:37:09Z</time>
      </trkpt>
      <trkpt lat="31.800436" lon="35.036146">
        <ele>500.0</ele>
        <time>2011-07-01T07:37:12Z</time>
      </trkpt>
      <trkpt lat="31.800538" lon="35.035824">
        <ele>500.0</ele>
        <time>2011-07-01T07:37:17Z</time>
      </trkpt>
      <trkpt lat="31.800533" lon="35.035572">
        <ele>498.0</ele>
        <time>2011-07-01T07:37:21Z</time>
      </trkpt>
      <trkpt lat="31.800544" lon="35.03539">
        <ele>498.0</ele>
        <time>2011-07-01T07:37:24Z</time>
      </trkpt>
      <trkpt lat="31.800458" lon="35.035202">
        <ele>496.0</ele>
        <time>2011-07-01T07:37:28Z</time>
      </trkpt>
      <trkpt lat="31.80034" lon="35.035105">
        <ele>497.0</ele>
        <time>2011-07-01T07:37:33Z</time>
      </trkpt>
      <trkpt lat="31.800275" lon="35.035084">
        <ele>497.0</ele>
        <time>2011-07-01T07:37:36Z</time>
      </trkpt>
      <trkpt lat="31.80019" lon="35.035079">
        <ele>496.0</ele>
        <time>2011-07-01T07:37:41Z</time>
      </trkpt>
      <trkpt lat="31.800125" lon="35.035036">
        <ele>499.0</ele>
        <time>2011-07-01T07:37:44Z</time>
      </trkpt>
      <trkpt lat="31.800066" lon="35.034998">
        <ele>501.0</ele>
        <time>2011-07-01T07:37:47Z</time>
      </trkpt>
      <trkpt lat="31.800002" lon="35.034971">
        <ele>501.0</ele>
        <time>2011-07-01T07:37:51Z</time>
      </trkpt>
      <trkpt lat="31.799911" lon="35.034842">
        <ele>501.0</ele>
        <time>2011-07-01T07:37:57Z</time>
      </trkpt>
      <trkpt lat="31.799852" lon="35.0348">
        <ele>500.0</ele>
        <time>2011-07-01T07:38:03Z</time>
      </trkpt>
      <trkpt lat="31.799803" lon="35.034751">
        <ele>499.0</ele>
        <time>2011-07-01T07:38:07Z</time>
      </trkpt>
      <trkpt lat="31.799777" lon="35.034682">
        <ele>497.0</ele>
        <time>2011-07-01T07:38:12Z</time>
      </trkpt>
      <trkpt lat="31.799723" lon="35.034617">
        <ele>498.0</ele>
        <time>2011-07-01T07:38:17Z</time>
      </trkpt>
      <trkpt lat="31.799664" lon="35.034574">
        <ele>499.0</ele>
        <time>2011-07-01T07:38:22Z</time>
      </trkpt>
      <trkpt lat="31.79961" lon="35.034505">
        <ele>499.0</ele>
        <time>2011-07-01T07:38:27Z</time>
      </trkpt>
      <trkpt lat="31.799514" lon="35.03437">
        <ele>502.0</ele>
        <time>2011-07-01T07:38:38Z</time>
      </trkpt>
      <trkpt lat="31.79946" lon="35.034317">
        <ele>503.0</ele>
        <time>2011-07-01T07:38:42Z</time>
      </trkpt>
      <trkpt lat="31.799326" lon="35.034226">
        <ele>500.0</ele>
        <time>2011-07-01T07:38:50Z</time>
      </trkpt>
      <trkpt lat="31.799192" lon="35.034156">
        <ele>498.0</ele>
        <time>2011-07-01T07:39:00Z</time>
      </trkpt>
      <trkpt lat="31.799127" lon="35.034091">
        <ele>498.0</ele>
        <time>2011-07-01T07:39:03Z</time>
      </trkpt>
      <trkpt lat="31.799031" lon="35.033973">
        <ele>498.0</ele>
        <time>2011-07-01T07:39:08Z</time>
      </trkpt>
      <trkpt lat="31.799026" lon="35.033877">
        <ele>500.0</ele>
        <time>2011-07-01T07:39:11Z</time>
      </trkpt>
      <trkpt lat="31.79902" lon="35.033802">
        <ele>500.0</ele>
        <time>2011-07-01T07:39:15Z</time>
      </trkpt>
      <trkpt lat="31.799036" lon="35.033721">
        <ele>501.0</ele>
        <time>2011-07-01T07:39:20Z</time>
      </trkpt>
      <trkpt lat="31.798988" lon="35.033668">
        <ele>502.0</ele>
        <time>2011-07-01T07:39:22Z</time>
      </trkpt>
      <trkpt lat="31.798913" lon="35.033517">
        <ele>507.0</ele>
        <time>2011-07-01T07:39:29Z</time>
      </trkpt>
      <trkpt lat="31.798891" lon="35.033442">
        <ele>505.0</ele>
        <time>2011-07-01T07:39:34Z</time>
      </trkpt>
      <trkpt lat="31.798886" lon="35.033367">
        <ele>504.0</ele>
        <time>2011-07-01T07:39:38Z</time>
      </trkpt>
      <trkpt lat="31.798886" lon="35.033367">
        <time>2011-07-01T07:39:50Z</time>
      </trkpt>
    </trkseg>
    <trkseg>
      <trkpt lat="31.798886" lon="35.033367">
        <time>2011-07-01T07:40:33Z</time>
      </trkpt>
      <trkpt lat="31.798891" lon="35.033083">
        <ele>502.0</ele>
        <time>2011-07-01T07:40:37Z</time>
      </trkpt>
      <trkpt lat="31.798886" lon="35.033002">
        <ele>502.0</ele>
        <time>2011-07-01T07:40:39Z</time>
      </trkpt>
      <trkpt lat="31.798908" lon="35.032922">
        <ele>503.0</ele>
        <time>2011-07-01T07:40:43Z</time>
      </trkpt>
      <trkpt lat="31.798929" lon="35.032852">
        <ele>503.0</ele>
        <time>2011-07-01T07:40:46Z</time>
      </trkpt>
      <trkpt lat="31.79894" lon="35.032761">
        <ele>503.0</ele>
        <time>2011-07-01T07:40:50Z</time>
      </trkpt>
      <trkpt lat="31.798972" lon="35.032681">
        <ele>502.0</ele>
        <time>2011-07-01T07:40:55Z</time>
      </trkpt>
      <trkpt lat="31.799042" lon="35.032622">
        <ele>501.0</ele>
        <time>2011-07-01T07:41:00Z</time>
      </trkpt>
      <trkpt lat="31.799278" lon="35.032595">
        <ele>499.0</ele>
        <time>2011-07-01T07:41:08Z</time>
      </trkpt>
      <trkpt lat="31.799363" lon="35.032573">
        <ele>499.0</ele>
        <time>2011-07-01T07:41:11Z</time>
      </trkpt>
      <trkpt lat="31.799487" lon="35.032445">
        <ele>497.0</ele>
        <time>2011-07-01T07:41:17Z</time>
      </trkpt>
      <trkpt lat="31.799551" lon="35.032407">
        <ele>496.0</ele>
        <time>2011-07-01T07:41:20Z</time>
      </trkpt>
      <trkpt lat="31.799616" lon="35.032423">
        <ele>495.0</ele>
        <time>2011-07-01T07:41:23Z</time>
      </trkpt>
      <trkpt lat="31.79976" lon="35.032391">
        <ele>492.0</ele>
        <time>2011-07-01T07:41:29Z</time>
      </trkpt>
      <trkpt lat="31.799825" lon="35.032337">
        <ele>490.0</ele>
        <time>2011-07-01T07:41:32Z</time>
      </trkpt>
      <trkpt lat="31.799884" lon="35.032273">
        <ele>489.0</ele>
        <time>2011-07-01T07:41:35Z</time>
      </trkpt>
      <trkpt lat="31.79998" lon="35.032166">
        <ele>484.0</ele>
        <time>2011-07-01T07:41:41Z</time>
      </trkpt>
      <trkpt lat="31.800039" lon="35.032123">
        <ele>483.0</ele>
        <time>2011-07-01T07:41:44Z</time>
      </trkpt>
      <trkpt lat="31.800093" lon="35.032053">
        <ele>483.0</ele>
        <time>2011-07-01T07:41:47Z</time>
      </trkpt>
      <trkpt lat="31.800152" lon="35.031994">
        <ele>483.0</ele>
        <time>2011-07-01T07:41:51Z</time>
      </trkpt>
      <trkpt lat="31.800216" lon="35.031956">
        <ele>481.0</ele>
        <time>2011-07-01T07:41:55Z</time>
      </trkpt>
      <trkpt lat="31.800318" lon="35.031849">
        <ele>478.0</ele>
        <time>2011-07-01T07:42:02Z</time>
      </trkpt>
      <trkpt lat="31.80034" lon="35.031779">
        <ele>473.0</ele>
        <time>2011-07-01T07:42:11Z</time>
      </trkpt>
      <trkpt lat="31.80034" lon="35.031779">
        <time>2011-07-01T07:42:23Z</time>
      </trkpt>
    </trkseg>
    <trkseg>
      <trkpt lat="31.80034" lon="35.031779">
        <time>2011-07-01T07:44:12Z</time>
      </trkpt>
      <trkpt lat="31.800399" lon="35.031629">
        <ele>470.0</ele>
        <time>2011-07-01T07:44:14Z</time>
      </trkpt>
      <trkpt lat="31.800431" lon="35.031436">
        <ele>468.0</ele>
        <time>2011-07-01T07:44:18Z</time>
      </trkpt>
      <trkpt lat="31.800501" lon="35.031077">
        <ele>468.0</ele>
        <time>2011-07-01T07:44:23Z</time>
      </trkpt>
      <trkpt lat="31.800565" lon="35.03076">
        <ele>468.0</ele>
        <time>2011-07-01T07:44:27Z</time>
      </trkpt>
      <trkpt lat="31.800624" lon="35.030395">
        <ele>468.0</ele>
        <time>2011-07-01T07:44:31Z</time>
      </trkpt>
      <trkpt lat="31.800694" lon="35.029972">
        <ele>465.0</ele>
        <time>2011-07-01T07:44:35Z</time>
      </trkpt>
      <trkpt lat="31.800801" lon="35.029591">
        <ele>463.0</ele>
        <time>2011-07-01T07:44:39Z</time>
      </trkpt>
      <trkpt lat="31.800967" lon="35.029253">
        <ele>460.0</ele>
        <time>2011-07-01T07:44:43Z</time>
      </trkpt>
      <trkpt lat="31.801166" lon="35.029022">
        <ele>458.0</ele>
        <time>2011-07-01T07:44:47Z</time>
      </trkpt>
      <trkpt lat="31.801364" lon="35.028775">
        <ele>456.0</ele>
        <time>2011-07-01T07:44:51Z</time>
      </trkpt>
      <trkpt lat="31.801579" lon="35.028502">
        <ele>452.0</ele>
        <time>2011-07-01T07:44:55Z</time>
      </trkpt>
      <trkpt lat="31.801724" lon="35.028384">
        <ele>450.0</ele>
        <time>2011-07-01T07:44:58Z</time>
      </trkpt>
      <trkpt lat="31.80182" lon="35.028207">
        <ele>448.0</ele>
        <time>2011-07-01T07:45:01Z</time>
      </trkpt>
      <trkpt lat="31.802051" lon="35.027804">
        <ele>445.0</ele>
        <time>2011-07-01T07:45:07Z</time>
      </trkpt>
      <trkpt lat="31.802266" lon="35.027493">
        <ele>442.0</ele>
        <time>2011-07-01T07:45:11Z</time>
      </trkpt>
      <trkpt lat="31.802421" lon="35.027305">
        <ele>439.0</ele>
        <time>2011-07-01T07:45:14Z</time>
      </trkpt>
      <trkpt lat="31.802566" lon="35.027086">
        <ele>438.0</ele>
        <time>2011-07-01T07:45:18Z</time>
      </trkpt>
      <trkpt lat="31.802614" lon="35.026753">
        <ele>435.0</ele>
        <time>2011-07-01T07:45:23Z</time>
      </trkpt>
      <trkpt lat="31.802716" lon="35.02641">
        <ele>435.0</ele>
        <time>2011-07-01T07:45:27Z</time>
      </trkpt>
      <trkpt lat="31.802899" lon="35.026136">
        <ele>432.0</ele>
        <time>2011-07-01T07:45:31Z</time>
      </trkpt>
      <trkpt lat="31.80329" lon="35.025964">
        <ele>428.0</ele>
        <time>2011-07-01T07:45:35Z</time>
      </trkpt>
      <trkpt lat="31.803569" lon="35.025723">
        <ele>425.0</ele>
        <time>2011-07-01T07:45:39Z</time>
      </trkpt>
      <trkpt lat="31.803848" lon="35.025551">
        <ele>422.0</ele>
        <time>2011-07-01T07:45:43Z</time>
      </trkpt>
      <trkpt lat="31.804068" lon="35.025433">
        <ele>419.0</ele>
        <time>2011-07-01T07:45:47Z</time>
      </trkpt>
      <trkpt lat="31.804229" lon="35.02538">
        <ele>417.0</ele>
        <time>2011-07-01T07:45:50Z</time>
      </trkpt>
      <trkpt lat="31.80439" lon="35.025229">
        <ele>413.0</ele>
        <time>2011-07-01T07:45:54Z</time>
      </trkpt>
      <trkpt lat="31.80468" lon="35.024977">
        <ele>410.0</ele>
        <time>2011-07-01T07:45:59Z</time>
      </trkpt>
      <trkpt lat="31.804862" lon="35.024886">
        <ele>405.0</ele>
        <time>2011-07-01T07:46:02Z</time>
      </trkpt>
      <trkpt lat="31.805034" lon="35.024768">
        <ele>398.0</ele>
        <time>2011-07-01T07:46:07Z</time>
      </trkpt>
      <trkpt lat="31.805388" lon="35.024495">
        <ele>395.0</ele>
        <time>2011-07-01T07:46:15Z</time>
      </trkpt>
      <trkpt lat="31.805661" lon="35.024307">
        <ele>394.0</ele>
        <time>2011-07-01T07:46:19Z</time>
      </trkpt>
      <trkpt lat="31.806031" lon="35.024146">
        <ele>391.0</ele>
        <time>2011-07-01T07:46:23Z</time>
      </trkpt>
      <trkpt lat="31.80623" lon="35.024087">
        <ele>390.0</ele>
        <time>2011-07-01T07:46:26Z</time>
      </trkpt>
      <trkpt lat="31.806552" lon="35.023931">
        <ele>386.0</ele>
        <time>2011-07-01T07:46:31Z</time>
      </trkpt>
      <trkpt lat="31.806879" lon="35.023738">
        <ele>380.0</ele>
        <time>2011-07-01T07:46:35Z</time>
      </trkpt>
      <trkpt lat="31.807142" lon="35.023556">
        <ele>377.0</ele>
        <time>2011-07-01T07:46:39Z</time>
      </trkpt>
      <trkpt lat="31.80734" lon="35.023363">
        <ele>373.0</ele>
        <time>2011-07-01T07:46:43Z</time>
      </trkpt>
      <trkpt lat="31.80748" lon="35.023255">
        <ele>371.0</ele>
        <time>2011-07-01T07:46:47Z</time>
      </trkpt>
      <trkpt lat="31.807641" lon="35.0231">
        <ele>369.0</ele>
        <time>2011-07-01T07:46:50Z</time>
      </trkpt>
      <trkpt lat="31.807979" lon="35.022687">
        <ele>367.0</ele>
        <time>2011-07-01T07:46:55Z</time>
      </trkpt>
      <trkpt lat="31.808349" lon="35.022365">
        <ele>362.0</ele>
        <time>2011-07-01T07:46:59Z</time>
      </trkpt>
      <trkpt lat="31.808676" lon="35.022064">
        <ele>359.0</ele>
        <time>2011-07-01T07:47:03Z</time>
      </trkpt>
      <trkpt lat="31.808944" lon="35.021748">
        <ele>356.0</ele>
        <time>2011-07-01T07:47:07Z</time>
      </trkpt>
      <trkpt lat="31.809148" lon="35.021399">
        <ele>354.0</ele>
        <time>2011-07-01T07:47:11Z</time>
      </trkpt>
      <trkpt lat="31.809309" lon="35.021029">
        <ele>351.0</ele>
        <time>2011-07-01T07:47:15Z</time>
      </trkpt>
      <trkpt lat="31.809416" lon="35.020777">
        <ele>349.0</ele>
        <time>2011-07-01T07:47:18Z</time>
      </trkpt>
      <trkpt lat="31.809475" lon="35.020503">
        <ele>348.0</ele>
        <time>2011-07-01T07:47:22Z</time>
      </trkpt>
      <trkpt lat="31.809545" lon="35.020283">
        <ele>345.0</ele>
        <time>2011-07-01T07:47:26Z</time>
      </trkpt>
      <trkpt lat="31.80962" lon="35.020219">
        <ele>342.0</ele>
        <time>2011-07-01T07:47:28Z</time>
      </trkpt>
      <trkpt lat="31.809679" lon="35.020246">
        <ele>342.0</ele>
        <time>2011-07-01T07:47:32Z</time>
      </trkpt>
      <trkpt lat="31.809669" lon="35.020407">
        <ele>337.0</ele>
        <time>2011-07-01T07:47:38Z</time>
      </trkpt>
      <trkpt lat="31.809626" lon="35.020466">
        <ele>334.0</ele>
        <time>2011-07-01T07:47:44Z</time>
      </trkpt>
      <trkpt lat="31.809626" lon="35.020466">
        <time>2011-07-01T07:47:55Z</time>
      </trkpt>
    </trkseg>
    <trkseg>
      <trkpt lat="31.809626" lon="35.020466">
        <time>2011-07-01T07:50:24Z</time>
      </trkpt>
    </trkseg>
  </trk>
</gpx>